[[{"header":{"parameterUnit":"m.s-1","parameterCategory":1,"la1":30.6,"la2":28.766,"lo1":-90.7593,"lo2":-88.6598,"dy":0.0162,"dx":0.0183,"nx":116,"ny":114,"refTime":"2024-06-15T12:00:00:Z","depth":0,"parameterNumber":2,"parameterNumberName":"U-component_of_WINDS"},"data":[0.0,0.0,0.0,0.0,0.0,0.0,0.0,0.0,0.0,0.0,0.0,0.0,0.0,0.0,0.0,0.0,0.0,0.0,0.0,0.0,0.0,0.0,0.0,0.0,0.0,0.0,0.0,0.0,0.0,0.0,0.0,0.0,0.0,0.0,0.0,0.0,0.0,0.0,0.0,0.0,0.0,0.0,0.0,0.0,0.0,0.0,0.0,0.0,0.0,0.0,0.0,0.0,0.0,0.0,0.0,0.0,0.0,0.0,0.0,0.0,0.0,0.0,0.0,0.0,0.0,0.0,0.0,0.0,0.0,0.0,0.0,0.0,0.0,0.0,0.0,0.0,0.0,0.0,0.0,0.0,0.0,0.0,0.0,0.0,0.0,0.0,0.0,0.0,0.0,0.0,0.0,0.0,0.0,0.0,0.0,0.0,0.0,0.0,0.0,0.0,0.0,0.0,0.0,0.0,0.0,0.0,0.0,0.0,0.0,0.0,0.0,0.0,0.0,0.0,0.0,0.0,0.0,0.0,0.0,0.0,0.0,0.0,0.0,0.0,0.0,0.0,0.0,0.0,0.0,0.0,0.0,0.0,0.0,0.0,0.0,0.0,0.0,0.0,0.0,0.0,0.0,0.0,0.0,0.0,0.0,0.0,0.0,0.0,0.0,0.0,0.0,0.0,0.0,0.0,0.0,0.0,0.0,0.0,0.0,0.0,0.0,0.0,0.0,0.0,0.0,0.0,0.0,0.0,0.0,0.0,0.0,0.0,0.0,0.0,0.0,0.0,0.0,0.0,0.0,0.0,0.0,0.0,0.0,0.0,0.0,0.0,0.0,0.0,0.0,0.0,0.0,0.0,0.0,0.0,0.0,0.0,0.0,0.0,0.0,0.0,0.0,0.0,0.0,0.0,0.0,0.0,0.0,0.0,0.0,0.0,0.0,0.0,0.0,0.0,0.0,0.0,0.0,0.0,0.0,0.0,0.0,0.0,0.0,0.0,0.0,0.0,0.0,0.0,0.0,0.0,0.0,0.0,0.0,0.0,0.0,0.0,0.0,0.0,0.0,0.0,0.0,0.0,0.0,0.0,0.0,0.0,0.0,0.0,0.0,0.0,0.0,0.0,0.0,0.0,0.0,0.0,0.0,0.0,0.0,0.0,0.0,0.0,0.0,0.0,0.0,0.0,0.0,0.0,0.0,0.0,0.0,0.0,0.0,0.0,0.0,0.0,0.0,0.0,0.0,0.0,0.0,0.0,0.0,0.0,0.0,0.0,0.0,0.0,0.0,0.0,0.0,0.0,0.0,0.0,0.0,0.0,0.0,0.0,0.0,0.0,0.0,0.0,0.0,0.0,0.0,0.0,0.0,0.0,0.0,0.0,0.0,0.0,0.0,0.0,0.0,0.0,0.0,0.0,0.0,0.0,0.0,0.0,0.0,0.0,0.0,0.0,0.0,0.0,0.0,0.0,0.0,0.0,0.0,0.0,0.0,0.0,0.0,0.0,0.0,0.0,0.0,0.0,0.0,0.0,0.0,0.0,0.0,0.0,0.0,0.0,0.0,0.0,0.0,0.0,0.0,0.0,0.0,0.0,0.0,0.0,0.0,0.0,0.0,0.0,0.0,0.0,0.0,0.0,0.0,0.0,0.0,0.0,0.0,0.0,0.0,0.0,0.0,0.0,0.0,0.0,0.0,0.0,0.0,0.0,0.0,0.0,0.0,0.0,0.0,0.0,0.0,0.0,0.0,0.0,0.0,0.0,0.0,0.0,0.0,0.0,0.0,0.0,0.0,0.0,0.0,0.0,0.0,0.0,0.0,0.0,0.0,0.0,0.0,0.0,0.0,0.0,0.0,0.0,0.0,0.0,0.0,0.0,0.0,0.0,0.0,0.0,0.0,0.0,0.0,0.0,0.0,0.0,0.0,0.0,0.0,0.0,0.0,0.0,0.0,0.0,0.0,0.0,0.0,0.0,0.0,0.0,0.0,0.0,0.0,0.0,0.0,0.0,0.0,0.0,0.0,0.0,0.0,0.0,0.0,0.0,0.0,0.0,0.0,0.0,0.0,0.0,0.0,0.0,0.0,0.0,0.0,0.0,0.0,0.0,0.0,0.0,0.0,0.0,0.0,0.0,0.0,0.0,0.0,0.0,0.0,0.0,0.0,0.0,0.0,0.0,0.0,0.0,0.0,0.0,0.0,0.0,0.0,0.0,0.0,0.0,0.0,0.0,0.0,0.0,0.0,0.0,0.0,0.0,0.0,0.0,0.0,0.0,0.0,0.0,0.0,0.0,0.0,0.0,0.0,0.0,0.0,0.0,0.0,0.0,0.0,0.0,0.0,0.0,0.0,0.0,0.0,0.0,0.0,0.0,0.0,0.0,0.0,0.0,0.0,0.0,0.0,0.0,0.0,0.0,0.0,0.0,0.0,0.0,0.0,0.0,0.0,0.0,0.0,0.0,0.0,0.0,0.0,0.0,0.0,0.0,0.0,0.0,0.0,0.0,0.0,0.0,0.0,0.0,0.0,0.0,0.0,0.0,0.0,0.0,0.0,0.0,0.0,0.0,0.0,0.0,0.0,0.0,0.0,0.0,0.0,0.0,0.0,0.0,0.0,0.0,0.0,0.0,0.0,0.0,0.0,0.0,0.0,0.0,0.0,0.0,0.0,0.0,0.0,0.0,0.0,0.0,0.0,0.0,0.0,0.0,0.0,0.0,0.0,0.0,0.0,0.0,0.0,0.0,0.0,0.0,0.0,0.0,0.0,0.0,0.0,0.0,0.0,0.0,0.0,0.0,0.0,0.0,0.0,0.0,0.0,0.0,0.0,0.0,0.0,0.0,0.0,0.0,0.0,0.0,0.0,0.0,0.0,0.0,0.0,0.0,0.0,0.0,0.0,0.0,0.0,0.0,0.0,0.0,0.0,0.0,0.0,0.0,0.0,0.0,0.0,0.0,0.0,0.0,0.0,0.0,0.0,0.0,0.0,0.0,0.0,0.0,0.0,0.0,0.0,0.0,0.0,0.0,0.0,0.0,0.0,0.0,0.0,0.0,0.0,0.0,0.0,0.0,0.0,0.0,0.0,0.0,0.0,0.0,0.0,0.0,0.0,0.0,0.0,0.0,0.0,0.0,0.0,0.0,0.0,0.0,0.0,0.0,0.0,0.0,0.0,0.0,0.0,0.0,0.0,0.0,0.0,0.0,0.0,0.0,0.0,0.0,0.0,0.0,0.0,0.0,0.0,0.0,0.0,0.0,0.0,0.0,0.0,0.0,0.0,0.0,0.0,0.0,0.0,0.0,0.0,0.0,0.0,0.0,0.0,0.0,0.0,0.0,0.0,0.0,0.0,0.0,0.0,0.0,0.0,0.0,0.0,0.0,0.0,0.0,0.0,0.0,0.0,0.0,0.0,0.0,0.0,0.0,0.0,0.0,0.0,0.0,0.0,0.0,0.0,0.0,0.0,0.0,0.0,0.0,0.0,0.0,0.0,0.0,0.0,0.0,0.0,0.0,0.0,0.0,0.0,0.0,0.0,0.0,0.0,0.0,0.0,0.0,0.0,0.0,0.0,0.0,0.0,0.0,0.0,0.0,0.0,0.0,0.0,0.0,0.0,0.0,0.0,0.0,0.0,0.0,0.0,0.0,0.0,0.0,0.0,0.0,0.0,0.0,0.0,0.0,0.0,0.0,0.0,0.0,0.0,0.0,0.0,0.0,0.0,0.0,0.0,0.0,0.0,0.0,0.0,0.0,0.0,0.0,0.0,0.0,0.0,0.0,0.0,0.0,0.0,0.0,0.0,0.0,0.0,0.0,0.0,0.0,0.0,0.0,0.0,0.0,0.0,0.0,0.0,0.0,0.0,0.0,0.0,0.0,0.0,0.0,0.0,0.0,0.0,0.0,0.0,0.0,0.0,0.0,0.0,0.0,0.0,0.0,0.0,0.0,0.0,0.0,0.0,0.0,0.0,0.0,0.0,0.0,0.0,0.0,0.0,0.0,0.0,0.0,0.0,0.0,0.0,0.0,0.0,0.0,0.0,0.0,0.0,0.0,0.0,0.0,0.0,0.0,0.0,0.0,0.0,0.0,0.0,0.0,0.0,0.0,0.0,0.0,0.0,0.0,0.0,0.0,0.0,0.0,0.0,0.0,0.0,0.0,0.0,0.0,0.0,0.0,0.0,0.0,0.0,0.0,0.0,0.0,0.0,0.0,0.0,0.0,0.0,0.0,0.0,0.0,0.0,0.0,0.0,0.0,0.0,0.0,0.0,0.0,0.0,0.0,0.0,0.0,0.0,0.0,0.0,0.0,0.0,0.0,0.0,0.0,0.0,0.0,0.0,0.0,0.0,0.0,0.0,0.0,0.0,0.0,0.0,0.0,0.0,0.0,0.0,0.0,0.0,0.0,0.0,0.0,0.0,0.0,0.0,0.0,0.0,0.0,0.0,0.0,0.0,0.0,0.0,0.0,0.0,0.0,0.0,0.0,0.0,0.0,0.0,0.0,0.0,0.0,0.0,0.0,0.0,0.0,0.0,0.0,0.0,0.0,0.0,0.0,0.0,0.0,0.0,0.0,0.0,0.0,0.0,0.0,0.0,0.0,0.0,0.0,0.0,0.0,0.0,0.0,0.0,0.0,0.0,0.0,0.0,0.0,0.0,0.0,0.0,0.0,0.0,0.0,0.0,0.0,0.0,0.0,0.0,0.0,0.0,0.0,0.0,0.0,0.0,0.0,0.0,0.0,0.0,0.0,0.0,0.0,0.0,0.0,0.0,0.0,0.0,0.0,0.0,0.0,0.0,0.0,0.0,0.0,0.0,0.0,0.0,0.0,0.0,0.0,0.0,0.0,0.0,0.0,0.0,0.0,0.0,0.0,0.0,0.0,0.0,0.0,0.0,0.0,0.0,0.0,0.0,0.0,0.0,0.0,0.0,0.0,0.0,0.0,0.0,0.0,0.0,0.0,0.0,0.0,0.0,0.0,0.0,0.0,0.0,0.0,0.0,0.0,0.0,0.0,0.0,0.0,0.0,0.0,0.0,0.0,0.0,0.0,0.0,0.0,0.0,0.0,0.0,0.0,0.0,0.0,0.0,0.0,0.0,0.0,0.0,0.0,0.0,0.0,0.0,0.0,0.0,0.0,0.0,0.0,0.0,0.0,0.0,0.0,0.0,0.0,0.0,0.0,0.0,0.0,0.0,0.0,0.0,0.0,0.0,0.0,0.0,0.0,0.0,0.0,0.0,0.0,0.0,0.0,0.0,0.0,0.0,0.0,0.0,0.0,0.0,0.0,0.0,0.0,0.0,0.0,0.0,0.0,0.0,0.0,0.0,0.0,0.0,0.0,0.0,0.0,0.0,0.0,0.0,0.0,0.0,0.0,0.0,0.0,0.0,0.0,0.0,0.0,0.0,0.0,0.0,0.0,0.0,0.0,0.0,0.0,0.0,0.0,0.0,0.0,0.0,0.0,0.0,0.0,0.0,0.0,0.0,0.0,0.0,0.0,0.0,0.0,0.0,0.0,0.0,0.0,0.0,0.0,0.0,0.0,0.0,0.0,0.0,0.0,0.0,0.0,0.0,0.0,0.0,0.0,0.0,0.0,0.0,0.0,0.0,0.0,0.0,0.0,0.0,0.0,0.0,0.0,0.0,0.0,0.0,0.0,0.0,0.0,0.0,0.0,0.0,0.0,0.0,0.0,0.0,0.0,0.0,0.0,0.0,0.0,0.0,0.0,0.0,0.0,0.0,0.0,0.0,0.0,0.0,0.0,0.0,0.0,0.0,0.0,0.0,0.0,0.0,0.0,0.0,0.0,0.0,0.0,0.0,0.0,0.0,0.0,0.0,0.0,0.0,0.0,0.0,0.0,0.0,0.0,0.0,0.0,0.0,0.0,0.0,0.0,0.0,0.0,0.0,0.0,0.0,0.0,0.0,0.0,0.0,0.0,0.0,0.0,0.0,0.0,0.0,0.0,0.0,0.0,0.0,0.0,0.0,0.0,0.0,0.0,0.0,0.0,0.0,0.0,0.0,0.0,0.0,0.0,0.0,0.0,0.0,0.0,0.0,0.0,0.0,0.0,0.0,0.0,0.0,0.0,0.0,0.0,0.0,0.0,-3.9094,0.0,0.0,0.0,0.0,0.0,0.0,0.0,0.0,0.0,0.0,0.0,0.0,0.0,0.0,0.0,0.0,0.0,0.0,0.0,0.0,0.0,0.0,0.0,0.0,-3.2208,-3.3305,-3.2966,-3.4797,-3.5513,-3.4459,0.0,0.0,0.0,0.0,0.0,-3.8283,-3.8175,-3.8717,-3.9962,-4.0226,-4.0696,-4.1324,-4.0995,-3.8178,-3.3224,0.0,0.0,0.0,0.0,0.0,0.0,0.0,0.0,0.0,0.0,0.0,0.0,0.0,0.0,0.0,0.0,0.0,0.0,0.0,0.0,0.0,0.0,0.0,0.0,0.0,0.0,0.0,0.0,0.0,0.0,0.0,0.0,0.0,0.0,0.0,0.0,0.0,0.0,0.0,0.0,0.0,0.0,0.0,0.0,0.0,0.0,0.0,0.0,0.0,0.0,0.0,0.0,0.0,0.0,0.0,0.0,0.0,0.0,0.0,0.0,0.0,0.0,0.0,0.0,0.0,0.0,0.0,0.0,0.0,0.0,0.0,-4.0877,0.0,0.0,0.0,0.0,0.0,0.0,0.0,0.0,0.0,0.0,0.0,0.0,0.0,0.0,0.0,0.0,0.0,0.0,0.0,0.0,0.0,-2.7988,-2.9009,-3.1182,-3.2389,-3.199,-3.424,-3.521,-3.4117,-3.5307,0.0,0.0,0.0,-3.7272,-3.7903,-3.8958,-3.9893,-4.0769,-4.1538,-4.2261,-4.292,-4.2535,-3.9762,-3.4914,-3.2382,0.0,0.0,0.0,0.0,0.0,0.0,0.0,0.0,0.0,0.0,0.0,0.0,0.0,0.0,0.0,0.0,0.0,0.0,0.0,0.0,0.0,0.0,0.0,0.0,0.0,0.0,0.0,0.0,0.0,0.0,0.0,0.0,0.0,0.0,0.0,0.0,0.0,0.0,0.0,0.0,0.0,0.0,0.0,0.0,0.0,0.0,0.0,0.0,0.0,0.0,0.0,0.0,0.0,0.0,0.0,0.0,0.0,0.0,0.0,0.0,0.0,0.0,0.0,-4.6401,-4.6728,-4.7179,-4.7179,-4.7481,-4.7883,-4.5573,-4.4694,-4.4769,-4.2805,0.0,0.0,0.0,0.0,0.0,0.0,0.0,0.0,0.0,0.0,0.0,0.0,0.0,0.0,0.0,0.0,0.0,0.0,0.0,-2.687,-2.7806,-2.9844,-3.0985,-3.0584,-3.1977,-3.2783,-3.2582,-3.3871,0.0,-3.642,-3.6467,-3.6996,-3.805,-3.8683,-3.9816,-4.1472,-4.3105,-4.4257,-4.4885,-4.3199,-4.1526,-3.9738,-3.6396,-3.325,-3.0261,0.0,0.0,0.0,0.0,0.0,0.0,0.0,0.0,0.0,0.0,0.0,0.0,0.0,0.0,0.0,0.0,0.0,0.0,0.0,0.0,0.0,0.0,0.0,0.0,0.0,0.0,0.0,0.0,0.0,0.0,0.0,0.0,0.0,0.0,0.0,0.0,0.0,0.0,0.0,0.0,0.0,-4.0799,-4.1003,0.0,0.0,0.0,0.0,0.0,0.0,0.0,0.0,0.0,0.0,0.0,0.0,0.0,-4.6878,-4.7481,-4.846,-4.8987,-4.9063,-5.0042,-5.0544,-5.0619,-5.0619,-5.0921,-5.1423,-5.1071,0.0,-4.6024,-4.5271,0.0,0.0,0.0,0.0,0.0,0.0,0.0,0.0,0.0,0.0,0.0,0.0,0.0,0.0,0.0,0.0,0.0,0.0,0.0,0.0,0.0,-2.8775,-3.0003,-2.9533,-3.1653,-3.2635,-3.1646,-3.3568,-3.4892,-3.5235,-3.6001,-3.6767,-3.7565,-3.9132,-4.1184,-4.3679,-4.451,-4.4893,-4.4762,-4.3605,-4.2579,-4.1645,-3.9508,-3.5856,-3.1273,-2.8765,0.0,0.0,0.0,0.0,0.0,0.0,0.0,0.0,0.0,0.0,0.0,0.0,0.0,0.0,0.0,0.0,0.0,0.0,0.0,0.0,0.0,0.0,0.0,0.0,0.0,0.0,0.0,0.0,0.0,0.0,0.0,0.0,0.0,0.0,0.0,0.0,0.0,0.0,0.0,-4.0626,-4.1806,-4.1806,-4.2333,-4.2359,0.0,0.0,0.0,0.0,0.0,0.0,0.0,0.0,0.0,-4.8937,-4.9289,-4.9866,-5.072,-5.1222,-5.1624,-5.19,-5.2402,-5.2804,-5.313,-5.313,-5.3256,-5.3482,-5.3482,-5.2176,-4.9916,-4.841,-4.6527,-4.446,0.0,0.0,0.0,0.0,-4.4282,-4.4705,0.0,0.0,0.0,0.0,0.0,0.0,0.0,0.0,0.0,0.0,0.0,0.0,-2.5908,-2.7986,-2.9265,-2.9113,-3.1233,-3.2126,-3.1042,-3.3196,-3.446,-3.4409,-3.5667,-3.6606,-3.7008,-3.965,-4.2361,-4.5052,-4.5272,-4.5158,-4.4608,-4.3518,-4.2733,-4.2229,-4.1055,-3.7568,-3.2537,-3.0383,-2.7952,-2.5488,0.0,0.0,0.0,0.0,0.0,0.0,0.0,0.0,0.0,0.0,0.0,0.0,0.0,0.0,0.0,0.0,0.0,0.0,0.0,0.0,0.0,0.0,0.0,0.0,0.0,0.0,0.0,0.0,0.0,0.0,0.0,0.0,0.0,0.0,0.0,0.0,0.0,-4.2258,-4.3168,-4.2866,-4.4016,-4.4217,0.0,0.0,0.0,0.0,0.0,0.0,-4.8335,-4.8912,-4.9967,-5.1649,-5.2101,-5.2804,-5.3758,-5.3632,-5.3808,-5.4336,-5.4059,-5.431,-5.4988,-5.4838,-5.4863,-5.4988,-5.4988,-5.4436,-5.3381,-5.1147,-4.9163,-4.7456,-4.6476,-4.5673,-4.5187,-4.6405,-4.6887,-4.7215,0.0,0.0,0.0,0.0,0.0,0.0,0.0,0.0,0.0,0.0,0.0,-2.5527,-2.6816,-2.7787,-2.8702,-2.9509,-2.9718,-3.0128,-3.0935,-3.2315,-3.348,-3.436,-3.5667,-3.643,-3.6455,-3.9957,-4.2654,-4.4454,-4.5072,-4.5389,-4.5314,-4.2807,-4.169,-4.1614,-4.0313,-3.8107,-3.5156,-3.2757,-2.9856,-2.6797,-2.5527,0.0,0.0,0.0,0.0,0.0,0.0,0.0,0.0,0.0,0.0,0.0,0.0,0.0,0.0,0.0,0.0,0.0,0.0,0.0,0.0,0.0,0.0,0.0,0.0,0.0,0.0,0.0,0.0,0.0,0.0,0.0,0.0,0.0,0.0,0.0,0.0,0.0,0.0,-4.4618,-4.6401,0.0,0.0,0.0,0.0,-4.7657,-4.8761,-5.0117,-5.1774,-5.2377,-5.3432,-5.5089,-5.5164,-5.5465,-5.6043,-5.5516,-5.5541,-5.6068,-5.5013,-5.5089,-5.6118,-5.5591,-5.5641,-5.6118,-5.6118,-5.5792,-5.5089,-5.2879,-5.067,-4.8636,-4.8033,-4.7154,-4.6351,-4.7417,-4.7856,-4.8193,0.0,0.0,0.0,0.0,0.0,-2.2344,-2.2984,-2.3379,-2.33,-2.2601,-2.3426,-2.4492,-2.561,-2.6637,-2.8012,-2.9846,-2.998,-3.001,-3.0108,-3.1911,-3.3208,-3.3609,-3.5722,-3.7645,-3.9203,-4.0851,-4.2763,-4.5072,-4.3629,-4.3361,-4.4116,-4.1541,-4.0364,-4.0364,-3.9878,-3.8052,-3.5291,-3.3838,-3.1687,-2.9096,-2.7122,-2.5801,0.0,0.0,0.0,0.0,0.0,0.0,0.0,0.0,0.0,0.0,0.0,0.0,0.0,0.0,0.0,0.0,0.0,0.0,0.0,0.0,0.0,0.0,0.0,0.0,0.0,0.0,0.0,0.0,0.0,0.0,0.0,0.0,0.0,0.0,0.0,0.0,0.0,-4.738,-4.9264,0.0,-4.8284,-4.9138,-5.0017,-5.0569,-5.1624,-5.2804,-5.416,-5.4411,-5.4938,-5.5892,-5.5917,-5.6018,-5.6219,-5.6018,-5.6018,-5.6219,-5.5817,-5.5842,-5.6194,-5.6018,-5.6018,-5.6219,-5.6219,-5.5892,-5.534,-5.4536,-5.313,-5.1423,-5.1222,-5.0469,-4.9565,-4.9941,-5.0067,-5.0207,0.0,0.0,0.0,0.0,-2.1894,-2.2168,-2.2964,-2.3516,-2.3389,-2.2294,-2.3037,-2.4176,-2.5466,-2.6353,-2.7881,-3.0237,-3.0293,-3.0019,-2.9646,-3.1732,-3.2952,-3.2897,-3.5646,-3.8127,-4.0112,-4.092,-4.2258,-4.4116,-4.2398,-4.2035,-4.2786,-4.0693,-3.9697,-3.9697,-3.9697,-3.8372,-3.5954,-3.4894,-3.279,-3.006,-2.8351,-2.7148,-2.6348,0.0,0.0,0.0,0.0,0.0,0.0,0.0,0.0,0.0,0.0,0.0,0.0,0.0,0.0,0.0,0.0,0.0,0.0,0.0,0.0,0.0,0.0,0.0,0.0,0.0,0.0,0.0,0.0,0.0,0.0,0.0,0.0,0.0,0.0,-4.8284,-4.9967,-4.9389,-5.1448,-5.2277,-5.0619,-5.18,-5.2829,-5.3181,-5.421,-5.5164,-5.5917,-5.6118,-5.6394,-5.6771,-5.6771,-5.6771,-5.6771,-5.6595,-5.6495,-5.6495,-5.6294,-5.5827,-5.5189,-5.5901,-5.5827,-5.5189,-5.5901,-5.6018,-5.5666,-5.5666,-5.4913,-5.3733,-5.3557,-5.2904,-5.2101,-5.2101,-5.2,-5.1867,0.0,0.0,0.0,-2.1801,-2.1916,-2.221,-2.2964,-2.3516,-2.3534,-2.2817,-2.3473,-2.4664,-2.6331,-2.6927,-2.8136,-3.0587,-3.0372,-2.9924,-2.957,-3.1657,-3.2744,-3.2448,-3.5476,-3.7764,-3.8919,-4.0115,-4.1037,-4.1591,-4.1541,-4.1541,-4.1541,-4.0313,-3.9697,-3.9697,-3.9697,-3.8868,-3.7346,-3.589,-3.3108,-2.957,-2.9141,-2.8457,-2.7728,0.0,0.0,0.0,0.0,0.0,0.0,0.0,0.0,0.0,0.0,0.0,0.0,0.0,0.0,0.0,0.0,0.0,0.0,0.0,0.0,0.0,0.0,0.0,0.0,0.0,0.0,0.0,0.0,0.0,0.0,0.0,0.0,0.0,-4.7833,-4.9967,-5.1172,-5.0645,-5.2955,-5.3984,-5.2402,-5.4185,-5.544,-5.5465,-5.647,-5.7072,-5.7072,-5.76,-5.7901,-5.7901,-5.7901,-5.7901,-5.7901,-5.7323,-5.6948,-5.6874,-5.6396,-5.5041,-5.31,-5.5115,-5.4893,-5.31,-5.5115,-5.5974,-5.5974,-5.5974,-5.5674,-5.5196,-5.4813,-5.4235,-5.3733,-5.3733,-5.3406,-5.306,0.0,0.0,-2.275,-2.2916,-2.2899,-2.2981,-2.3095,-2.3769,-2.3466,-2.1329,-2.2164,-2.2901,-2.2846,-2.3285,-2.487,-2.8003,-2.79,-2.8089,-2.9046,-3.0293,-3.2237,-3.4875,-3.6542,-3.8044,-3.9446,-3.9804,-4.0538,-4.1591,-4.0642,-4.0693,-4.1541,-4.0313,-3.9697,-3.9697,-3.9697,-3.8319,-3.589,-3.5453,-3.3436,-3.0488,-3.0019,-2.9531,-2.9059,0.0,0.0,0.0,0.0,0.0,0.0,0.0,0.0,0.0,0.0,0.0,0.0,0.0,0.0,0.0,0.0,0.0,0.0,0.0,0.0,0.0,0.0,0.0,0.0,0.0,0.0,0.0,0.0,0.0,0.0,0.0,-4.3972,-4.7978,-5.0581,-5.2503,-5.3758,-5.3984,-5.5039,-5.5742,-5.5691,-5.6219,-5.6746,-5.7173,-5.7499,-5.765,-5.765,-5.7801,-5.7901,-5.7901,-5.7901,-5.7901,-5.7901,-5.7323,-5.6253,-5.4748,-5.4216,-5.2873,-5.0839,-5.1478,-5.1401,-5.0839,-5.1478,-5.1708,-5.1708,-5.1708,-5.1615,-5.1757,-5.4229,-5.4813,-5.4336,-5.4336,-5.3959,-5.3734,0.0,-2.3153,-2.3594,-2.3946,-2.3602,-2.3432,-2.3745,-2.4162,-2.3663,-2.1655,-2.2605,-2.3429,-2.3387,-2.3795,-2.5133,-2.7716,-2.7921,-2.8142,-2.8618,-2.9872,-3.2001,-3.5161,-3.5892,-3.7027,-3.8739,-3.8792,-3.9567,-4.1156,-4.0185,-4.0185,-4.113,-4.0133,-3.9697,-3.9697,-3.9077,-3.7477,-3.5233,-3.4626,-3.3042,-3.0859,-3.0586,-3.0351,-3.0078,-2.9629,-2.9141,-2.8672,-2.832,-2.8027,-2.7793,-2.7617,0.0,0.0,0.0,0.0,0.0,0.0,0.0,0.0,0.0,0.0,0.0,0.0,0.0,0.0,0.0,0.0,0.0,0.0,0.0,0.0,0.0,0.0,0.0,0.0,-4.5025,-4.9062,-5.2106,-5.4113,-5.5465,-5.6018,-5.657,-5.7047,-5.7374,-5.7399,-5.7524,-5.7876,-5.8102,-5.8252,-5.8252,-5.8453,-5.8579,-5.8579,-5.8579,-5.8579,-5.8579,-5.8027,-5.6495,-5.4194,-5.3671,-5.1739,-4.8654,-4.9596,-4.9518,-4.8755,-4.9596,-4.9986,-4.9986,-4.9986,-4.9986,0.0,0.0,0.0,0.0,0.0,-5.3984,-5.3797,0.0,-2.3546,-2.4203,-2.5108,-2.4443,-2.3983,-2.4703,-2.4638,-2.4102,-2.2931,-2.3874,-2.4912,-2.5595,-2.5988,-2.6811,-2.8369,-2.8939,-2.8975,-2.8476,-2.9977,-3.1901,-3.4051,-3.4215,-3.5196,-3.7186,-3.724,-3.8195,-4.0137,-3.9715,-3.9767,-4.04,-3.9923,-3.9697,-3.9645,-3.819,-3.6703,-3.5178,-3.3797,-3.2305,-3.0898,-3.0937,-3.0937,-3.084,-3.043,-3.0273,-3.0176,-2.9414,-2.9141,-2.9082,-2.8711,0.0,0.0,0.0,0.0,0.0,0.0,0.0,0.0,0.0,0.0,0.0,0.0,0.0,0.0,0.0,0.0,0.0,0.0,0.0,0.0,0.0,0.0,0.0,0.0,-4.6461,-4.9836,-5.2499,-5.4941,-5.662,-5.6997,-5.7499,-5.7851,-5.7976,-5.8001,-5.8027,-5.8077,-5.8529,-5.8805,-5.8805,0.0,0.0,0.0,0.0,-5.9483,-5.9483,-5.893,-5.7336,-5.4819,-5.3868,-5.1139,-4.693,-4.8539,-4.828,-4.6545,-4.8417,-4.9283,-4.9283,-4.9283,-4.944,-4.9853,-5.1937,-5.2438,-5.2143,-5.3005,-5.3367,-5.3358,0.0,-2.6191,-2.6627,-2.6836,-2.6691,-2.6126,-2.4998,-2.501,-2.4546,-2.2706,-2.3229,-2.354,-2.2957,-2.3115,-2.4042,-2.5917,-2.6481,-2.7509,-2.9222,-2.9987,-3.1106,-3.2751,-3.3168,-3.4094,-3.5672,-3.5727,-3.648,-3.807,-3.795,-3.8579,-3.9848,-3.9747,-3.9697,-3.9645,-3.819,-3.6703,-3.5201,-3.4083,-3.2534,-3.0918,-3.1269,-3.1191,-3.0879,-3.0801,-3.0762,-3.0742,-3.0566,-3.0508,-3.0488,-3.041,-3.0137,-2.9824,-2.9824,-2.959,0.0,0.0,0.0,0.0,0.0,0.0,0.0,0.0,0.0,0.0,0.0,0.0,0.0,0.0,0.0,0.0,0.0,0.0,0.0,-4.1455,-4.6271,-5.0207,-5.1129,-5.5275,-5.7926,-5.7123,-5.7123,-5.7575,-5.8478,-5.8554,-5.873,-5.9156,-5.9282,-5.9357,-5.9357,-5.9433,-5.9483,-5.9483,-5.9483,-5.9483,-5.9483,-5.8554,-5.7163,-5.5421,0.0,0.0,-4.7473,-4.5678,-4.472,-4.433,-4.472,-4.4883,-4.4883,-4.4883,-4.592,-4.7746,-4.9775,-5.0562,-5.0448,-5.0628,-5.1185,-5.1874,-2.7519,-2.7695,-2.7801,-2.8047,-2.7671,-2.6916,-2.5815,-2.5508,-2.5163,-2.4415,-2.4498,-2.474,-2.5095,-2.4747,-2.483,-2.5825,-2.6511,-2.772,-2.9748,-3.0078,-3.0636,-3.1576,-3.1856,-3.2701,-3.4181,-3.4181,-3.5069,-3.6804,-3.6495,-3.6897,-3.7881,-3.7619,-3.7501,-3.7423,-3.5945,-3.4902,-3.4146,-3.2835,-3.1736,-3.0918,-3.1113,-3.1074,-3.0898,-3.0898,-3.0898,-3.0898,-3.0898,-3.0898,-3.0898,-3.0898,-3.0742,-3.0547,-3.0547,-3.041,-3.0176,0.0,0.0,0.0,0.0,0.0,0.0,0.0,0.0,0.0,0.0,0.0,0.0,0.0,0.0,-3.9505,-4.0646,0.0,-4.4799,-4.5806,-4.9607,-5.2542,-5.2719,-5.5925,-5.8202,-5.7926,-5.8102,-5.8478,-5.9056,-5.9106,-5.9207,-5.9483,-5.9483,-5.9483,-5.9483,-5.8422,-5.7849,-5.7849,-5.6773,-5.6693,-5.7849,-5.7335,-5.6377,-5.5104,-5.2169,-4.9561,-4.7182,-4.4758,-4.3711,-4.3711,-4.3711,-4.3711,-4.3711,-4.3711,-4.435,-4.5373,-4.6465,-4.8122,-4.9964,-4.9617,-4.9745,-5.0058,-2.8612,-2.8463,-2.8288,-2.8963,-2.8187,-2.7254,-2.6621,-2.5807,-2.539,-2.5761,-2.5618,-2.6011,-2.7428,-2.6812,-2.6367,-2.6621,-2.7422,-2.8555,-3.0098,-3.0293,-3.0488,-3.0879,-3.0898,-3.1441,-3.2644,-3.2701,-3.3607,-3.5557,-3.5102,-3.5213,-3.5927,-3.5468,-3.5288,-3.5233,-3.3733,-3.3077,-3.3042,-3.1736,-3.1035,-3.0898,-3.1074,-3.1035,-3.0898,-3.0898,-3.0898,-3.0898,-3.0898,-3.0898,-3.0898,-3.0898,-3.0898,-3.0898,-3.0898,-3.0898,-3.084,-3.0547,-3.0664,0.0,0.0,0.0,0.0,0.0,0.0,0.0,0.0,-3.5879,-3.6779,-3.8561,-4.0925,-4.3276,-4.5105,-4.7661,-4.9779,-5.0839,-5.3185,-5.489,-5.489,-5.6835,-5.8378,-5.8805,-5.9156,-5.9382,-5.9483,-5.9483,-5.9483,-5.9483,-5.9583,-5.9608,-5.9508,-5.7473,-5.6334,-5.6215,-5.4069,-5.3743,-5.5574,-5.548,-5.501,-5.4163,-5.1945,-4.9533,-4.6912,-4.4778,-4.3789,-4.3711,-4.3711,-4.3711,-4.3711,-4.3711,-4.3711,-4.3711,-4.3711,-4.5758,-4.8689,-4.8218,-4.8069,-4.8142,0.0,-2.846,-2.844,-2.9524,-2.8773,-2.7653,-2.6625,-2.5547,-2.4652,-2.4148,-2.4349,-2.4773,-2.5393,-2.5663,-2.6269,-2.7474,-2.8301,-2.918,-3.0137,-3.0586,-3.084,-3.0898,-3.0898,-3.0995,-3.117,-3.117,-3.1903,-3.3424,-3.3381,-3.4035,-3.5378,-3.5333,-3.5288,-3.5233,-3.3733,-3.3077,-3.3084,-3.2375,-3.1582,-3.0957,-3.1719,-3.1562,-3.0898,-3.0898,-3.0898,-3.0898,-3.0898,-3.0898,-3.0898,-3.0898,-3.0898,-3.0898,-3.0898,-3.0898,-3.0957,-3.1269,-3.1133,-3.1113,-3.2148,-3.3164,-3.4219,-3.543,-3.5801,-3.666,0.0,-3.9863,-4.0444,-4.3981,-4.5586,-4.7047,-4.9141,-5.0513,-5.1311,-5.1468,-5.3776,-5.5493,-5.5493,-5.7696,-5.9332,-5.9408,-5.9056,-5.8981,-5.9458,-5.9483,-5.9483,-5.9483,-5.996,-6.001,-5.9533,-5.7868,-5.6667,-5.6191,-5.4069,-5.3004,-5.3251,-5.2822,-5.2552,-5.252,-4.9799,-4.8204,-4.7536,-4.534,-4.4101,-4.3711,-4.3711,-4.3711,-4.3711,-4.3711,-4.3711,-4.3711,-4.3711,-4.4021,-4.4412,-4.4353,-4.5169,-4.6263,0.0,-2.7553,-2.7342,-2.781,-2.7504,-2.6789,-2.5672,-2.5126,-2.4827,-2.4825,-2.4356,-2.4572,-2.5991,-2.5881,-2.6055,-2.6855,-2.793,-2.8926,-2.9766,-3.0488,-3.045,-2.9471,-2.9471,-2.9039,-2.8068,-2.8068,-2.8824,-3.0335,-3.0335,-3.1168,-3.2721,-3.297,-3.3095,-3.3058,-3.2763,-3.2591,-3.2552,-3.2294,-3.1953,-3.1641,-3.1738,-3.1582,-3.123,-3.0976,-3.0898,-3.0898,-3.0898,-3.0898,0.0,-3.0898,-3.0898,-3.0898,-3.0898,-3.0898,-3.0918,-3.1094,-3.1562,-3.2441,-3.4492,-3.5312,-3.5898,-3.7187,-3.8086,-3.9023,-4.0469,-4.0898,-4.1951,-4.5295,-4.7469,-4.9506,-5.1924,-5.4152,-5.5842,-5.6131,-5.7369,-5.831,-5.831,-5.899,-5.9382,-5.9081,-5.9106,-5.9257,-5.9483,-5.9483,-5.9633,-5.996,-5.8955,-5.8361,-5.8434,-5.5013,-5.2941,-5.2742,-5.0337,-4.9701,-5.0946,-5.0752,-5.1157,-5.2123,-4.9793,-4.8911,-4.9293,-4.7172,-4.5963,-4.5515,-4.5515,-4.4802,-4.3711,-4.3711,-4.3711,-4.3711,-4.3711,-4.3711,-4.3711,-4.3711,-4.3991,-4.4422,0.0,-2.6245,-2.5892,-2.5983,-2.5777,-2.5378,-2.4872,-2.4255,-2.4077,-2.4815,-2.3984,-2.4082,-2.6203,-2.5857,-2.5781,-2.6348,-2.7441,-2.8476,-2.9336,-3.0215,-3.0023,-2.8468,-2.8426,-2.7632,-2.6045,-2.5984,-2.6591,-2.7751,-2.817,-2.9039,-3.0216,-3.1072,-3.1523,-3.1543,-3.1973,-3.2229,-3.2229,-3.2285,-3.2207,-3.1973,-3.1777,-3.1781,-3.1858,-3.1172,-3.1303,-3.1758,-3.1131,-3.0898,-3.0937,-3.1186,-3.1399,-3.1478,-3.1281,-3.1399,-3.148,-3.129,-3.2148,-3.3594,-3.5586,-3.6484,-3.7187,-3.8594,-3.9922,-4.0937,-4.1172,-4.1797,-4.3101,-4.582,-4.8444,-5.1048,-5.3672,-5.6731,-5.9106,-5.9633,-6.0186,-6.0512,-6.0337,-5.9834,-5.9357,-5.8981,-5.9131,-5.9332,-5.9483,-5.9483,-5.9476,-5.937,-5.7976,-5.7054,-5.6724,-5.2817,-5.0474,-5.0223,-4.7809,-4.7173,-4.8719,-4.8699,-4.9216,-5.0318,-4.8902,-4.8567,-4.9006,-4.8008,-4.6902,-4.6001,-4.6545,-4.5596,-4.3711,-4.3711,-4.3711,-4.3711,-4.3711,-4.3711,-4.3711,-4.3711,-4.3516,-4.3428,0.0,0.0,-2.4408,-2.4788,-2.393,-2.3541,-2.4617,-2.2872,-2.1836,-2.3013,-2.2513,-2.2843,-2.4914,-2.5125,-2.543,-2.6309,-2.7187,-2.8047,-2.8887,-2.9746,-2.968,-2.8468,-2.8426,-2.7632,-2.6045,-2.5984,-2.6045,-2.6045,-2.7632,-2.8426,-2.8486,-3.0558,-3.1523,-3.1543,-3.1973,-3.2229,-3.2268,-3.2598,-3.2305,-3.1562,-3.1992,-3.2552,-3.2871,-3.1441,-3.2318,-3.402,-3.1721,-3.0898,-3.1053,-3.1902,-3.2531,-3.2937,-3.2364,-3.2531,-3.2924,-3.2336,-3.3027,-3.4141,-3.4629,-3.5996,-3.7695,-3.9414,-4.082,-4.1973,-4.2812,-4.334,-4.4209,-4.6363,-4.8945,-5.1571,-5.4216,-5.7271,-5.9659,-6.0211,-6.0788,-6.0964,-6.0387,-5.9834,-5.9483,-5.9483,-5.9031,-5.8956,-5.9433,-5.9483,-5.8826,-5.7138,-5.7452,-5.6724,-5.4462,-5.2605,-5.1232,-5.0223,-4.8001,-4.6719,-4.6396,-4.6376,-4.6268,-4.5923,-4.6248,-4.5993,-4.5235,-4.6804,-4.6107,-4.3939,-4.592,-4.5596,-4.3711,-4.3711,-4.3711,-4.3711,-4.3711,-4.3711,-4.3711,-4.3711,-4.3691,-4.3633,0.0,0.0,0.0,-2.4703,-2.3844,-2.295,-2.2522,-2.1817,-2.1212,-2.1024,-2.1948,0.0,0.0,0.0,0.0,0.0,-2.6914,-2.7598,-2.8437,-2.9297,-2.8784,-2.644,-2.6636,-2.5558,-2.2812,-2.2764,-2.3311,-2.4425,-2.6045,-2.7374,-2.8426,-3.0498,-3.1523,-3.1543,-3.2266,-3.2578,-3.2598,-3.2734,-3.2949,-3.3125,-3.2129,-3.2176,-3.2855,-3.2476,-3.288,-3.3531,0.0,-3.3014,-3.2779,-3.3454,-3.377,-3.4,-3.4208,-3.4383,-3.4722,-3.5429,-3.5849,-3.6354,-3.7683,-3.8267,-3.8984,-4.0723,-4.1699,-4.2441,-4.3301,-4.3594,-4.435,-4.6405,-4.7358,-4.8938,-5.2894,-5.5174,-5.7144,-5.9376,-6.0563,-6.1115,-6.0914,-6.0738,-6.0211,-5.9106,-5.9458,-5.9558,-5.9031,-5.9307,-5.8826,-5.7114,-5.5947,-5.4534,-5.2626,-5.0545,-4.9062,-4.8482,-4.7406,-4.6738,-4.6308,-4.6308,-4.623,-4.6094,-4.7344,-4.762,-4.7173,-5.0211,-5.0277,-4.7963,-4.8597,-4.7725,-4.5677,-4.4248,-4.3711,-4.3711,-4.3711,-4.3711,-4.3711,-4.3711,-4.3711,-4.3633,0.0,0.0,0.0,0.0,0.0,0.0,0.0,0.0,0.0,0.0,0.0,0.0,0.0,0.0,0.0,0.0,0.0,-2.7148,-2.8008,-2.873,-2.8202,-2.6048,-2.5711,-2.4582,-2.2418,-2.199,-2.2591,-2.4239,-2.5979,-2.7374,-2.8426,-3.0498,-3.1523,-3.1543,-3.2266,-3.2578,-3.2578,-3.2578,-3.2793,-3.3066,-3.1953,-3.2097,-3.2874,-3.2476,-3.2803,0.0,-3.3606,-3.3624,-3.3726,-3.4593,-3.5032,-3.5314,-3.5894,-3.609,-3.6398,-3.7677,-3.8187,-3.8637,-3.9899,-4.0371,-4.0704,-4.1739,-4.2344,-4.2832,-4.3535,-4.3594,-4.3887,-4.523,-4.619,-4.7761,-5.1139,-5.3756,-5.6241,-5.875,-6.0136,-6.0939,-6.1165,-6.0989,-6.0563,-5.9709,-6.0035,-6.006,-5.9357,-5.9583,-5.9024,-5.7114,-5.5283,-5.3833,-5.295,-5.0094,-4.8677,-4.9031,-4.781,-4.6953,-4.6523,-4.6367,-4.6308,-4.6289,-4.7264,-4.7877,-4.821,-5.1244,-5.1629,-5.0064,-5.0762,-4.944,-4.6706,-4.5373,-4.4432,-4.3711,-4.3711,-4.3711,-4.3711,-4.3711,-4.3711,-4.3672,0.0,0.0,0.0,0.0,0.0,0.0,0.0,0.0,0.0,0.0,0.0,0.0,0.0,0.0,0.0,0.0,0.0,0.0,-2.7591,-2.8008,-2.7889,-2.7089,-2.5765,-2.4895,-2.4736,-2.3727,-2.3898,-2.532,-2.7481,-2.8527,-2.8545,-3.0717,-3.1702,-3.1722,-3.2175,-3.2371,-3.2311,-3.2311,-3.1974,-3.1582,-3.1504,-3.2111,-3.2913,-3.1518,-3.2375,-3.4193,-3.2806,-3.2889,-3.3885,-3.5362,-3.6383,-3.7135,-3.766,-3.7883,-3.8195,-3.9265,-4.0263,-4.1114,-4.1502,-4.2276,-4.2918,-4.2743,-4.2937,-4.3268,-4.3699,-4.3402,-4.3008,-4.3008,-4.5356,-4.7842,-4.8933,-5.2872,-5.6548,-5.8378,-5.9608,-6.0563,-6.114,-6.0763,-6.0638,-6.1115,-6.0713,-6.0387,-6.0362,-6.0337,-5.9341,-5.7105,0.0,-5.4302,-5.4748,-5.1087,-4.9742,-5.1366,-4.904,-4.7413,-4.6894,-4.6504,-4.6289,-4.6269,-4.5946,-4.6651,-4.8106,-4.9971,-5.0535,-5.0297,-5.2242,-5.0762,-4.6947,-4.6888,-4.5616,-4.3711,-4.3711,-4.3711,-4.3711,-4.3711,-4.3711,-4.3691,0.0,0.0,0.0,0.0,0.0,0.0,0.0,0.0,0.0,0.0,0.0,0.0,0.0,0.0,0.0,0.0,0.0,0.0,-2.668,-2.7422,-2.7336,-2.6279,-2.6402,-2.5955,-2.4736,-2.4725,-2.4903,-2.532,-2.8473,-3.0025,-3.0083,-3.297,-3.432,-3.4341,-3.4739,-3.4344,-3.3317,-3.3317,-3.3013,-3.2383,-3.1426,-3.1584,-3.2455,-3.251,-3.2901,-3.3441,-3.3737,-3.4006,-3.4499,-3.6403,-3.897,-4.1489,-4.2035,-4.2766,-4.3605,-4.4266,-4.4822,-4.5272,-4.5757,-4.5924,-4.5992,-4.6247,-4.5349,-4.4416,-4.4889,-4.3499,-4.2129,-4.2129,-4.3362,-4.4922,-4.6639,-5.0557,-5.4302,-5.7025,-5.9433,-6.1165,-6.1718,-6.2019,-6.1943,-6.1266,-6.1416,-6.1416,-6.0989,-6.0563,-5.9395,-5.7138,-5.4939,-5.3064,-5.1487,-5.0735,-4.9671,-4.8205,-4.9013,-4.8574,-4.6465,-4.6348,-4.6152,-4.584,-4.7273,-4.7858,-4.7809,-5.1323,-5.2711,-5.2319,-5.2873,-5.1631,-4.9047,-4.7507,-4.5596,-4.3711,-4.3711,-4.3711,-4.3711,-4.3711,-4.3711,-4.3652,0.0,0.0,0.0,0.0,0.0,0.0,0.0,0.0,0.0,0.0,0.0,0.0,0.0,0.0,0.0,0.0,0.0,0.0,0.0,-2.7012,-2.7193,-2.6707,-2.7232,-2.7438,-2.7142,-2.7769,-2.8295,-2.8708,-3.1333,-3.2508,-3.2321,-3.4383,-3.5288,-3.5311,-3.5524,-3.5189,-3.4345,-3.3741,-3.3248,0.0,0.0,-3.1172,-3.1662,-3.2006,-3.215,-3.2223,-3.2671,-3.3677,-3.498,-3.6576,-3.9578,-4.2757,-4.3458,-4.4794,-4.6426,-4.7456,-4.7393,-4.7079,-4.7191,-4.744,-4.7522,-4.6832,-4.667,-4.6351,-4.5111,-4.3639,-4.2386,-4.1907,-4.2784,-4.4277,-4.6396,-4.9985,-5.3469,-5.5874,-5.8453,-6.0462,-6.1492,-6.2119,-6.232,-6.1943,-6.2169,-6.2144,-6.1592,-6.0311,-5.892,-5.7414,-5.5022,-5.3074,-5.1785,-5.0314,-4.925,-4.8763,-4.8716,-4.7976,-4.6308,-4.6113,-4.5918,-4.5664,-4.651,-4.7589,-4.8892,-5.1129,-5.2982,-5.4497,0.0,-5.3251,-5.1247,-4.9047,-4.6926,-4.4965,-4.4021,-4.3711,-4.3711,-4.3711,-4.4248,-4.5006,0.0,0.0,0.0,0.0,0.0,0.0,0.0,0.0,0.0,0.0,0.0,0.0,0.0,0.0,0.0,0.0,0.0,0.0,0.0,0.0,-2.7266,-2.7708,-2.8002,-2.8813,-3.0276,-3.1074,-3.2018,-3.2967,-3.4598,-3.508,-3.4598,-3.5318,-3.5677,-3.5799,-3.5799,-3.5736,-3.5508,-3.4236,-3.3452,-3.2964,-3.171,-3.1054,-3.0898,0.0,0.0,-3.0898,-3.0898,-3.2572,-3.4956,-3.5998,-3.9042,-4.26,-4.3654,-4.5608,-4.7883,-4.9464,-4.8925,-4.7767,-4.7413,-4.7865,-4.8053,-4.6172,-4.7235,-4.7967,-4.4955,-4.388,-4.3245,-4.2162,-4.3254,-4.496,-4.6941,-5.0338,-5.3482,-5.5114,-5.7273,-5.9332,-6.104,-6.1933,-6.2517,-6.2772,-6.3042,-6.2946,-6.2169,-5.9966,-5.8142,-5.7373,-5.4683,-5.3136,-5.3197,-4.9841,-4.8768,-5.0833,-4.823,-4.668,-4.6308,-4.5937,-4.5703,-4.5586,-4.5162,-4.6722,-5.0117,-5.0344,-5.2395,-5.5827,-5.6047,-5.5041,-5.2949,-5.1148,-4.9126,-4.7027,-4.521,-4.4576,-4.4576,-4.4576,-4.5677,-4.7246,0.0,0.0,0.0,0.0,0.0,0.0,0.0,0.0,0.0,0.0,-2.7767,0.0,0.0,0.0,0.0,0.0,0.0,0.0,0.0,0.0,0.0,-2.7708,-2.8047,-2.8933,-3.0276,-3.0832,-3.1751,-3.2967,-3.4786,-3.5681,-3.5587,-3.6935,-3.7811,-3.8255,-3.8255,-3.783,-3.7079,-3.6865,-3.5321,-3.3077,-3.2794,-3.1977,-3.0898,-3.0898,0.0,0.0,-3.0898,-3.1663,-3.293,-3.416,-3.8846,-4.4436,-4.5823,-4.7865,-5.0092,-5.1322,-5.0587,-4.9487,-4.9814,-4.9176,-4.8191,-4.749,-4.7284,-4.6824,-4.5489,-4.4489,-4.3625,-4.2983,-4.4366,-4.5766,-4.6191,-4.9916,-5.3482,-5.5114,-5.7273,-5.9458,-6.1567,-6.3357,-6.4089,-6.291,-6.4258,-6.4605,-6.2834,-6.0184,-5.7559,-5.5351,-5.2407,-5.0782,-5.0782,-4.9844,-4.944,-4.9868,-4.7628,-4.6367,-4.6308,-4.623,-4.584,-4.5137,-4.6672,-4.7482,-4.7613,-5.1039,-5.2949,-5.3726,-5.5435,0.0,-5.31,-5.2722,-5.1301,-4.9361,-4.9047,-4.889,-4.889,-4.889,-4.9126,-4.9395,0.0,0.0,0.0,0.0,0.0,0.0,0.0,0.0,0.0,0.0,-3.1728,-3.1192,0.0,0.0,0.0,0.0,0.0,0.0,0.0,0.0,0.0,0.0,-2.8765,-2.967,-3.0276,-3.2207,-3.3481,-3.4143,0.0,-3.6969,-3.6969,-3.7991,-3.8592,-3.8894,-3.917,-3.9061,-3.8582,-3.7849,-3.6703,-3.5266,-3.3733,-3.2701,0.0,0.0,0.0,0.0,-3.0898,-3.1445,-3.2366,-3.3125,-3.6917,-4.1537,-4.3444,-4.6534,-4.9585,-5.0392,-4.9747,-4.8772,-4.9278,-4.8356,-4.7091,-4.6636,-4.6893,-4.6602,-4.3703,-4.3382,-4.3287,-4.2034,-4.3628,-4.5605,-4.6816,-4.9504,-5.2176,-5.3833,-5.5968,-5.8077,-6.0035,-6.2793,-6.4013,-6.2563,-6.4396,-6.5029,-6.2985,-6.0233,-5.7485,-5.5099,-5.196,-4.9601,-4.8204,-4.8001,-4.788,-4.788,-4.688,-4.6308,-4.6308,-4.5859,-4.543,-4.5019,-4.5517,-4.6168,-4.6867,-4.889,-5.0993,-5.3175,-5.4175,0.0,-5.4646,-5.3576,-5.2471,-5.1555,-5.0375,-4.9986,-4.9986,-4.9986,-5.0685,-5.1585,0.0,0.0,0.0,0.0,0.0,0.0,0.0,-3.1888,-3.234,-3.3144,-3.3776,-3.3168,-3.0698,-3.0603,0.0,0.0,0.0,0.0,0.0,0.0,0.0,0.0,0.0,-3.0016,-3.0307,0.0,0.0,-3.5222,-3.7097,0.0,0.0,0.0,0.0,0.0,-3.932,-3.9597,-3.9645,-3.8453,-3.7796,0.0,0.0,-3.3677,0.0,0.0,0.0,0.0,0.0,-3.1328,-3.1973,-3.248,-3.4584,-3.733,-3.928,-4.3616,-4.8148,-4.8791,-4.8587,-4.8242,-4.8666,-4.786,-4.6635,-4.6025,-4.7025,-4.7051,-4.29,-4.322,-4.3805,-4.1959,-4.3467,-4.5691,-4.7408,-4.9113,-5.0795,-5.2477,-5.4668,-5.6928,-5.8983,-6.2584,-6.4528,-6.323,-6.5057,-6.5608,-6.3254,-6.0432,-5.7602,-5.5059,-5.1445,-4.8484,-4.6396,-4.6308,-4.6308,-4.6308,-4.6308,-4.625,-4.6172,-4.5508,-4.5078,-4.4883,-4.418,-4.4676,-4.6142,-4.6626,-4.889,-5.2471,-5.2949,0.0,0.0,-5.4423,-5.3801,-5.3576,-5.1937,-5.1324,-5.1324,-5.1324,-5.2395,-5.3801,0.0,0.0,0.0,0.0,0.0,0.0,0.0,-3.1125,-3.2039,-3.3621,-3.2824,-3.2412,-3.3078,-3.2724,0.0,0.0,0.0,0.0,0.0,0.0,0.0,0.0,0.0,0.0,0.0,0.0,0.0,-3.5222,-3.7097,0.0,0.0,0.0,0.0,0.0,0.0,-3.922,-3.9697,-3.9594,0.0,0.0,0.0,0.0,0.0,0.0,0.0,0.0,0.0,-3.0937,-3.1133,-3.1953,-3.2701,-3.3434,-3.4482,-4.0149,-4.6663,-4.7758,-4.8843,-4.9699,-5.0218,-4.9634,-4.8618,-4.7706,-4.8186,-4.8285,-4.5873,-4.648,-4.7047,-4.538,-4.6049,-4.6945,-4.7143,-4.856,-5.0218,-5.19,-5.4473,-5.7466,-6.0749,-6.5008,-6.7439,-6.6569,-6.7722,-6.7344,-6.4162,-6.1078,-5.7696,-5.4091,-4.9373,-4.659,-4.6308,-4.6308,-4.6308,-4.6308,-4.6308,-4.6113,-4.5742,-4.5664,-4.5234,-4.4453,-4.4375,-4.4185,-4.4021,-4.592,-4.8043,-5.0375,-5.2242,0.0,0.0,-5.5974,-5.5901,-5.5901,-5.5656,-5.5656,-5.5656,-5.5656,-5.5754,-5.6168,0.0,0.0,0.0,0.0,0.0,0.0,0.0,-3.1411,-3.2111,-3.4023,-3.3162,-3.2371,-3.2305,-3.2368,-3.1784,0.0,0.0,0.0,0.0,0.0,0.0,0.0,0.0,0.0,0.0,0.0,-3.4159,-3.6152,-3.7369,0.0,0.0,0.0,0.0,0.0,0.0,-3.9496,-3.9697,-3.9697,0.0,0.0,0.0,0.0,0.0,0.0,0.0,0.0,0.0,0.0,-3.2268,-3.2615,-3.3207,-3.3759,-3.3841,-3.8177,-4.3426,-4.4631,-4.6765,-4.899,-4.989,-4.9375,-4.8468,-4.7873,-4.7264,-4.6424,-4.4774,-4.5161,-4.5435,-4.4293,-4.5388,-4.6753,-4.7018,-4.8687,-5.0447,-5.1819,-5.4352,-5.699,-5.9413,-6.3279,-6.5649,-6.5241,-6.6439,-6.6391,-6.4204,-6.1511,-5.8012,-5.3589,-5.0125,-4.7707,-4.6376,-4.6308,-4.6308,-4.6308,-4.6308,-4.623,-4.6055,-4.5547,-4.5117,-4.4766,-4.4238,-4.3887,-4.3711,-4.4576,-4.6061,-4.8201,-5.0297,0.0,0.0,-5.5656,-5.6219,-5.6219,-5.6219,-5.6219,-5.6219,-5.6219,-5.6895,-5.7895,0.0,0.0,0.0,0.0,0.0,0.0,-3.1806,-3.1901,-3.2433,-3.4271,-3.3479,-3.2417,-3.1596,-3.199,-3.1592,-2.9917,0.0,0.0,0.0,0.0,0.0,0.0,0.0,0.0,0.0,0.0,-3.5108,-3.6772,-3.7912,-3.8718,0.0,0.0,-3.912,-3.912,0.0,0.0,0.0,0.0,0.0,0.0,0.0,0.0,0.0,0.0,0.0,0.0,0.0,0.0,0.0,0.0,0.0,-3.4789,-3.4318,-3.7096,-4.0846,-4.2362,-4.5418,-4.8575,-4.9704,-4.9842,-4.9549,-4.9275,-4.8048,-4.6542,-4.5309,-4.5148,-4.4943,-4.4002,-4.549,-4.7036,-4.7443,-4.9415,-5.1255,-5.2272,-5.488,-5.7405,-5.9185,-6.252,-6.4856,-6.4961,-6.5168,-6.4943,-6.3867,-6.0916,-5.7733,-5.438,-5.1347,-4.8955,-4.7381,-4.6638,-4.6308,-4.6308,-4.6191,-4.6113,-4.6113,-4.5273,-4.4844,-4.4824,-4.4062,-4.3711,-4.3711,-4.3711,-4.4802,-4.6867,-4.8439,0.0,0.0,-5.4646,-5.5656,-5.6219,-5.6219,-5.6219,-5.6292,-5.6823,-5.7824,-5.9043,0.0,0.0,0.0,0.0,0.0,0.0,0.0,-3.2462,-3.3212,-3.4354,-3.3479,-3.2417,-3.1596,-3.199,-3.1774,-3.0411,0.0,0.0,0.0,0.0,0.0,0.0,0.0,0.0,0.0,0.0,-3.6772,-3.6772,-3.8753,-3.9672,-3.9697,-3.9697,-3.9697,-3.9697,0.0,0.0,0.0,0.0,0.0,0.0,0.0,0.0,0.0,0.0,0.0,0.0,0.0,0.0,0.0,0.0,0.0,0.0,0.0,-3.704,-3.953,-4.165,-4.5417,-4.9038,-5.0077,-5.1607,-5.2861,-5.2861,-5.1607,-5.0077,-4.8949,-4.7845,-4.6767,-4.5723,-4.7088,-4.8474,-4.8474,-5.0682,-5.2644,-5.3306,-5.6356,-5.9329,-6.12,-6.406,-6.622,-6.6878,-6.4879,-6.3377,-6.3335,-5.8984,-5.6429,-5.6905,-5.2358,0.0,-4.9531,-4.7468,-4.6308,-4.6308,-4.5898,-4.5683,-4.5683,-4.4824,-4.4414,-4.4394,-4.3926,-4.3711,-4.3711,-4.3711,-4.4802,-4.6786,0.0,0.0,0.0,-5.31,-5.4348,-5.6219,-5.6219,-5.6219,-5.6412,-5.825,-5.8903,-5.9392,0.0,0.0,0.0,0.0,0.0,0.0,0.0,-3.1034,-3.1344,-3.3132,-3.1974,-3.1335,-3.2229,-3.2812,-3.3247,-3.3641,0.0,0.0,0.0,0.0,0.0,0.0,0.0,0.0,0.0,0.0,-3.7456,-3.8753,-3.939,-3.9697,-3.9697,-3.9697,-3.9697,-3.9697,-3.9697,-3.9697,0.0,0.0,0.0,0.0,0.0,0.0,0.0,0.0,0.0,0.0,0.0,0.0,0.0,0.0,0.0,0.0,0.0,0.0,0.0,-4.1416,-4.4186,-4.7255,-4.7983,-4.9113,-4.9992,-4.959,-4.8837,-4.8083,-4.7732,-4.7104,-4.6753,-4.7386,-4.8079,-4.882,-4.9847,-5.2268,-5.4343,-5.4969,-5.7676,-6.0191,-6.1672,-6.3504,-6.5233,-6.6789,-6.5622,-6.3568,-6.097,-5.936,-5.7922,-5.6533,-5.4998,-5.2756,-4.9786,-4.8666,-4.7435,-4.5965,-4.5742,-4.5527,-4.5234,-4.4687,-4.4394,-4.4394,-4.3926,-4.3711,-4.3711,-4.3711,-4.4021,0.0,0.0,0.0,0.0,-5.2471,-5.4348,-5.6219,-5.6219,-5.6942,-5.8108,-5.8719,-6.047,-6.2755,0.0,0.0,0.0,0.0,0.0,0.0,0.0,-3.0877,-3.1177,-3.262,-3.1922,-3.1669,-3.2603,-3.3645,-3.4486,-3.5127,0.0,0.0,0.0,0.0,0.0,0.0,0.0,0.0,0.0,-3.7694,-3.8733,-4.0415,-3.9929,-3.9929,-4.0415,-3.9929,-3.9697,-3.9697,-3.9697,-3.9697,0.0,0.0,0.0,0.0,0.0,0.0,0.0,0.0,0.0,0.0,0.0,0.0,0.0,0.0,0.0,0.0,0.0,0.0,0.0,0.0,-4.3413,-4.5522,-4.6301,-4.7305,-4.8159,-4.8209,-4.7682,-4.7118,-4.738,-4.6853,-4.6541,-4.7475,-4.8589,-4.9621,-5.0546,-5.3454,-5.6011,-5.6954,-5.9188,-6.1514,-6.337,-6.4061,-6.4716,-6.5577,-6.4993,-6.3271,-6.0219,-5.9692,-5.884,-5.7266,-5.635,-5.4613,-5.1647,-4.9735,-4.7962,-4.641,-4.5602,-4.5137,-4.5019,-4.4433,-4.4219,-4.4394,-4.3926,-4.3711,-4.3711,-4.3711,-4.3711,0.0,0.0,0.0,0.0,-5.1401,-5.3651,-5.6219,-5.6219,-5.7303,-5.8973,-5.9643,-6.1591,-6.3999,0.0,0.0,0.0,0.0,0.0,0.0,0.0,0.0,0.0,0.0,-3.2848,-3.2934,-3.2859,-3.4391,-3.5414,0.0,0.0,0.0,0.0,0.0,0.0,0.0,0.0,0.0,0.0,-3.9145,-4.0313,-4.1591,-4.044,-4.0517,-4.162,-4.0466,-3.9851,-3.9747,-3.9722,0.0,0.0,0.0,0.0,0.0,0.0,0.0,0.0,0.0,0.0,0.0,0.0,0.0,0.0,0.0,0.0,0.0,0.0,0.0,0.0,0.0,0.0,0.0,0.0,-4.6075,-4.7129,-4.8109,-4.7657,-4.7079,-4.7556,-4.6979,0.0,-4.6421,-4.8621,-5.0602,-5.0879,-5.4157,-5.7398,-5.9012,-6.0803,-6.3007,-6.5879,-6.5721,-6.4923,-6.3815,-6.3487,-6.2583,-6.0781,-5.9917,-5.9232,-5.8704,-5.6731,-5.5295,-5.4616,-5.0697,-4.8225,-4.7722,-4.5629,-4.4699,-4.4922,-4.4121,-4.3926,-4.4336,-4.3906,-4.3711,-4.3711,-4.3711,-4.3711,0.0,0.0,0.0,0.0,-5.0164,-5.2547,-5.6219,-5.634,-5.7492,-5.9322,-6.1123,-6.2492,-6.3738,0.0,0.0,0.0,0.0,0.0,0.0,0.0,0.0,0.0,0.0,0.0,-3.2414,-3.4024,-3.4645,0.0,0.0,0.0,0.0,0.0,0.0,0.0,0.0,0.0,0.0,0.0,-3.9546,-4.0313,-4.1591,-4.1789,-4.2025,-4.22,-4.2025,-4.1338,-4.03,-3.9873,0.0,0.0,0.0,0.0,0.0,0.0,0.0,0.0,0.0,0.0,0.0,-3.1825,-3.2727,0.0,0.0,0.0,0.0,0.0,0.0,0.0,0.0,-4.2389,-4.274,-4.3388,0.0,-4.4543,-4.4367,-4.4769,-4.5246,0.0,-4.5874,-4.6636,-4.7769,-4.8532,-4.987,-5.2646,-5.3992,-5.5942,-5.9921,-6.1443,-6.3297,-6.6499,-6.7668,-6.7583,-6.5824,-6.4264,-6.2462,-6.0083,-5.9304,-5.8679,-5.8127,-5.7996,-5.6924,-5.4693,-5.3335,-5.1705,-4.9932,-4.7525,-4.5514,-4.4004,-4.3808,-4.375,-4.3867,-4.375,-4.3711,-4.3711,-4.3711,-4.3711,0.0,0.0,0.0,-5.0142,-5.1708,-5.3876,-5.634,-5.7707,-5.9392,-6.1191,-6.3018,-6.4352,-6.5405,0.0,0.0,0.0,0.0,0.0,0.0,0.0,0.0,0.0,0.0,0.0,0.0,0.0,0.0,0.0,0.0,0.0,0.0,0.0,0.0,0.0,0.0,0.0,0.0,-3.9295,-3.9572,-4.0441,-4.1937,-4.2404,-4.2838,-4.3237,-4.2788,-4.2027,-4.0952,-4.0056,0.0,0.0,0.0,0.0,0.0,0.0,0.0,0.0,0.0,0.0,0.0,-3.1652,-3.1977,0.0,-3.596,-3.6891,-3.7119,0.0,0.0,0.0,0.0,-4.2389,-4.2665,-4.2886,-4.3564,-4.4166,-4.4141,-4.4568,-4.5095,-4.5347,-4.5472,-4.5759,-4.6527,-4.7461,-4.8729,-5.0685,-5.3126,-5.5737,-5.8641,-6.1897,-6.5123,-6.8183,-6.9212,-6.9194,-6.7723,-6.4814,-6.2563,-6.1491,-5.9514,-5.8102,-5.7549,-5.7775,-5.7148,-5.5399,-5.4227,-5.297,-5.1793,-4.9494,-4.7246,-4.5128,-4.4186,-4.3711,-4.3711,-4.3711,-4.3711,-4.3711,-4.4658,-4.5128,0.0,0.0,0.0,-5.1555,-5.2646,-5.4819,-5.7564,-5.8507,-6.0538,-6.2953,-6.3959,-6.4835,-6.5562,0.0,0.0,0.0,0.0,0.0,0.0,0.0,0.0,0.0,0.0,0.0,0.0,0.0,0.0,0.0,0.0,0.0,0.0,0.0,0.0,0.0,0.0,0.0,-3.7208,-3.8994,-3.9446,-4.0543,-4.2279,-4.2565,-4.3168,-4.4026,-4.3145,-4.2251,-4.1269,-3.9955,0.0,0.0,0.0,0.0,0.0,0.0,0.0,0.0,0.0,0.0,0.0,0.0,0.0,0.0,-3.6037,-3.6263,-3.5425,-3.9259,0.0,0.0,0.0,0.0,0.0,-4.288,-4.3966,-4.5045,-4.5196,-4.5422,-4.5723,-4.61,-4.5497,-4.4895,-4.4895,-4.6245,-4.767,-4.8162,-5.1927,-5.5553,-5.7206,-6.2518,-6.7346,-6.986,-7.0135,-6.9809,-6.9073,-6.5275,-6.2739,-6.2949,-6.0073,-5.7798,-5.6947,-5.6972,-5.6796,-5.6244,-5.4497,-5.3552,-5.3552,-5.1555,-4.9596,-4.7804,-4.5677,-4.4638,-4.4638,-4.4638,-4.4638,-4.472,-4.6465,-4.7246,-4.7406,0.0,0.0,-5.31,-5.3401,-5.5653,-5.8903,-5.9183,-6.1326,-6.4345,-6.4515,-6.4729,-6.4934,0.0,0.0,0.0,0.0,0.0,0.0,0.0,0.0,0.0,0.0,0.0,0.0,0.0,0.0,0.0,0.0,0.0,0.0,0.0,0.0,0.0,0.0,-3.5106,-3.6356,-3.9495,-3.9647,-4.0364,-4.1723,-4.2777,-4.309,-4.2714,-4.3116,-4.2085,-3.9929,-3.8505,-3.6865,-3.5233,0.0,0.0,0.0,0.0,0.0,0.0,0.0,0.0,0.0,0.0,0.0,0.0,-3.3218,-3.4784,-3.5971,-3.6701,0.0,0.0,0.0,0.0,0.0,-4.2432,-4.4819,-4.6326,-4.4518,-4.5121,-4.6075,-4.5698,-4.5849,-4.605,-4.605,-4.6279,-4.7334,-5.0146,-5.0877,-5.3021,-5.9007,-6.4417,-6.8464,-7.0085,-6.973,-6.909,-6.8396,-6.5816,-6.3252,-6.122,-6.0071,-5.8574,-5.6443,-5.6771,-5.6796,-5.6244,-5.5901,-5.5754,-5.5754,-5.3726,-5.2471,-5.2166,-5.0064,-4.9047,-4.9047,-4.9047,-4.9047,-4.9047,-4.9361,-4.9518,-4.9618,0.0,-5.2798,-5.3251,-5.4967,-5.6989,-5.9043,-6.0579,-6.2463,-6.4416,-6.5362,-6.5411,-6.4874,0.0,0.0,0.0,0.0,0.0,0.0,0.0,0.0,0.0,0.0,0.0,0.0,0.0,0.0,0.0,0.0,0.0,0.0,0.0,0.0,0.0,-3.5343,-3.5064,-3.5717,-3.7263,-3.8084,-3.8942,-3.9817,-4.1956,-4.2777,-4.2411,-4.2409,-4.1438,-3.9697,-3.8973,-3.7423,-3.5233,0.0,0.0,0.0,0.0,0.0,0.0,0.0,0.0,0.0,0.0,0.0,0.0,0.0,-3.3602,-3.3886,-3.5577,0.0,0.0,0.0,0.0,0.0,-3.9689,-4.2276,-4.4462,-4.3986,-4.5969,-4.8033,-4.7757,-4.7431,-4.7004,-4.6426,-4.5772,-4.5797,-4.7184,-4.8974,-5.3163,-6.1821,-6.4527,-6.6744,-6.9839,-6.8987,-6.806,-6.8152,-6.5555,-6.3472,-6.266,-6.062,-5.8795,-5.7707,-5.6979,-5.647,-5.6219,-5.6219,-5.6219,-5.6219,-5.5287,-5.4819,-5.4819,-5.3801,-5.2242,-4.9986,-4.9986,-4.9986,-5.0064,-5.1148,-5.1708,-5.1785,0.0,-5.4819,-5.4893,-5.5827,-5.7303,-5.9113,-6.0852,-6.2755,-6.4358,-6.5196,-6.5054,-6.4336,0.0,0.0,0.0,0.0,0.0,0.0,0.0,0.0,0.0,0.0,0.0,0.0,0.0,0.0,0.0,0.0,0.0,0.0,0.0,0.0,-3.6694,-3.5343,-3.4958,-3.4958,-3.5288,-3.6433,-3.7183,-3.7613,-4.04,-4.1879,-4.2111,-4.1589,-4.072,-3.9697,-3.9697,-3.8243,-3.5781,-3.5453,-3.3875,0.0,0.0,0.0,0.0,0.0,0.0,0.0,0.0,0.0,0.0,0.0,0.0,0.0,0.0,0.0,0.0,-3.5172,-3.5789,-3.6369,-3.717,-3.96,-4.2171,-4.3402,-4.6325,-4.8987,-4.964,-4.8812,-4.7782,-4.7355,-4.6221,-4.5253,-4.5036,-4.8281,-5.3504,-6.1451,-6.311,-6.4662,-6.8338,-6.7874,-6.7297,-6.7792,-6.5707,-6.4236,-6.4317,-6.1797,-5.9989,-5.9574,-5.8224,-5.7421,-5.7421,-5.7086,-5.6823,-5.6823,-5.6412,-5.6219,-5.6219,-5.6219,-5.4572,-5.1478,-5.1478,-5.1478,-5.1555,-5.31,-5.3801,-5.3876,-5.5509,-5.6219,-5.6219,-5.6219,-5.7303,-5.9043,-6.047,-6.2162,-6.3925,-6.4751,-6.4515,-6.3707,0.0,0.0,0.0,0.0,0.0,0.0,0.0,0.0,0.0,0.0,0.0,0.0,0.0,0.0,0.0,0.0,0.0,0.0,0.0,0.0,-3.632,-3.5321,-3.4013,-3.3901,-3.5288,-3.5398,-3.5476,-3.5521,-3.8092,-4.0044,-4.1361,-4.0807,-4.0278,-3.9697,-3.9697,-3.8792,-3.724,-3.589,-3.4609,-3.3319,0.0,0.0,0.0,0.0,0.0,0.0,0.0,0.0,0.0,0.0,0.0,0.0,0.0,0.0,-3.3218,-3.3289,-3.3684,-3.4532,-3.6404,-3.8557,-4.0739,-4.2851,-4.495,-4.723,-4.9766,-4.9088,-4.8335,-4.9816,-4.8621,-4.7349,-4.7393,-5.0198,-5.2987,-5.4338,-5.9521,-6.3607,-6.459,-6.602,-6.7032,-6.7092,-6.6909,-6.6047,-6.4474,-6.4088,-6.3215,-6.1528,-6.1259,-6.1191,-6.1191,-5.9643,-5.8719,-5.8719,-5.7086,-5.6219,-5.6219,-5.6219,-5.6047,-5.5754,-5.5754,-5.5754,-5.5754,-5.5901,-5.5974,-5.5974,-5.6146,-5.6219,-5.6219,-5.6219,-5.7303,-5.8903,-5.9043,-6.0438,-6.2678,-6.4335,-6.4216,-6.3139,0.0,0.0,0.0,0.0,0.0,0.0,0.0,0.0,0.0,0.0,0.0,0.0,0.0,0.0,0.0,0.0,0.0,0.0,0.0,0.0,-3.7488,-3.6214,-3.5077,-3.4736,-3.5288,-3.4403,-3.4403,-3.5288,-3.8096,-3.9749,-4.0325,-4.045,-4.0224,-3.9697,-4.0049,-3.9164,-3.74,-3.5945,-3.4568,-3.3215,-3.1558,0.0,0.0,0.0,0.0,0.0,0.0,0.0,0.0,0.0,-3.1267,-3.1594,-3.1054,-3.1267,-3.171,-3.171,-3.1888,-3.2284,-3.3276,-3.6763,-4.0432,-4.1553,-4.4594,-4.7933,-5.0393,-5.072,-5.0695,-5.1348,-5.0294,-4.9149,-4.8884,-5.0594,-5.289,-5.5486,-5.9478,-6.2736,-6.4124,-6.5827,-6.6999,-6.6999,-6.6999,-6.6723,-6.6044,-6.4949,-6.4024,-6.3346,-6.2264,-6.1595,-6.1595,-5.9851,-5.8903,-5.8903,-5.7159,-5.6219,-5.6219,-5.6219,-5.6219,-5.6219,-5.6219,-5.6219,-5.6219,-5.6219,-5.6219,-5.6219,-5.6219,-5.6219,-5.6219,-5.6219,-5.6605,-5.7323,-5.8114,-5.9345,-6.0807,-6.1137,-6.0703,-5.99,0.0,0.0,0.0,0.0,0.0,0.0,0.0,0.0,0.0,0.0,0.0,0.0,0.0,0.0,0.0,0.0,0.0,0.0,0.0,-3.7385,-3.7666,-3.672,-3.607,-3.5622,-3.5288,-3.4292,-3.4292,-3.5288,-3.7987,-3.9506,-3.9973,-4.035,-4.0224,-3.9722,-4.0099,-3.9476,-3.8084,-3.6595,-3.5488,-3.4488,-3.242,-3.1674,0.0,0.0,0.0,0.0,0.0,0.0,0.0,0.0,-3.0898,-3.0995,-3.1441,-3.1267,-3.0995,-3.1441,-3.1464,-3.1348,-3.1641,-3.4818,-3.8485,-4.0343,-4.3412,-4.6812,-5.0472,-5.1574,-5.2051,-5.2754,-5.1513,-4.9984,-4.9204,-5.034,-5.2523,-5.5891,-5.9359,-6.2197,-6.4024,-6.5827,-6.6999,-6.6999,-6.6999,-6.6999,-6.6999,-6.5919,-6.5168,-6.5168,-6.4024,-6.328,-6.328,-6.1056,-5.9712,-5.9712,-5.7421,-5.6219,-5.6219,-5.6219,-5.6219,-5.6219,-5.6219,-5.6219,-5.6219,-5.6219,-5.6219,-5.6219,-5.6219,-5.6219,-5.6219,-5.6219,-5.6219,-5.6387,-5.7807,-5.8574,-5.8958,-5.9201,-5.8732,-5.8005,0.0,0.0,0.0,0.0,0.0,0.0,0.0,0.0,0.0,0.0,0.0,0.0,0.0,0.0,0.0,0.0,0.0,0.0,-3.5408,-3.6056,-3.6479,-3.6725,-3.6692,-3.6297,-3.5343,-3.5343,-3.5343,-3.5343,-3.7325,-3.9097,-4.0501,-4.0526,-4.0224,-3.9697,-3.9697,-3.9697,-3.9594,-3.8137,-3.7762,-3.7785,-3.4466,-3.3329,0.0,0.0,0.0,0.0,0.0,0.0,0.0,0.0,-3.0898,-3.117,-3.2644,-3.2092,-3.1228,-3.2701,-3.2664,-3.2229,-3.2209,-3.2773,-3.4642,-3.9475,-4.118,-4.3327,-4.981,-5.1297,-5.1925,-5.4135,-5.2296,-4.9794,-4.8322,-4.9707,-5.1824,-5.411,-5.8529,-6.2264,-6.4024,-6.5827,-6.6999,-6.6999,-6.6999,-6.6999,-6.6999,-6.6999,-6.6999,-6.6999,-6.6999,-6.6999,-6.6999,-6.3541,-6.1595,-6.1595,-5.8108,-5.6219,-5.6219,-5.6219,-5.6219,-5.6219,-5.6219,-5.6219,-5.6219,-5.6219,-5.6219,-5.6219,-5.6219,-5.6219,-5.6219,-5.6219,-5.6219,-5.6412,-5.8153,-5.8121,-5.7324,-5.9078,-5.8962,-5.7941,0.0,0.0,0.0,0.0,0.0,0.0,0.0,0.0,0.0,0.0,0.0,0.0,0.0,0.0,0.0,0.0,0.0,0.0,0.0,-3.583,-3.6591,-3.6998,-3.6826,-3.7216,-3.8348,-3.8372,-3.7873,-3.6865,-3.8465,-3.9481,-3.9948,-4.0325,-4.0224,-3.9722,-4.0099,-4.0049,-3.9594,-3.8137,-3.7548,-3.7506,-3.5443,-3.4714,0.0,0.0,0.0,0.0,0.0,0.0,0.0,0.0,0.0,0.0,-3.2964,-3.3742,-3.4353,-3.3388,-3.3231,-3.312,-3.1683,-3.4652,-3.8543,-3.9978,-4.4104,-4.8486,-5.1247,-5.2151,-5.3055,-5.5265,-5.4455,-5.314,-5.2692,-5.4461,-5.6114,-5.6382,-6.0435,-6.3671,-6.4217,-6.5827,-6.6999,-6.6999,-6.6999,-6.6999,-6.6999,-6.6999,-6.6999,-6.6999,-6.6999,-6.6999,-6.6999,-6.3541,-6.1595,-6.1595,-5.8108,-5.6219,-5.6219,-5.6219,-5.6219,-5.6219,-5.6219,-5.6219,-5.6219,-5.6219,-5.6219,-5.6219,-5.6219,-5.6219,-5.6219,-5.6219,-5.6219,-5.6191,-5.5959,-5.5637,-5.5325,-5.5057,-5.4744,-5.4392,0.0,0.0,0.0,0.0,0.0,0.0,0.0,0.0,0.0,0.0,-3.9768,-3.981,0.0,0.0,0.0,0.0,0.0,0.0,0.0,0.0,-3.6949,-3.7497,-3.7515,-3.8215,-3.9672,-4.0211,-4.0007,-3.9109,-3.9492,-3.9981,-4.0465,-4.0283,-4.0023,-3.9697,-4.0049,-3.9998,-3.9645,-3.8739,-3.8348,-3.8243,-3.6757,-3.6162,-3.6108,0.0,0.0,0.0,0.0,0.0,0.0,0.0,0.0,0.0,-3.4659,-3.5268,-3.5759,-3.5546,-3.4977,-3.4421,-3.4703,-3.7197,-4.0234,-4.265,-4.6405,-5.0115,-5.2516,-5.3507,-5.4336,-5.5892,-5.5516,-5.5223,-5.6111,-5.7312,-5.8529,-5.9882,-6.2445,-6.4567,-6.5295,-6.6322,-6.6999,-6.6999,-6.6999,-6.6999,-6.6999,-6.6999,-6.6999,-6.6999,-6.6999,-6.6723,-6.5981,-6.3215,-6.1259,-6.0511,-5.7707,-5.6219,-5.6219,-5.6219,-5.6219,-5.6219,-5.6219,-5.6219,-5.6219,-5.6219,-5.6219,-5.6219,-5.6219,-5.6219,-5.6219,-5.6219,-5.6068,-5.5817,-5.5139,-5.4612,-5.4135,-5.3482,-5.3105,-5.2929,0.0,0.0,0.0,0.0,0.0,0.0,0.0,0.0,0.0,0.0,-3.9373,-3.9649,0.0,0.0,0.0,0.0,0.0,0.0,0.0,0.0,-3.7422,-3.7911,-3.8489,-3.9091,-3.9724,-4.0844,-4.1468,-4.1591,-4.0541,-4.0642,-4.1739,-4.0592,-4.0032,-4.0032,-3.9929,-3.9878,-3.9878,-3.9878,-3.9878,-3.9775,-3.8533,-3.8065,-3.7906,-3.6549,0.0,0.0,0.0,0.0,0.0,0.0,0.0,0.0,-3.7133,-3.6696,-3.6196,-3.8343,-3.7301,-3.6178,-3.9534,-3.9922,-4.0738,-4.6378,-4.8156,-4.966,-5.3678,-5.5039,-5.5591,-5.6118,-5.5817,-5.6142,-5.8473,-5.862,-5.9684,-6.365,-6.4438,-6.5105,-6.6785,-6.6999,-6.6999,-6.6999,-6.6999,-6.6999,-6.6999,-6.6999,-6.6999,-6.6999,-6.6999,-6.6322,-6.463,-6.2661,-6.0852,-5.9183,-5.7231,-5.6219,-5.6219,-5.6219,-5.6219,-5.6219,-5.6219,-5.6219,-5.6219,-5.6219,-5.6219,-5.6219,-5.6219,-5.6194,-5.6143,-5.6143,-5.5817,-5.5315,-5.5265,-5.4612,-5.3683,-5.3658,-5.3331,-5.2929,0.0,0.0,0.0,0.0,0.0,0.0,0.0,0.0,0.0,0.0,0.0,0.0,0.0,0.0,0.0,0.0,0.0,0.0,0.0,0.0,-3.7709,-3.7332,-3.8332,-3.9171,0.0,0.0,0.0,0.0,0.0,-4.2834,-4.3074,-4.2786,-4.2689,-4.2641,-4.164,-4.1169,-4.1169,-4.1169,-4.1169,-4.1269,-4.1932,-4.2199,-4.2199,-4.1852,-4.1034,0.0,0.0,0.0,0.0,0.0,0.0,0.0,-3.7695,-3.8374,-3.9169,-3.815,-3.8374,-3.8874,-3.853,-4.0632,-4.3631,-4.6227,-5.0068,-5.3458,-5.434,-5.534,-5.6068,-5.6194,-5.6118,-5.6624,-5.8551,-5.995,-6.1591,-6.393,-6.5513,-6.657,-6.6937,-6.6999,-6.6999,-6.6999,-6.6999,-6.6999,-6.6999,-6.6999,-6.6999,-6.6999,-6.6999,-6.6846,-6.6446,-6.3346,-6.1394,-6.1056,-5.7895,-5.6219,-5.6219,-5.6219,-5.6219,0.0,-5.6219,-5.6219,-5.6219,-5.6219,-5.6219,-5.6219,-5.6219,-5.5968,-5.5566,-5.5566,-5.5239,-5.4687,-5.4235,-5.3909,-5.3658,-5.3256,-5.303,-5.2929,0.0,0.0,0.0,0.0,0.0,0.0,0.0,0.0,0.0,0.0,0.0,0.0,0.0,0.0,0.0,0.0,0.0,0.0,0.0,0.0,-3.9068,-3.8737,0.0,0.0,0.0,0.0,0.0,0.0,-4.2882,-4.3504,-4.3504,-4.3855,-4.3966,-4.3918,-4.3269,-4.2976,-4.2949,-4.2679,-4.2496,-4.2544,-4.3218,-4.3504,-4.3504,-4.3504,-4.2992,-4.2382,-4.2382,0.0,0.0,0.0,0.0,0.0,0.0,0.0,-4.0824,-3.9639,-3.9189,-3.9459,-4.1017,-4.2736,-4.4852,-4.8379,-5.1706,-5.416,-5.416,-5.5471,-5.6701,-5.7029,-5.7312,-5.8037,-5.9851,-6.1663,-6.3476,-6.5295,-6.6384,-6.6999,-6.6999,-6.6999,-6.6999,-6.6999,-6.6999,-6.6999,-6.6999,-6.6999,-6.6999,-6.6999,-6.6999,-6.6661,-6.5764,-6.3959,-6.2463,-6.1595,-5.9782,-5.8763,-5.8763,-5.7895,-5.7492,-5.7492,-5.6605,-5.6219,-5.6219,-5.6219,-5.6068,-5.5817,-5.5817,-5.5491,-5.4988,-5.4988,-5.4662,-5.4135,-5.3808,-5.3557,-5.3306,-5.303,-5.2929,-5.2929,0.0,0.0,0.0,0.0,0.0,0.0,0.0,0.0,0.0,0.0,0.0,0.0,0.0,0.0,0.0,0.0,0.0,0.0,0.0,-3.9884,-4.0371,-4.0625,0.0,0.0,0.0,0.0,0.0,0.0,-4.2409,-4.317,-4.3499,-4.4303,-4.4777,-4.4967,-4.4729,-4.4682,-4.4654,-4.4057,-4.3834,-4.3834,-4.4069,-4.4163,-4.4163,-4.4163,-4.4163,-4.4163,-4.4163,-4.4163,-4.4116,-4.3882,0.0,0.0,0.0,0.0,-4.1825,-4.1489,-4.0244,-3.9831,-4.3861,-4.4752,-4.5837,-5.0996,-5.2959,-5.3652,-5.4075,-5.5659,-5.7319,-5.8206,-5.8833,-5.9786,-6.1702,-6.328,-6.4885,-6.6723,-6.6999,-6.6999,-6.6999,-6.6999,-6.6999,-6.6999,-6.6999,-6.6999,-6.6999,-6.6999,-6.6999,-6.6999,-6.6999,-6.6384,-6.4822,-6.4503,-6.3606,-6.2131,-6.173,-6.1595,-6.1595,-6.0127,-5.9183,-5.8903,-5.7086,-5.6219,-5.6219,-5.6118,-5.5817,-5.539,-5.529,-5.4938,-5.4411,-5.4411,-5.4084,-5.3557,-5.3557,-5.3306,-5.2929,-5.2929,-5.2929,-5.2929,0.0,0.0,0.0,0.0,0.0,0.0,0.0,0.0,0.0,0.0,-3.9373,-3.914,-3.8452,-3.8482,0.0,0.0,0.0,0.0,-3.8512,0.0,0.0,0.0,0.0,0.0,0.0,0.0,0.0,-3.9272,-4.0537,-4.1864,-4.3273,-4.4657,-4.585,-4.6874,-4.5759,-4.5276,-4.5276,-4.519,-4.5161,-4.5252,-4.6344,-4.677,-4.677,-4.677,-4.677,-4.677,-4.677,-4.677,-4.6638,-4.5553,-4.5161,0.0,0.0,0.0,-4.3006,-4.1875,-4.2031,-4.2526,-4.2608,-4.4953,-4.8297,-5.2297,-5.3161,-5.3544,-5.5497,-5.6589,-5.7527,-5.9055,-5.9945,-6.1121,-6.3521,-6.4153,-6.4885,-6.6723,-6.6999,-6.6999,-6.6999,-6.6999,-6.6999,-6.6999,-6.6999,-6.6999,-6.6999,-6.6999,-6.6999,-6.6999,-6.6999,-6.6908,-6.6661,-6.5168,-6.4217,-6.3959,-6.2396,-6.1595,-6.1595,-6.1326,-6.047,-5.8903,-5.7086,-5.6219,-5.6194,-5.5717,-5.5465,-5.5365,-5.4888,-5.4336,-5.3808,-5.3808,-5.3507,-5.303,-5.303,-5.298,-5.2929,-5.2929,-5.2929,-5.2929,0.0,0.0,0.0,0.0,0.0,0.0,0.0,0.0,0.0,0.0,0.0,-3.914,-3.8452,-3.8063,0.0,0.0,0.0,0.0,-3.9439,-3.9861,0.0,0.0,0.0,0.0,0.0,0.0,0.0,-3.8839,-3.91,-4.0322,-4.2306,-4.3286,-4.5324,-4.8226,-4.8135,-4.792,-4.7537,-4.6801,-4.6462,-4.6506,-4.7062,-4.7758,-4.8327,-4.7578,-4.7758,-4.8297,-4.7578,-4.7309,-4.7222,-4.6638,-4.6462,-4.6255,-4.4978,0.0,0.0,0.0,-4.302,-4.3633,-4.5049,-4.7301,-5.0035,-5.3105,-5.4296,-5.5017,-5.6354,-5.7889,-5.9309,-6.0463,-6.1628,-6.2769,-6.359,-6.4872,-6.6044,-6.6846,-6.6999,-6.6999,-6.6999,-6.6999,-6.6999,-6.6999,-6.6999,-6.6999,-6.6999,-6.6999,-6.6999,-6.6999,-6.6999,-6.6999,-6.6999,-6.626,-6.5827,-6.5827,-6.5042,-6.463,-6.463,-6.3606,-6.1663,-5.8903,-5.8108,-5.698,-5.5742,-5.5189,-5.4938,-5.4888,-5.4336,-5.3758,-5.3281,-5.3281,-5.313,-5.2929,-5.2929,-5.2929,-5.2929,-5.2929,-5.3495,-5.4299,0.0,0.0,0.0,0.0,0.0,0.0,0.0,0.0,0.0,0.0,0.0,0.0,-3.8452,0.0,0.0,0.0,0.0,0.0,-3.9817,0.0,0.0,0.0,0.0,0.0,0.0,0.0,-3.9838,-3.9017,-3.863,-3.9664,-4.1989,-4.262,-4.4986,-4.8738,-4.9384,-4.9443,-4.9,-4.7967,-4.7549,-4.7578,-4.7728,-4.8386,-4.9239,-4.8536,-4.8895,-4.9583,-4.8267,-4.7818,-4.7758,-4.7429,-4.7309,-4.7076,-4.5961,-4.5636,0.0,0.0,0.0,-4.3883,-4.6757,-4.8387,-5.0023,-5.3071,-5.439,-5.5431,-5.6798,-5.8771,-6.0514,-6.1457,-6.2883,-6.3921,-6.3535,-6.5246,-6.6759,-6.6759,-6.6879,-6.6999,-6.6999,-6.6999,-6.6999,-6.6999,-6.6999,-6.6999,-6.6999,-6.6999,-6.6999,-6.6999,-6.6999,-6.6999,-6.6999,-6.6999,-6.6999,-6.6999,-6.6999,-6.6999,-6.6999,-6.5232,-6.2755,-5.9574,-5.8954,-5.7525,-5.5365,-5.4662,-5.4336,-5.431,-5.3758,-5.3281,-5.2929,-5.2929,-5.2929,-5.2929,-5.2929,-5.2929,-5.2929,-5.2929,-5.3987,-5.5393,0.0,0.0,0.0,0.0,0.0,0.0,0.0,0.0,0.0,0.0,0.0,0.0,-3.8452,-3.7793,-3.7165,-3.6603,0.0,0.0,0.0,0.0,0.0,0.0,0.0,0.0,0.0,-4.0834,-4.0887,-3.9623,-3.9668,-4.0841,-4.3047,-4.3938,-4.5602,-4.7948,-4.8042,-4.8191,-4.8327,-4.8267,-4.8237,-4.8297,-4.897,-4.9239,-4.9449,-5.0571,-5.105,-5.093,-4.9643,-4.9209,-4.903,-4.7728,-4.7309,-4.7189,-4.6476,-4.6224,-4.5892,0.0,0.0,0.0,-4.5767,-4.6328,-4.7252,-5.1616,-5.2547,-5.3315,-5.6792,-5.8605,-6.0031,-6.1751,-6.3111,-6.4006,-6.3949,-6.5114,-6.6071,-6.6071,-6.658,-6.6999,-6.6999,-6.6999,-6.6999,-6.6999,-6.6999,-6.6999,-6.6999,-6.6999,-6.6999,-6.6999,-6.6999,-6.6999,-6.6999,-6.6999,-6.6999,-6.6999,-6.6999,-6.6999,-6.6999,-6.5232,-6.3346,-6.1461,-5.9219,-5.7136,-5.534,-5.426,-5.3758,-5.3708,-5.3206,-5.2955,-5.2929,-5.2929,-5.2929,-5.2929,-5.2929,-5.2929,-5.2929,-5.2929,-5.3987,-5.534,0.0,0.0,0.0,0.0,0.0,0.0,0.0,0.0,0.0,0.0,0.0,0.0,0.0,-3.8452,-3.8185,-3.8455,-3.8488,0.0,0.0,0.0,0.0,0.0,0.0,0.0,-4.079,-4.132,-4.1178,-4.025,-4.0404,-4.0797,-4.1498,-4.2647,-4.3537,-4.445,-4.6989,-4.8442,-4.891,-4.8027,-4.7668,-4.7728,-4.8386,-4.9404,-5.0421,-4.9643,-5.0631,-5.2187,-5.0078,-4.9299,-4.9239,-4.876,-4.7997,-4.7189,-4.6488,-4.6279,-4.6087,-4.4951,-4.4467,-4.4719,-4.6477,-4.7222,-4.8173,-5.1003,-5.2902,-5.4614,-5.629,-5.8339,-6.0043,-6.0693,-6.1852,-6.278,-6.278,-6.4545,-6.6011,-6.6011,-6.655,-6.6999,-6.6999,-6.6999,-6.6999,-6.6999,-6.6999,-6.6999,-6.6999,-6.6999,-6.6999,-6.6999,-6.6999,-6.6999,-6.6999,-6.6999,-6.6999,-6.6999,-6.6999,-6.6999,-6.6999,-6.6384,-6.4901,-6.2685,-6.0728,-5.8455,-5.5951,-5.4417,-5.3507,-5.3206,-5.3005,-5.2929,-5.2929,-5.2929,-5.2929,-5.2929,-5.2929,-5.2929,-5.2929,-5.2929,-5.4634,-5.6939,0.0,0.0,0.0,0.0,0.0,0.0,0.0,0.0,0.0,-4.0127,0.0,0.0,0.0,0.0,-3.8878,-3.9157,-3.9375,-3.9638,-3.9778,0.0,0.0,0.0,0.0,0.0,-4.1752,-4.1989,-4.1948,-4.154,-4.1199,-4.1273,-4.1822,-4.2409,-4.3206,-4.408,-4.6478,-4.7846,-4.8295,-4.8074,-4.7848,-4.7728,-4.8835,-4.9793,-5.0541,-5.0331,-5.1349,-5.2636,-5.087,-5.0242,-5.0182,-4.9733,-4.9015,-4.8057,-4.6698,-4.5831,-4.5203,-4.4766,-4.4796,-4.5155,-4.6052,-4.677,-4.7818,-5.0002,-5.1887,-5.3653,-5.5448,-5.7513,-5.9219,-5.9668,-6.0835,-6.1822,-6.2061,-6.3707,-6.5173,-6.5592,-6.6221,-6.6729,-6.6969,-6.7427,-6.7548,-6.706,-6.7427,-6.7548,-6.706,-6.6999,-6.6999,-6.6999,-6.6999,0.0,-6.6999,-6.6999,-6.6999,-6.6999,-6.6999,-6.6999,-6.6999,-6.6759,-6.5512,-6.3267,-6.1727,-5.9336,-5.625,-5.4876,-5.3757,-5.2929,-5.2929,-5.2929,-5.2929,-5.2929,-5.2929,-5.2929,-5.2929,-5.2929,-5.2998,-5.3538,-5.5512,-5.7985,0.0,0.0,0.0,0.0,0.0,0.0,0.0,0.0,-4.1482,-4.1414,0.0,0.0,0.0,0.0,0.0,-3.8571,-3.911,-3.9828,-4.0578,-4.1334,0.0,0.0,0.0,0.0,-4.2548,-4.3069,-4.3359,-4.3319,-4.2099,-4.241,-4.4129,-4.3613,-4.4657,-4.7032,-4.6458,-4.6293,-4.6507,-4.8445,-4.891,-4.8446,-5.0391,-5.0451,-4.9748,-5.2905,-5.3354,-5.2276,-5.2247,-5.2217,-5.2007,-5.0704,-5.0226,-4.9687,-4.7086,-4.4904,-4.329,-4.329,-4.3768,-4.4317,0.0,0.0,0.0,-4.855,-4.9239,-5.0318,-5.4132,-5.6047,-5.7363,-5.871,-6.0086,-6.1253,-6.1942,-6.26,-6.3468,-6.4784,-6.5562,-6.6251,-6.6909,-6.8266,-6.8649,-6.7213,-6.8384,-6.8707,-6.7213,-6.703,-6.706,-6.6999,-6.6999,-6.6999,-6.6999,-6.6999,-6.6999,-6.6999,-6.6999,-6.703,-6.7,-6.6371,-6.5162,-6.3463,-6.2159,-5.9781,-5.6465,-5.5816,-5.4541,-5.2998,-5.2998,-5.2929,-5.2929,-5.2929,-5.2929,-5.2929,-5.2929,-5.2929,-5.3179,-5.4782,-5.6504,-5.8209,0.0,0.0,0.0,0.0,0.0,-4.2989,-4.2482,-4.2592,-4.2611,0.0,0.0,0.0,-4.1482,-4.1512,-4.1512,-4.1302,-4.1482,-4.1438,-4.1217,-4.2611,-4.3378,-4.3206,-4.5492,-4.6124,-4.4795,-4.5049,-4.4822,-4.4007,-4.3694,-4.3282,-4.2955,-4.3735,-4.4008,-4.3836,-4.5577,-4.608,-4.5768,-4.7244,-4.8027,-4.8386,-4.9404,-5.0451,-5.1439,-5.1887,-5.2995,-5.4221,-5.3264,-5.2606,-5.2217,-5.2336,-5.078,-4.8446,-4.6262,-4.4556,-4.329,-4.329,-4.3768,-4.4197,-4.3708,0.0,0.0,0.0,0.0,0.0,0.0,-5.2636,-5.464,-5.5987,-5.7693,-5.9458,-6.1074,-6.1912,-6.278,-6.4066,-6.5263,-6.6251,-6.6909,-6.8266,-6.9027,-6.8649,-6.9916,-7.0199,-6.8707,-6.859,-6.8147,0.0,-6.6999,-6.6999,-6.6999,-6.6999,-6.6999,-6.6999,-6.6999,-6.7246,-6.7795,-6.7611,-6.7311,-6.6789,-6.4234,-6.2233,-6.0781,-5.8355,-5.6337,-5.4742,-5.4742,-5.4055,-5.2929,-5.2929,-5.2929,-5.2929,-5.2929,-5.3606,-5.4742,-5.5247,-5.725,-5.9757,0.0,0.0,0.0,0.0,0.0,-4.266,-4.2797,-4.3118,-4.3389,0.0,0.0,0.0,-4.2671,-4.318,-4.3519,-4.321,-4.318,-4.303,-4.2641,-4.3722,-4.4338,-4.4198,-4.6561,-4.7548,-4.6793,-4.6476,-4.6004,-4.5403,-4.468,-4.4039,-4.3608,-4.4703,-4.4922,-4.4555,-4.6101,-4.6562,-4.6255,-4.6975,-4.7519,-4.8027,-4.9793,-5.084,-5.1498,-5.2486,-5.3473,-5.4281,-5.3803,-5.3354,-5.3084,-5.3473,-5.1409,-4.8386,-4.6681,-4.5214,-4.4007,-4.3439,-4.3947,-4.4586,-4.3888,-4.4796,-4.5933,-4.6082,0.0,0.0,-4.9763,-5.1259,-5.2905,0.0,-5.6316,-5.7902,-5.9907,-6.0595,-6.1463,-6.3318,-6.4276,-6.5411,-6.7242,-6.9015,-7.0143,-7.0143,-7.1442,-7.1713,-7.0255,-6.9574,-6.8883,-6.7998,-6.7335,-6.6999,-6.6999,-6.6999,-6.6999,-6.6999,-6.7608,-6.8111,-6.8555,-6.8589,-6.864,-6.8615,-6.6199,-6.4543,-6.3386,-6.1556,-5.9497,-5.7313,-5.7313,-5.6461,-5.5034,-5.5034,-5.419,-5.2929,-5.2929,-5.392,-5.5485,-5.6206,-5.823,-6.0572,0.0,0.0,-4.0657,-4.051,-4.1066,-4.1892,-4.3044,-4.3384,-4.3907,0.0,-4.5251,-4.5125,-4.4706,-4.5095,-4.5185,-4.4586,-4.4526,-4.4496,-4.4436,-4.481,-4.5086,-4.5179,-4.7389,-4.861,-4.8597,-4.7662,-4.7115,-4.6998,-4.5273,-4.4736,-4.5304,-4.5992,-4.6621,-4.7189,-4.7279,-4.7309,-4.7309,-4.7309,-4.7399,-4.7788,-5.078,-5.1409,-5.0853,-5.3922,-5.4431,-5.3593,-5.4132,-5.4281,-5.4192,-5.3952,-5.1917,-4.9224,-4.7758,-4.6471,-4.5274,-4.3928,-4.4496,-4.5364,-4.4616,-4.4945,-4.5783,-4.692,-4.68,0.0,-5.0122,-5.084,-5.1618,0.0,-5.5179,-5.6226,-5.8201,-5.862,-5.9458,-6.1822,-6.257,-6.4078,-6.75,-6.9919,-7.1324,-7.1388,-7.2861,-7.3225,-7.1767,-7.048,-6.9631,-6.949,-6.8087,-6.7274,-6.7274,-6.7091,-6.6999,-6.6999,-6.8413,-6.9166,-6.9184,-6.9432,-6.9527,-6.9523,-6.8202,-6.6786,-6.528,-6.5249,-6.3556,-6.0676,-6.0528,-5.9622,-5.8202,-5.804,-5.6233,-5.3495,-5.3495,-5.45,-5.618,-5.7724,-5.938,-6.099,0.0,-4.1116,-4.1112,-4.0058,-4.0809,-4.1688,-4.1904,-4.324,-4.4265,-4.4559,-4.4984,-4.5663,-4.6621,-4.6352,-4.6082,-4.5891,-4.5891,-4.5693,-4.5155,-4.6143,-4.6998,-4.7612,-4.9548,-5.0524,-5.0287,-4.9378,-4.8471,-4.7601,-4.5899,-4.5155,-4.5304,-4.5992,-4.6339,-4.6531,-4.707,-4.7309,-4.7309,-4.7309,-4.7908,-4.8985,-5.0152,-5.1409,-5.2725,-5.3952,-5.488,-5.5538,-5.5149,-5.467,-5.3952,-5.2336,-5.1379,-5.0421,0.0,-4.713,-4.6651,-4.5304,-4.5873,-4.6651,-4.5424,-4.5992,-4.686,-4.6591,0.0,0.0,-4.7908,-4.8476,-4.9314,0.0,-5.1738,-5.2785,-5.479,-5.5598,-5.6137,-5.6645,-5.9398,-6.2655,-6.5951,-6.8808,-7.0802,-7.1324,-7.3719,-7.4736,-7.3276,-7.2914,-7.2249,-7.1059,-6.9574,-6.8766,-6.8766,-6.7668,-6.6999,-6.6999,-6.8413,-6.9157,-6.9155,-7.0293,-7.093,-7.0917,-7.0281,-6.9854,-6.9523,-6.9256,-6.754,-6.4853,-6.3772,-6.1893,-5.9501,-5.846,-5.7624,-5.6984,-5.6984,-5.804,-5.9536,-5.9933,-6.1139,-6.2613,-4.2345,-4.187,-4.1219,-3.9929,-4.0211,-4.1069,-4.235,-4.3349,-4.4516,-4.6107,-4.6634,-4.692,-4.7279,-4.701,-4.68,-4.68,-4.6501,-4.6172,-4.5843,-4.6515,-4.7378,-4.8285,-5.0007,-5.116,-5.1562,-5.0444,-4.9502,-4.8583,-4.7067,-4.6142,-4.5813,-4.6501,-4.698,-4.7309,-4.7309,-4.7489,-4.7788,-4.7429,-4.7698,-4.8476,-5.078,-5.2516,-5.3832,-5.5149,-5.5867,-5.6077,-5.5418,-5.497,-5.4431,-5.2755,-5.1768,0.0,-4.8895,-4.8057,-4.7549,0.0,-4.6741,-4.7519,-4.6172,-4.6531,-4.7219,-4.689,0.0,0.0,0.0,-4.8057,-4.8656,-4.9927,-5.0465,-5.1182,-5.2905,-5.3473,-5.4012,-5.5029,-5.7393,-5.9817,-6.1792,-6.5942,-6.9341,-7.0726,-7.2853,-7.4006,-7.3635,-7.3617,-7.2966,-7.1497,-7.0703,-7.0312,-7.0312,-6.9574,-6.9201,-6.9201,-7.0648,-7.1199,-7.0734,-7.1853,-7.2217,-7.1853,-7.1796,-7.1748,-7.179,-7.2099,-7.0847,-6.8346,-6.7688,-6.5565,-6.2513,-6.1791,-6.1142,-6.0355,-5.8697,-5.9042,-6.048,-6.048,-6.1585,-6.3079,-4.4032,-4.2834,-4.1541,-4.0262,-3.9826,-4.0465,-4.2786,-4.3361,-4.4668,-4.7867,-4.8386,-4.8327,-4.7908,-4.7967,-4.8117,-4.8237,-4.7638,-4.7176,-4.7057,-4.7191,-4.7747,-4.8856,-5.0138,-5.1386,-5.2706,-5.1186,-5.0147,-4.9609,-4.8048,-4.704,-4.6531,-4.707,-4.7578,-4.8087,-4.7668,-4.7728,-4.8057,-4.7668,-4.7728,-4.8356,-5.1648,-5.3174,-5.3653,-5.5598,-5.6107,-5.5748,-5.5329,-5.5179,-5.497,-5.3503,-5.2276,-5.1139,-4.9583,-4.8895,0.0,0.0,0.0,0.0,0.0,0.0,0.0,0.0,0.0,-4.7429,0.0,0.0,0.0,-4.9418,-4.9628,0.0,0.0,0.0,0.0,0.0,0.0,0.0,0.0,-6.1683,0.0,-6.8532,-7.0829,-7.2414,-7.2975,-7.3093,-7.2922,-7.227,-7.1316,-7.106,-7.1789,-7.1423,-7.126,-7.1388,-7.2546,-7.2728,-7.1811,-7.241,-7.2364,-7.1803,-7.2442,-7.2851,-7.3131,-7.431,-7.3596,-7.1361,-7.111,-6.8917,-6.549,-6.5219,-6.432,-6.2817,-6.0083,-5.981,-6.099,-6.099,-6.191,-6.3079,-4.5434,-4.4163,-4.2882,-4.1591,-4.0465,-4.016,-4.1591,-4.2786,-4.4668,-4.7867,-4.885,-4.9344,-4.9807,-5.0375,-5.102,-5.1588,-5.105,-5.0375,-4.9777,-4.9499,-4.9903,-5.1069,-5.0921,-5.192,-5.4296,-5.1745,-5.0365,-5.0269,-4.8263,-4.7279,-4.7189,-4.7279,-4.7339,-4.7429,-4.7938,-4.7908,-4.7459,-4.7967,-4.9194,-5.087,-5.1887,-5.1648,-5.0853,-5.2875,-5.3952,-5.4491,-5.4999,-5.5179,-5.488,0.0,-5.2217,-5.1648,0.0,-4.9134,-4.9598,-4.7758,0.0,0.0,0.0,0.0,0.0,0.0,-4.7309,0.0,0.0,0.0,-4.7459,-4.7608,0.0,0.0,0.0,0.0,0.0,0.0,0.0,0.0,-5.2875,-5.548,-5.8884,-6.2758,-6.768,-7.0781,-7.0944,-7.1306,-7.2591,-7.5008,-7.0991,-6.9846,-7.3164,-7.1508,-7.0748,-7.1388,-7.1551,-7.1017,-6.97,-6.9761,-6.9719,-6.9589,-7.1473,-7.3013,-7.4196,-7.6097,-7.5821,-7.3818,-7.2626,-7.0152,-6.6855,-6.562,-6.432,-6.3079,-6.2701,-6.2643,-6.2817,-6.2817,-6.2933,-6.3079,-4.5644,-4.4349,-4.3313,-4.2786,-4.164,-4.1468,-4.3504,-4.5844,-4.7612,-4.8194,-4.9523,-5.0361,-5.0196,-5.0435,-5.1079,-5.2127,-5.2639,-5.2276,-5.0887,-5.1568,-5.2073,-5.2101,-5.1666,-5.2451,-5.4566,-5.2425,-5.0968,-5.0397,-4.8882,-4.7861,-4.7309,-4.7309,-4.7519,-4.7878,-4.8147,-4.8536,-4.9015,-4.8895,-4.9344,-5.0182,-5.1229,-5.1079,0.0,-5.3713,-5.485,-5.482,-5.5089,-5.5179,-5.4999,0.0,-5.2576,0.0,0.0,0.0,0.0,-4.8566,0.0,0.0,0.0,0.0,0.0,0.0,0.0,0.0,-4.7489,0.0,-4.7309,0.0,0.0,0.0,0.0,0.0,0.0,0.0,-4.9673,0.0,0.0,0.0,-5.6063,0.0,0.0,0.0,-7.0067,-7.0535,-7.1718,0.0,-7.1619,-7.1125,-7.4016,-7.3276,-7.311,-7.3838,-7.2728,-7.1597,-7.0587,-6.9362,-6.8909,-6.9217,-7.0692,-7.2077,-7.3492,-7.4903,-7.4757,-7.3338,-7.1993,-6.9762,-6.701,-6.4597,-6.2837,-6.1525,-6.0508,-6.1347,-6.3079,-6.3079,-6.3079,-6.3079,-4.6121,-4.4886,-4.4022,-4.4022,-4.2978,-4.2937,-4.5298,-4.7949,-4.9494,-4.8895,-5.0212,-5.1212,-5.1272,-5.1601,-5.2456,-5.3952,-5.5109,-5.4977,-5.3196,-5.3821,-5.4131,-5.3897,-5.28,-5.3149,-5.5175,-5.3219,-5.1721,-5.0817,-4.9456,-4.846,-4.7722,-4.7409,-4.7549,-4.8027,-4.8207,-4.8925,-4.9942,-4.9643,-4.9853,-5.0497,-5.1588,-5.1977,-5.2127,-5.467,-5.5448,-5.5179,-5.5179,-5.5179,-5.5059,-5.4221,-5.2965,0.0,-5.1887,0.0,0.0,0.0,0.0,0.0,-4.7788,0.0,0.0,0.0,0.0,0.0,0.0,0.0,0.0,0.0,0.0,0.0,0.0,0.0,0.0,0.0,0.0,-4.9553,0.0,-5.0677,0.0,0.0,0.0,0.0,0.0,-6.8605,-6.9451,-7.209,0.0,-7.0804,-7.3849,-7.4018,-7.4356,-7.5067,-7.3624,-7.2148,-7.0647,-6.8909,-6.8008,-6.8074,-6.9503,-7.087,-7.2242,-7.3659,-7.3733,-7.2756,-7.1748,-6.9756,-6.6978,-6.4254,-6.2111,-6.0359,-5.8669,-5.9532,-6.1733,-6.2233,-6.235,-6.2497,-4.7266,-4.6211,-4.5343,-4.5343,-4.4303,-4.4077,-4.6085,-4.7478,-4.8775,-4.9956,-5.0734,-5.1947,-5.3862,-5.5209,-5.6765,-5.871,-5.9511,-5.9284,-5.7886,-5.641,-5.6168,-5.7265,-5.4529,-5.4147,-5.6662,-5.4286,-5.2613,-5.1849,-4.9781,-4.8769,-4.8759,-4.7764,-4.7309,-4.7369,-4.7997,-4.8656,-4.9389,-4.9942,-5.1319,-5.3114,-5.3832,-5.485,-5.5867,0.0,-5.464,-5.5179,-5.5179,0.0,0.0,-5.3653,-5.3174,0.0,0.0,0.0,0.0,0.0,0.0,0.0,0.0,0.0,0.0,-4.7489,0.0,0.0,0.0,0.0,-4.8087,0.0,0.0,0.0,0.0,0.0,0.0,0.0,0.0,0.0,0.0,0.0,0.0,0.0,0.0,0.0,0.0,-6.4546,-6.5256,0.0,-6.6474,0.0,-7.2191,-7.2462,-7.28,-7.3544,-7.3541,-7.192,-6.844,-6.7637,-6.6523,-6.5274,-6.7651,-6.9463,-7.0836,-7.3238,-7.3733,-7.2797,-7.2756,-7.0636,-6.7029,-6.5277,-6.2909,-6.0359,-5.8669,-5.8068,-5.8383,-5.9994,-6.06,-6.081,-4.7309,-4.6975,-4.6638,-4.6638,-4.5598,-4.5407,-4.736,-4.8715,-5.0212,-5.1947,-5.3144,-5.461,-5.6585,-5.7214,-5.8082,-5.9608,-6.1588,-6.2013,-6.0241,-6.055,-6.0712,-6.0357,-5.7735,-5.6844,-5.8254,-5.597,-5.4061,-5.2613,-5.0775,-4.9496,-4.88,-4.7764,-4.7309,-4.7339,-4.7997,-4.9134,-5.0571,-5.078,-5.2037,-5.3952,0.0,-5.5777,-5.6188,0.0,-5.5388,-5.5179,-5.5179,-5.5179,0.0,-5.467,-5.3922,-5.3174,-5.3204,-5.2276,-5.1169,-5.096,-5.0853,0.0,0.0,0.0,-5.105,-4.9105,0.0,0.0,0.0,0.0,0.0,0.0,0.0,0.0,0.0,0.0,0.0,0.0,0.0,0.0,0.0,0.0,0.0,0.0,0.0,0.0,0.0,0.0,0.0,0.0,-6.497,0.0,0.0,-7.0938,-7.2022,-7.2732,-7.1878,-7.0848,-6.9679,-6.7101,-6.6035,-6.6522,-6.7323,-6.8438,-6.9796,-7.1518,-7.2142,-7.1742,-7.085,-6.9214,-6.701,-6.4364,-6.1527,-5.8669,-5.6956,-5.5578,-5.4968,-5.7787,-5.8884,-5.8946,-4.7252,-4.7309,-4.7309,-4.7309,-4.6816,-4.6947,-4.8447,-4.9942,-5.1558,-5.3324,-5.491,-5.6526,-5.8291,-5.889,-5.9608,-6.0715,-6.3225,-6.3939,-6.1872,-6.3309,0.0,-6.2866,-6.0684,-5.9844,-6.0588,-5.8152,-5.6073,-5.4353,-5.1961,-5.0271,-4.9336,-4.7946,-4.7309,-4.7339,-4.7758,-4.9164,-5.1229,-5.1229,-5.2636,0.0,0.0,-5.6855,0.0,0.0,-5.6166,-5.5179,0.0,-5.5329,-5.5508,-5.5269,-5.461,-5.3982,-5.4431,-5.3503,-5.2276,-5.2276,-5.2097,-5.1768,-5.1109,-5.1858,0.0,-5.0451,-5.0601,0.0,-4.8506,0.0,0.0,0.0,0.0,0.0,0.0,0.0,0.0,0.0,0.0,0.0,0.0,-5.0317,0.0,0.0,0.0,0.0,0.0,0.0,-6.0351,-6.2546,-6.2546,0.0,0.0,0.0,-7.0669,-7.1582,-7.152,-7.0921,-6.9925,-6.792,-6.7057,-6.7215,-6.7673,-6.8355,-6.9265,-7.0666,-7.1312,-7.1267,-7.0356,-6.9169,-6.7641,-6.4552,-6.1848,-5.9362,-5.6542,-5.4742,-5.4055,-5.6271,-5.7496,-5.8005,-4.7197,-4.7399,-4.7415,-4.7342,-4.782,-4.8417,-4.9149,-5.082,-5.2562,-5.3943,-5.5871,-5.7577,-5.8947,-6.0369,-6.144,-6.2067,-6.4533,-6.5204,-6.3145,-6.4719,0.0,0.0,-6.3396,-6.2888,-6.3599,-6.0622,-5.8318,-5.6829,-5.3248,-5.1101,-5.0345,-4.824,-4.7309,-4.7309,-4.7309,-4.8775,-5.1229,-5.1229,-5.3144,-5.6316,-5.7603,-5.8112,-5.8082,-5.8112,-5.6944,-5.5269,-5.5269,-5.5688,-5.6188,-5.5508,-5.5269,-5.5239,-5.5239,-5.479,-5.4251,-5.4221,-5.3773,-5.3144,-5.2486,-5.2306,-5.2187,-5.1498,0.0,0.0,0.0,0.0,-5.0152,0.0,0.0,0.0,0.0,0.0,0.0,0.0,0.0,0.0,0.0,0.0,0.0,0.0,0.0,0.0,0.0,-5.6744,-5.7608,-5.8588,-5.9311,-6.1219,0.0,0.0,-6.8718,-7.0083,-7.2259,-7.2076,-6.9313,-6.9925,-6.9255,-6.7317,-6.8601,-6.9217,-6.9265,-7.0666,-7.1312,-7.1312,-7.1312,-7.0528,-6.8958,-6.6038,-6.3966,-6.2167,-5.7586,-5.5591,-5.5419,-5.5287,-5.6337,-5.7751,-4.7926,-4.8835,-4.91,-4.7992,-4.7306,-4.7253,-4.8312,-4.9066,-5.0519,-5.3275,-5.5468,-5.7486,-5.9295,-6.0983,-6.2035,-6.2241,-6.4623,0.0,0.0,0.0,0.0,-6.8697,-6.6237,-6.4918,-6.5121,-6.1637,-5.8959,-5.726,-5.3389,-5.097,-4.9924,-4.8104,-4.7309,-4.7309,-4.7309,-4.8775,-5.1229,-5.1229,-5.3414,-5.6944,-5.7782,-5.7812,-5.7423,0.0,-5.7483,-5.6615,-5.6615,-5.6705,-5.6825,-5.6675,-5.6286,-5.5927,-5.5927,-5.5478,-5.485,-5.4371,-5.4431,-5.4521,-5.3862,-5.4042,-5.4132,-5.2965,-5.2665,-5.2336,0.0,0.0,0.0,0.0,0.0,0.0,0.0,0.0,0.0,0.0,0.0,0.0,0.0,0.0,0.0,-5.1823,0.0,0.0,0.0,-5.4553,-5.4744,-5.6512,-5.6933,0.0,0.0,0.0,0.0,-6.9306,-7.1007,-7.1548,-7.0791,-6.9926,-6.9237,-6.8699,-6.9073,-6.9217,-6.9265,-7.0666,-7.1312,-7.1312,-7.1312,-7.0528,-6.9136,-6.8356,-6.587,-6.2455,-6.1233,-5.8535,-5.5221,-5.3987,-5.381,-5.419,-4.709,-4.8278,-4.8899,-4.8026,-4.7331,0.0,-4.8893,-4.9153,0.0,-5.303,-5.5205,0.0,-5.8024,-6.0885,-6.2635,-6.2313,-6.4925,0.0,-6.6762,0.0,0.0,-6.9207,-6.8243,-6.7658,-6.7658,-6.4309,0.0,-5.8855,0.0,-5.1873,-4.9749,-4.8067,-4.7309,-4.7309,-4.7309,-4.8446,-5.0451,-5.1917,-5.3982,-5.6376,-5.7633,-5.8052,0.0,-5.8411,-5.8321,-5.7962,-5.7962,-5.7782,-5.7483,-5.7184,-5.6855,-5.6526,-5.6308,-5.5927,-5.5478,-5.482,-5.491,-5.5119,-5.473,-5.491,-5.4999,-5.4251,-5.4042,-5.3713,-5.2366,-5.2366,-5.2516,0.0,0.0,0.0,0.0,0.0,0.0,0.0,0.0,0.0,0.0,0.0,0.0,0.0,-5.2576,0.0,0.0,-5.3555,-5.3727,-5.4674,-5.504,0.0,0.0,0.0,0.0,-6.8021,-6.9891,-7.0973,-7.1312,-7.0528,-7.009,-7.009,-7.009,-6.9808,-6.9265,-7.0666,-7.0961,-7.0436,-7.1052,-7.0837,-7.0043,-6.9457,-6.7727,-6.5286,-6.3365,-6.0129,-5.6337,-5.4608,-5.3563,-5.2929,-4.611,-4.7356,-4.8047,-4.7833,-4.7882,0.0,0.0,-5.0204,0.0,-5.3043,0.0,-5.6311,-5.6311,-6.0146,-6.258,-6.2257,0.0,-6.6278,-6.5417,-6.8016,-6.9174,-6.8076,-6.9077,-6.9727,-6.9939,-6.6972,-6.381,0.0,0.0,-5.3016,-4.9539,-4.8024,-4.7309,-4.7309,-4.7309,-4.8147,0.0,-5.2875,-5.467,-5.5598,-5.7393,-5.853,-5.9099,-5.9099,-5.9159,-5.9219,-5.9129,-5.874,-5.8171,-5.7573,-5.7304,-5.7124,-5.6496,-5.6226,-5.6098,-5.5388,-5.5179,-5.5179,-5.5179,-5.5179,-5.5179,-5.5179,-5.5179,-5.488,-5.3713,-5.3443,-5.3443,-5.3443,-5.2546,-5.27,0.0,0.0,0.0,0.0,0.0,0.0,0.0,0.0,0.0,0.0,0.0,0.0,0.0,0.0,0.0,0.0,0.0,0.0,0.0,0.0,0.0,-6.6449,-6.8924,-7.05,-7.1142,0.0,-7.1312,-7.1312,-7.1098,-7.0356,-6.9265,-7.0263,-7.0216,-6.9265,-7.0482,-7.1098,-7.1222,-6.9996,-6.9361,-6.8764,-6.4498,-6.1144,-5.839,-5.6645,-5.4956,-5.3495,-4.8051,-4.928,-4.9555,-4.7846,0.0,-5.0577,-5.1023,-5.1048,-5.1521,-5.2848,-5.4865,-5.6193,-5.6193,-5.8245,-6.0185,-6.1625,-6.3099,0.0,0.0,0.0,0.0,-6.8107,-6.7286,-6.7362,-6.8446,-6.5556,-6.2541,0.0,0.0,0.0,-4.8544,-4.7695,-4.7309,-4.7309,-4.7309,0.0,-5.102,-5.3264,0.0,-5.6855,-5.7752,-5.853,-5.9099,-5.9099,-5.9428,-5.9847,-5.9308,-5.9039,-5.8919,-5.88,-5.8381,-5.7812,-5.7154,-5.6585,-5.6098,-5.5388,-5.5179,-5.5179,-5.5179,-5.5179,-5.5179,-5.5179,-5.5179,-5.5119,-5.488,-5.485,-5.485,-5.485,-5.464,-5.4381,-5.3965,0.0,0.0,0.0,0.0,0.0,0.0,0.0,0.0,0.0,0.0,-5.3084,0.0,0.0,0.0,0.0,0.0,0.0,0.0,0.0,0.0,0.0,-6.8505,0.0,0.0,0.0,-7.1312,-7.1267,-7.009,-6.9409,-6.9169,-6.8306,-6.8405,-6.9217,-6.9457,-7.0216,-7.1267,-7.1052,-7.0263,-6.8862,-6.5564,-6.3274,-6.1586,-5.9864,-5.832,-5.6661,-4.7759,-4.8379,-4.8721,-4.8652,0.0,0.0,0.0,-5.303,-5.3306,-5.298,-5.3858,-5.4511,-5.4511,-5.7125,-5.9253,-6.0127,-6.2408,-6.4455,-6.6037,-6.6433,-6.6938,-6.7566,-6.7005,-6.6988,-6.7637,-6.5545,-6.2696,-5.9174,0.0,0.0,-4.882,0.0,-4.7309,-4.7339,-4.8027,-4.9015,0.0,0.0,0.0,-5.6226,-5.7573,-5.853,-5.9099,-5.9099,-5.9308,-5.9578,-5.9608,-5.9608,-5.9548,-5.9219,-5.889,-5.853,-5.7842,-5.7423,-5.6974,-5.5987,-5.5688,-5.5628,-5.5269,-5.5179,-5.5179,-5.5179,-5.5179,-5.5179,-5.5179,-5.5179,-5.5179,-5.5179,-5.5179,-5.5129,-5.4962,-5.5175,0.0,0.0,0.0,0.0,0.0,0.0,0.0,0.0,0.0,0.0,0.0,0.0,0.0,0.0,0.0,0.0,0.0,0.0,0.0,0.0,0.0,0.0,0.0,0.0,0.0,-7.0216,-6.9504,-6.8421,-6.7061,-6.7164,-6.7164,-6.7164,-6.8601,-6.9169,-6.9202,-6.9202,-6.8781,-6.8024,-6.654,-6.5531,-6.4777,-6.3014,-6.1989,-6.085,-4.7631,-4.7757,0.0,0.0,-5.0594,-5.1699,-5.3432,-5.4762,-5.5089,-5.3783,-5.3632,-5.3632,-5.3632,-5.6438,-5.8507,-5.8833,-6.1528,-6.3346,-6.3671,-6.5172,-6.6101,-6.6101,-6.6355,-6.6596,-6.6783,-6.565,-6.3199,0.0,0.0,0.0,0.0,0.0,0.0,0.0,0.0,0.0,0.0,0.0,-5.497,-5.5957,-5.7663,-5.865,-5.9099,-5.9099,-5.9279,-5.9578,-5.9937,-6.0266,-6.0386,-5.9578,-5.9308,-5.9189,-5.8381,-5.8112,-5.7902,-5.6705,-5.6376,-5.6226,-5.5568,-5.5388,-5.5359,-5.5239,-5.5179,-5.5179,-5.5179,-5.5179,-5.5179,-5.5179,-5.5179,-5.5425,-5.5997,-5.6421,0.0,0.0,0.0,0.0,0.0,0.0,0.0,0.0,0.0,0.0,-5.3181,0.0,0.0,0.0,0.0,0.0,-5.6593,-5.8563,-6.0878,0.0,0.0,-6.7489,-6.9451,0.0,-6.9882,-6.9217,-6.8894,-6.747,-6.5111,-6.5941,-6.5888,-6.5219,-6.7368,-6.7874,-6.7164,-6.7164,-6.7164,-6.7215,-6.7521,-6.7419,-6.7081,-6.5996,-6.5374,-6.4623,0.0,0.0,0.0,0.0,0.0,-5.3457,-5.3658,-5.5089,-5.6068,-5.5917,-5.5892,-5.5892,-5.5892,-5.6214,-5.7086,-5.8789,-5.9183,-6.0127,-6.173,-6.2437,-6.2753,-6.2753,-6.3714,-6.4619,-6.5274,-6.5126,-6.3419,0.0,0.0,-5.4589,0.0,0.0,0.0,0.0,0.0,0.0,0.0,-5.473,-5.6166,-5.7932,-5.871,-5.9039,-5.9099,-5.9099,-5.9847,-6.0864,-6.0296,-6.0864,-6.1702,-6.0416,-5.9997,-5.9787,-5.853,-5.8112,-5.7992,-5.7244,-5.7004,-5.6885,-5.6256,-5.6077,-5.5927,-5.5329,-5.5179,-5.5179,-5.5179,-5.5179,-5.5179,-5.5179,-5.5179,-5.5129,-5.4885,-5.6915,-5.827,0.0,0.0,0.0,0.0,0.0,-5.7932,-5.7232,0.0,0.0,0.0,-5.1289,0.0,0.0,-5.3458,0.0,-5.6625,-5.8563,-6.001,-6.0952,0.0,-6.6237,-6.7117,-6.9147,-6.9882,-6.9217,-6.7974,-6.6543,-6.5056,-6.4015,-6.404,-6.5111,-6.5382,-6.6154,-6.7164,-6.7164,-6.7164,-6.7317,-6.8552,-6.8306,-6.7317,-6.8389,-6.7992,-6.6926,0.0,0.0,0.0,0.0,0.0,0.0,0.0,-5.5767,-5.6219,-5.6219,-5.6219,-5.6219,-5.6219,-5.6219,-5.6485,-5.7231,-5.8224,-5.9183,-5.992,-6.0463,-6.1416,-6.283,-6.2651,-6.312,-6.4422,-6.4058,-6.2445,0.0,0.0,-5.4419,-5.1379,-5.0062,0.0,0.0,0.0,-5.3174,-5.488,-5.6346,-5.7393,-5.8171,-5.883,-5.9099,-5.9159,-5.9548,-6.0027,-6.0565,-6.1104,-6.1642,-6.2002,-6.1463,-6.0745,-5.9937,-5.9009,-5.871,-5.859,-5.7902,-5.7723,-5.7573,-5.6915,-5.6735,-5.6675,-5.6406,-5.6047,-5.5777,-5.5777,-5.5478,-5.5179,-5.5179,-5.5179,-5.537,-5.5995,-5.6529,-5.7362,0.0,0.0,0.0,0.0,0.0,0.0,-5.7527,0.0,-5.3902,0.0,0.0,0.0,0.0,0.0,0.0,0.0,-5.9544,0.0,-6.1642,0.0,-6.5831,-6.7455,-6.8842,-6.9002,-6.7974,-6.747,-6.6048,-6.3902,-6.3337,-6.3845,-6.5087,-6.4265,-6.4678,-6.5888,-6.5087,-6.5219,-6.5994,-6.6543,-6.7419,-6.8454,-6.8991,-6.9394,-6.9666,-5.3356,0.0,-5.3306,0.0,-5.4712,-5.4838,-5.6018,-5.6219,-5.6219,-5.6219,-5.6219,-5.6219,-5.6219,-5.6219,-5.6219,-5.6219,-5.7349,-5.8108,-5.8108,-5.8844,-6.0176,-6.2409,-6.2182,0.0,-6.3948,-6.3767,-6.245,-5.9997,-5.7543,0.0,-5.3593,0.0,0.0,0.0,-5.4072,-5.5089,-5.6137,-5.7543,-5.8231,-5.8471,-5.8919,-5.9219,-5.9428,-5.9697,-6.0146,-6.0775,-6.1523,-6.2061,-6.2361,-6.2151,-6.1463,-6.0535,-5.9668,-5.9398,-5.9249,-5.859,-5.8411,-5.8261,-5.7573,-5.7393,-5.7363,-5.7154,-5.6765,-5.6406,-5.6226,-5.547,-5.4797,-5.4619,-5.5075,-5.5752,-5.6605,-5.6515,-5.701,-5.8891,0.0,0.0,0.0,0.0,0.0,0.0,-5.471,-5.3303,-5.3582,-5.1864,0.0,0.0,0.0,0.0,0.0,0.0,0.0,0.0,0.0,0.0,0.0,-6.9016,-6.8908,-6.7774,-6.7368,-6.5941,-6.3706,-6.3279,-6.3649,-6.4457,-6.3478,-6.3649,-6.4457,-6.3478,-6.3649,-6.4568,-6.4978,-6.6312,-6.8057,-6.8682,-6.982,-7.1002,-5.4336,-5.4536,-5.4888,-5.5993,-5.6194,-5.6194,-5.6219,-5.6219,-5.6219,-5.6219,-5.6219,-5.6219,-5.6219,-5.6219,-5.6219,-5.6219,-5.6219,-5.6219,-5.6219,-5.728,-5.8693,0.0,0.0,-6.3502,-6.3978,-6.4665,-6.4036,-6.2061,0.0,0.0,-5.6974,0.0,-5.3862,-5.5149,-5.5179,-5.6256,-5.8082,-5.8112,-5.8501,-5.9099,-5.9099,-5.9488,-5.9997,-5.9368,-6.0356,-6.2002,-6.1343,-6.1972,-6.2959,-6.2301,-6.2091,-6.1822,-6.0505,-6.0086,-5.9937,-5.9279,-5.9099,-5.8949,-5.8291,-5.8112,-5.7962,-5.7274,-5.7094,-5.6915,-5.6368,-5.5008,-5.3737,-5.3131,-5.4701,-5.6218,-5.6218,-5.719,-5.7965,-5.7837,0.0,0.0,0.0,0.0,0.0,-5.524,-5.4417,-5.3703,-5.2993,0.0,0.0,0.0,0.0,0.0,0.0,0.0,0.0,-6.3721,-6.452,0.0,-6.8258,-6.9743,-7.0029,-6.9169,-6.7824,-6.647,-6.5032,-6.3676,-6.3137,-6.3137,-6.3137,-6.3137,-6.3137,-6.3137,-6.3137,-6.3279,-6.4568,-6.5111,-6.5421,-6.7472,-6.9094,-7.0287,-5.5616,-5.5691,-5.5792,-5.6143,-5.6219,-5.6219,-5.6219,-5.6219,-5.6219,-5.6219,-5.6219,-5.6219,-5.6219,-5.6219,-5.6219,0.0,-5.6219,-5.6219,0.0,-5.6243,-5.7151,-5.9349,-6.0838,-6.2238,-6.3469,-6.4484,-6.4276,-6.278,0.0,0.0,0.0,-5.6735,-5.6795,-5.7214,-5.7663,-5.8201,-5.88,-5.88,-5.8919,-5.9129,-5.9608,-5.9907,-6.0176,-6.0864,-6.1553,-6.2121,-6.2361,-6.272,-6.2903,-6.1468,-6.1791,-6.2428,-6.0325,-5.9873,-5.9967,-5.9308,-5.9099,-5.9069,-5.886,-5.88,-5.874,-5.853,-5.8112,-5.7752,-5.7543,-5.5923,-5.4133,-5.2855,-5.2825,-5.3183,-5.3553,-5.3939,-5.4354,-5.4759,-5.4988,0.0,0.0,0.0,0.0,-5.3015,-5.2378,-5.207,0.0,-5.2211,0.0,0.0,0.0,0.0,0.0,0.0,0.0,0.0,-6.5005,0.0,-6.8189,-6.9708,-6.9834,-6.8445,-6.7598,-6.5994,-6.3732,-6.3279,-6.3079,-6.3079,-6.3079,-6.3079,-6.3079,-6.3079,-6.3079,-6.3137,-6.3592,-6.432,-6.5258,-6.6379,-6.7356,-6.8395,-5.6219,-5.6219,-5.6219,-5.6219,-5.6219,-5.6219,-5.6219,-5.6219,-5.6219,-5.6219,-5.6219,-5.6219,-5.6219,-5.6219,0.0,-5.6219,-5.6219,-5.6219,-5.6219,-5.5892,-5.6657,-5.8833,-5.9639,-6.0799,-6.2216,-6.3611,0.0,-6.2381,-6.1389,-6.0086,-5.862,-5.9039,-5.9249,-5.9249,-5.9668,-5.9847,-5.9847,-5.9847,-5.9847,-5.9907,-6.0296,-6.0625,-6.0894,-6.1493,-6.2032,-6.248,-6.266,-6.2463,-6.1969,-6.087,-6.081,-6.0872,-5.913,-5.9187,-5.9898,-5.9861,-5.9847,-5.9817,-5.9548,-5.9668,-5.9787,-5.9548,-5.9159,-5.844,-5.676,-5.5302,-5.3754,-5.1956,-5.1966,-5.2396,-5.2697,-5.2809,-5.3061,-5.3637,-5.3748,-5.3502,-5.2619,0.0,0.0,0.0,0.0,0.0,0.0,-5.2524,-5.2714,0.0,0.0,0.0,0.0,0.0,0.0,-6.5057,-6.6317,0.0,-6.918,-7.012,-7.0051,-6.8885,-6.775,-6.5728,-6.3079,-6.3079,-6.3079,-6.3079,-6.3079,-6.3079,-6.3079,-6.3079,-6.3079,-6.3079,-6.3079,-6.3592,-6.4437,-6.508,-6.5964,-6.6986,-5.6219,-5.6219,-5.6219,0.0,-5.6219,0.0,-5.6219,-5.6219,-5.6219,-5.6219,-5.6219,-5.6219,-5.6219,-5.6219,-5.6219,-5.6219,0.0,0.0,0.0,-5.6219,-5.6968,-5.8648,-5.8833,-5.9403,-6.0435,-6.2308,-6.2726,-6.1491,-6.1938,-6.1822,-6.1194,-6.1224,-6.1194,-6.1104,-6.1164,-6.1164,-6.1104,-6.1104,-6.1104,-6.1104,-6.1164,-6.1553,-6.2032,-6.1463,-6.2002,-6.2989,-6.2246,-6.1322,-6.048,-6.0237,-5.9166,-5.7894,-5.7279,-5.8198,-5.9738,-6.0632,-6.0992,-6.0984,-6.0326,-6.0625,-6.0954,-6.0326,-6.0091,-5.8844,-5.4592,-5.3527,-5.2775,-5.0604,-5.1707,-5.3124,-5.3151,-5.3124,-5.3316,-5.3947,-5.4057,-5.359,-5.2328,0.0,0.0,0.0,0.0,0.0,0.0,-5.2945,-5.4329,0.0,0.0,0.0,0.0,0.0,-6.1959,-6.7127,-6.8149,-6.9283,-7.0698,-7.0769,-7.0562,-7.0028,-6.8063,-6.575,-6.3222,-6.3137,-6.3079,-6.3079,-6.3079,-6.3109,-6.3139,-6.3109,-6.3109,-6.3139,-6.3079,-6.3079,-6.3139,-6.3767,-6.4843,-6.6047,0.0,0.0,-5.6219,-5.6219,-5.6219,-5.6219,-5.6219,-5.6219,-5.6219,-5.6219,-5.6219,-5.6219,-5.6219,-5.6219,-5.6219,-5.6219,-5.6219,-5.6219,-5.6219,-5.6219,-5.6412,-5.6823,-5.8179,-5.906,-5.9318,-6.1921,-6.3316,-6.3358,-6.3025,-6.251,-6.1882,-6.2391,-6.2061,-6.1134,-6.1642,-6.1583,-6.1104,-6.1104,-6.1104,-6.1164,-6.1672,-6.1972,-6.2121,-6.248,-6.281,-6.2903,-6.1409,-6.0754,-6.0087,-5.7505,-5.7213,-5.7977,-5.7839,-5.8907,-6.0108,-5.9364,-6.0054,-6.1074,-6.0924,-6.0984,-6.1074,-6.0894,-5.9875,-5.8176,-5.5472,-5.3863,-5.2315,-5.0218,-4.9796,-5.0007,-5.0444,-5.0187,-5.0084,-5.065,-5.0753,-5.0341,-4.9158,-4.9003,0.0,0.0,-4.8498,-4.9557,-5.1042,-5.2282,-5.3057,0.0,0.0,0.0,0.0,-5.9214,-6.1899,-6.6199,-6.7799,-6.9035,-6.9955,-7.0521,-7.0065,-6.8572,-6.7083,-6.5754,-6.4623,-6.3592,-6.3079,-6.3079,-6.3079,-6.3348,-6.3737,-6.3258,-6.3348,-6.3737,-6.3258,-6.3079,-6.3139,-6.3767,-6.421,-6.4701,-5.6219,-5.6219,-5.6219,-5.6219,-5.6219,-5.6219,-5.6219,-5.6219,-5.6219,-5.6219,-5.6219,-5.6219,-5.6219,-5.6219,-5.6219,-5.6219,-5.6219,-5.6219,-5.6219,-5.6219,-5.6219,-5.6219,-5.7159,-5.7707,-5.7707,-6.0889,-6.3158,-6.4485,-6.3827,-6.3169,-6.254,-6.2899,-6.269,-6.2032,-6.2391,-6.2331,-6.2002,-6.2002,-6.2002,-6.2061,-6.2391,-6.254,-6.26,-6.2929,-6.3079,-6.3021,-6.2028,-6.069,-5.9042,-5.7213,-5.6699,-5.6828,-5.6828,-5.8543,-6.0336,-5.9673,-6.0676,-6.1942,-6.1642,-6.1792,-6.1942,-6.1642,-5.9684,-5.7527,-5.6066,-5.3646,-5.137,-5.0212,-4.954,-4.9238,-4.954,-4.9339,-4.9238,-4.954,-4.9163,-4.8611,-4.7983,-4.7707,0.0,-4.7324,-4.8453,-4.9844,-5.1534,-5.2912,-5.3954,-5.4391,-5.5418,0.0,-5.9164,-6.0601,-6.298,-6.6381,-6.7747,-6.86,-6.9021,-6.93,-6.8827,-6.7622,-6.7199,-6.6339,-6.5087,-6.4346,-6.3706,-6.3079,-6.3079,-6.3258,-6.3558,-6.3528,-6.3707,-6.4006,-6.3977,-6.3977,-6.4006,-6.4336,-6.4276,-6.421,-5.6219,-5.6219,-5.6219,-5.6219,-5.6219,-5.6219,-5.6219,-5.6219,-5.6219,-5.6219,-5.6219,-5.6219,-5.6219,-5.6219,-5.6219,-5.6219,-5.6219,-5.6219,-5.6219,-5.6219,-5.6219,-5.6219,-5.6219,-5.6219,-5.6219,-5.9632,-6.2636,-6.5024,-6.4336,-6.3677,-6.3079,-6.3079,-6.3079,-6.3079,-6.3079,-6.3079,-6.3079,-6.3079,-6.3079,-6.3079,-6.3079,-6.3079,-6.3079,-6.3079,-6.3079,-6.3079,-6.2937,-6.0984,-5.8522,-5.838,-5.7292,-5.6119,-5.6275,-5.8277,-6.0624,-6.0508,-6.1585,-6.264,-6.2333,-6.2458,-6.2494,-6.1699,-5.9162,-5.6754,-5.6087,-5.3238,-5.0645,-5.0569,-5.0167,-4.9816,-4.9741,-4.9715,-4.9665,-4.949,-4.8661,-4.7983,-4.7807,0.0,-4.723,-4.7093,-4.8772,-5.0625,-5.2336,-5.3754,-5.5278,-5.6989,-5.7633,-5.8756,-6.0677,-6.2077,-6.4059,-6.6676,-6.7688,-6.8189,-6.8189,-6.8131,-6.7853,-6.7308,-6.7848,-6.7245,-6.5674,-6.5274,-6.4457,-6.3394,-6.3194,-6.3139,-6.3258,-6.3677,-6.3917,-6.4066,-6.4635,-6.4874,-6.4874,-6.4934,-6.4753,-6.4621,-5.6219,-5.6219,-5.6219,-5.6219,-5.6219,-5.6219,-5.6219,-5.6219,-5.6219,-5.6219,-5.6219,-5.6219,-5.6219,-5.6219,-5.6219,-5.6219,-5.6219,-5.6219,-5.6219,-5.6219,-5.6219,-5.6219,-5.6219,-5.6219,-5.6219,-5.9162,-6.2146,-6.5024,-6.4336,-6.3677,-6.3079,-6.3079,-6.3079,-6.3079,-6.3079,-6.3079,-6.3079,-6.3079,-6.3079,-6.3079,-6.3079,-6.3079,-6.3079,-6.3079,-6.3079,-6.2965,-6.208,-6.1405,-6.0817,-6.0002,-5.9524,-5.9413,-6.0279,-6.0946,-6.12,-6.0652,-6.069,-6.1229,-6.2553,-6.1969,-6.054,-5.902,-5.7141,-5.5522,-5.5001,-5.3266,-5.1724,-5.1247,-5.1071,-5.087,-5.0368,-5.0293,-4.9992,-4.9063,-4.8761,-4.8309,-4.738,0.0,-4.7631,-4.7118,-4.8257,-4.9913,-5.2276,-5.3178,-5.4601,-5.6914,-5.7184,-5.8122,-6.0142,-6.1455,-6.3098,-6.5205,-6.7174,-6.8189,-6.8189,-6.8823,-6.9042,-6.8772,-6.8334,-6.8253,-6.8503,-6.6154,-6.4978,-6.4703,-6.3592,-6.3378,-6.3827,-6.3408,-6.3528,-6.4006,-6.4126,-6.4156,-6.4216,-6.4814,-6.5698,-6.6601,-5.6219,-5.6219,-5.6219,-5.6219,-5.6219,-5.6219,-5.6219,-5.6219,-5.6219,-5.6219,-5.6219,-5.6219,-5.6219,-5.6219,-5.6219,-5.6219,-5.6219,-5.6219,-5.6219,-5.6219,-5.6219,-5.6219,-5.6219,-5.7086,-5.9043,-6.1386,-6.3388,-6.5024,-6.4695,-6.3594,-6.1703,-6.2672,-6.2613,-6.1703,-6.2672,-6.3079,-6.3079,-6.3079,-6.3079,-6.3079,-6.3079,-6.3079,-6.3109,-6.3438,-6.3558,-6.3589,-6.3415,-6.2805,-6.1973,-6.1542,-6.1373,-6.1387,-6.1475,-6.236,-6.3204,-6.2204,-6.0569,-5.9318,-6.0144,-5.9749,-5.898,-5.8194,-5.6699,-5.534,-5.5076,-5.3479,-5.2026,-5.1774,-5.2221,-5.244,-5.1807,-5.1768,-5.1588,-5.1071,-4.9494,0.0,0.0,-4.8134,-4.7933,-4.8008,-4.8711,-5.0363,-5.3265,-5.3779,-5.5138,-5.7958,-5.8171,-5.8896,-6.0504,-6.1127,-6.2524,-6.4823,-6.6559,-6.7625,-6.8036,-6.8412,-6.8947,-6.9688,-6.9379,-6.9251,-6.9169,-6.7874,-6.649,-6.5087,-6.4457,-6.3914,-6.3498,-6.3558,-6.3737,-6.4066,-6.4814,-6.5084,-6.5114,-6.5443,-6.6179,-6.7119,-5.6219,-5.6219,-5.6219,-5.6219,-5.6219,-5.6219,-5.6219,-5.6219,-5.6219,-5.6219,-5.6219,-5.6219,-5.6219,-5.6219,-5.634,-5.6823,-5.6823,-5.6823,-5.6823,-5.7231,-5.7303,-5.6823,-5.7231,-5.8973,-6.2131,-6.3606,-6.4527,-6.5024,-6.5024,-6.3624,-6.111,-6.2028,-6.1969,-6.1139,-6.2086,-6.273,-6.3079,-6.3079,-6.3079,-6.3079,-6.3228,-6.3288,-6.3378,-6.4006,-6.4246,-6.4336,-6.4994,-6.4391,-6.332,-6.3528,-6.3586,-6.3469,-6.2768,-6.3796,-6.4905,-6.3416,-6.0512,-5.7788,-5.7487,-5.7432,-5.7305,-5.6919,-5.5841,-5.4782,-5.4782,-5.3545,-5.2302,-5.2302,-5.3012,-5.3387,-5.2749,-5.2708,-5.2668,-5.216,0.0,0.0,0.0,-4.8686,-4.841,-4.8736,-4.949,-5.1214,-5.4309,-5.4607,-5.5902,-5.9091,-5.9189,-5.9613,-6.0751,-6.139,-6.3018,-6.579,-6.6613,-6.7421,-6.8166,-6.8335,-6.9011,-7.0195,-7.0364,-7.0174,-6.968,-6.9361,-6.8024,-6.6048,-6.5382,-6.4512,-6.3565,-6.3762,-6.3767,-6.3917,-6.5263,-6.5772,-6.5802,-6.5951,-6.6452,-6.7231,-5.6219,-5.6219,-5.6219,-5.6219,-5.6219,-5.6219,-5.6219,-5.6219,-5.6219,-5.6219,-5.6219,-5.6219,-5.6219,-5.6219,-5.6895,-5.8578,-5.8719,-5.8719,-5.8719,-6.0264,-6.047,-5.8789,-6.0333,-6.2131,-6.4088,-6.4217,-6.4527,-6.5024,-6.5024,-6.4277,-6.2875,-6.1377,-6.1496,-6.2817,-6.1318,-6.1585,-6.3079,-6.3079,-6.3079,-6.3139,-6.3707,-6.3917,-6.4006,-6.4695,-6.4964,-6.5024,-6.5712,-6.5861,-6.583,-6.6427,-6.6635,-6.6516,-6.5889,-6.5771,-6.547,-6.3207,-6.0051,-5.7088,-5.5908,-5.5617,-5.5247,-5.3674,-5.3179,-5.3042,-5.3042,-5.2948,-5.2879,-5.2879,-5.2898,-5.2833,-5.2279,-5.2178,-5.1648,-5.0086,0.0,0.0,-4.8159,-4.8862,-4.9289,-4.8837,-5.0193,-5.222,-5.494,-5.5187,-5.6496,-5.9776,-5.9458,-5.9423,-6.0131,-6.2516,-6.5361,-6.8658,-6.8156,-6.8199,-6.9011,-6.9688,-7.0094,-7.0195,-7.0906,-7.1199,-7.1098,-6.9775,-6.9121,-6.8748,-6.6206,-6.5001,-6.4868,-6.3652,-6.3139,-6.3258,-6.4575,-6.5114,-6.5173,-6.5772,-6.6452,-6.7231,-5.6219,-5.6219,-5.6219,-5.6219,-5.6219,-5.6219,-5.6219,-5.6219,-5.6605,-5.7707,-5.7895,-5.8295,-5.9462,-5.9574,-5.9851,-6.0538,-6.0579,-6.0579,-6.0579,-6.2264,-6.2463,-6.0648,-6.233,-6.3606,-6.4281,-6.5358,-6.5878,-6.5652,-6.5233,-6.3981,-6.214,-6.2086,-6.191,-6.1525,-6.2292,-6.3061,-6.3677,-6.4096,-6.4276,-6.4306,-6.4545,-6.4635,-6.4695,-6.5383,-6.5652,-6.5712,-6.637,-6.661,-6.667,-6.6909,-6.6999,-6.6879,-6.6221,-6.6281,-6.6155,-6.3844,-6.1876,-5.9949,-5.7277,-5.5741,-5.4687,-5.3621,-5.3683,-5.3858,-5.3482,-5.3406,-5.3306,-5.3005,-5.3742,-5.4252,-5.3708,-5.3579,-5.3438,-5.2725,0.0,-5.0619,-5.0519,-5.0594,-5.0569,-5.0343,-5.0896,-5.2478,-5.5545,-5.585,-5.7174,-6.0492,-6.0475,-6.0801,-6.1898,-6.4488,-6.6757,-6.8465,-6.9065,-6.9451,-6.9755,-7.006,-7.0432,-7.0906,-7.1176,-7.1312,-7.1267,-7.0745,-7.0043,-6.9136,-6.8074,-6.6647,-6.5087,-6.4568,-6.3845,-6.3199,-6.4515,-6.5024,-6.5114,-6.5772,-6.6452,-6.7063,-5.7014,-5.6631,-5.6219,-5.6219,-5.6678,-5.7014,-5.7014,-5.7564,-5.8366,-5.9574,-5.9712,-6.0195,-6.1461,-6.1595,-6.1797,-6.2396,-6.2463,-6.2463,-6.2463,-6.3606,-6.4024,-6.3346,-6.4503,-6.5168,-6.5168,-6.6384,-6.667,-6.6011,-6.5562,-6.4336,-6.2601,-6.2793,-6.2587,-6.193,-6.3029,-6.3803,-6.4366,-6.4814,-6.5024,-6.5054,-6.5263,-6.5323,-6.5413,-6.6071,-6.6311,-6.637,-6.6819,-6.6999,-6.6999,-6.6999,-6.6999,-6.6909,-6.646,-6.664,-6.6695,-6.5048,-6.3864,-6.2485,-5.9934,-5.7652,-5.5643,-5.4275,-5.426,-5.4461,-5.4059,-5.3959,-5.3884,-5.3507,-5.4321,-5.4972,-5.436,-5.4452,-5.44,-5.3815,-5.268,-5.18,-5.185,-5.1674,-5.1473,-5.1297,-5.2083,-5.3648,-5.6266,-5.6976,-5.8392,-6.1178,-6.1609,-6.258,-6.4614,-6.6631,-6.82,-6.9138,-7.0063,-7.0534,-7.0534,-7.0534,-7.0804,-7.1312,-7.1312,-7.1312,-7.1312,-7.1312,-7.0791,-6.9822,-6.9409,-6.7874,-6.5728,-6.5274,-6.432,-6.3199,-6.4515,-6.5024,-6.5114,-6.5772,-6.6309,-6.669,-5.8903,-5.7492,-5.6219,-5.6219,-5.7707,-5.8903,-5.8903,-6.047,-6.1595,-6.1595,-6.1595,-6.1595,-6.1663,-6.1663,-6.233,-6.4153,-6.4281,-6.4281,-6.4281,-6.4281,-6.5105,-6.6908,-6.6999,-6.6999,-6.6999,-6.6999,-6.667,-6.6011,-6.6011,-6.5682,-6.4964,-6.3334,-6.3395,-6.4905,-6.3272,-6.3456,-6.5054,-6.5054,-6.5054,-6.5114,-6.5742,-6.6011,-6.6071,-6.6759,-6.6999,-6.6999,-6.6999,-6.6999,-6.6999,-6.6999,-6.6999,-6.6999,-6.6999,-6.6999,-6.6999,-6.6999,-6.5702,-6.423,-6.3659,-6.1287,-5.8219,-5.5381,-5.4632,-5.4587,-5.4561,-5.4561,-5.4561,-5.4561,-5.4561,-5.4386,-5.3808,-5.4185,-5.4034,-5.2402,-5.2578,-5.2553,-5.1448,-5.1774,-5.19,-5.1414,-5.3734,-5.59,-5.7086,-5.8629,-6.0238,-6.1978,-6.2724,-6.4614,-6.805,-6.887,-6.9855,-7.1267,-7.1312,-7.1312,-7.1312,-7.1312,-7.1312,-7.1312,-7.1312,-7.1312,-7.1312,-7.1312,-7.1312,-7.1222,-6.9822,-6.8454,-6.7113,-6.5674,-6.432,-6.3256,-6.4515,-6.5024,-6.5054,-6.5772,-6.6011,-6.6042,-6.0784,-6.0401,-5.9989,-5.9989,-6.047,-6.0784,-6.0784,-6.1259,-6.2064,-6.3346,-6.3476,-6.3959,-6.5232,-6.5358,-6.5639,-6.6168,-6.6168,-6.6168,-6.6168,-6.6168,-6.6446,-6.6999,-6.6999,-6.6999,-6.6999,-6.6999,-6.6879,-6.67,-6.6221,-6.5922,-6.5712,-6.4723,-6.4516,-6.4994,-6.4991,-6.5259,-6.5742,-6.6191,-6.64,-6.643,-6.661,-6.67,-6.6729,-6.6909,-6.6999,-6.6999,-6.6999,-6.6999,-6.6999,-6.6999,-6.6999,-6.6999,-6.6999,-6.6999,-6.6999,-6.6999,-6.6661,-6.586,-6.4463,-6.2455,-6.0212,-5.7703,-5.6059,-5.5039,-5.4662,-5.4561,-5.4461,-5.4059,-5.4285,-5.4511,-5.4336,-5.4461,-5.4411,-5.3909,-5.3959,-5.3808,-5.308,-5.415,-5.4831,-5.4233,-5.5992,-5.7859,-5.9342,-5.995,-6.0907,-6.2665,-6.4777,-6.6823,-6.8792,-7.0503,-7.1656,-7.209,-7.2563,-7.2597,-7.209,-7.1582,-7.1312,-7.1312,-7.1312,-7.1312,-7.1312,-7.1312,-7.1312,-7.1267,-7.0837,-6.9902,-6.8503,-6.7113,-6.5728,-6.4554,-6.4897,-6.5024,-6.5173,-6.6281,-6.64,-6.6012,-6.2661,-6.2064,-6.1595,-6.1595,-6.2197,-6.2661,-6.2661,-6.328,-6.4153,-6.5232,-6.5358,-6.5764,-6.6846,-6.6999,-6.6999,-6.6999,-6.6999,-6.6999,-6.6999,-6.6999,-6.6999,-6.6999,-6.6999,-6.6999,-6.6999,-6.6999,-6.6999,-6.6999,-6.658,-6.64,-6.64,-6.5981,-6.5802,-6.5832,-6.6221,-6.64,-6.643,-6.6819,-6.6999,-6.6999,-6.6999,-6.6999,-6.6999,-6.6999,-6.6999,-6.6999,-6.6999,-6.6999,-6.6999,-6.6999,-6.6999,-6.6999,-6.6999,-6.6999,-6.6999,-6.6999,-6.6999,-6.6785,-6.5639,-6.4024,-6.218,-6.0009,-5.7588,-5.5616,-5.529,-5.5214,-5.5114,-5.4762,-5.4963,-5.5139,-5.4938,-5.5064,-5.5064,-5.4637,-5.542,-5.5809,-5.5245,-5.6408,-5.7219,-5.6843,-5.8115,-5.938,-6.0419,-6.111,-6.2436,-6.4537,-6.6751,-6.8732,-7.0348,-7.1678,-7.2529,-7.2834,-7.324,-7.3274,-7.2834,-7.2394,-7.1887,-7.1312,-7.1887,-7.1853,-7.1312,-7.1616,-7.1582,-7.1312,-7.1312,-7.0528,-6.9169,-6.8355,-6.7164,-6.5938,-6.5902,-6.5817,-6.594,-6.6733,-6.6729,-6.6311,-6.4567,-6.3215,-6.2064,-6.2064,-6.3476,-6.4567,-6.4567,-6.5919,-6.6999,-6.6999,-6.6999,-6.6999,-6.6999,-6.6999,-6.6999,-6.6999,-6.6999,-6.6999,-6.6999,-6.6999,-6.6999,-6.6999,-6.6999,-6.6999,-6.6999,-6.6999,-6.6999,-6.6999,-6.6999,-6.6999,-6.6999,-6.6999,-6.6999,-6.6999,-6.6999,-6.6999,-6.6999,-6.6999,-6.6999,-6.6999,-6.6999,-6.6999,-6.6999,-6.6999,-6.6999,-6.6999,-6.6999,-6.6999,-6.6999,-6.6999,-6.6999,-6.6999,-6.6999,-6.6999,-6.6999,-6.6999,-6.6999,-6.6999,-6.6999,-6.5702,-6.3894,-6.2064,-5.8973,-5.6412,-5.6143,-5.6143,-5.6143,-5.6143,-5.6168,-5.6068,-5.5541,-5.6012,-5.6157,-5.5148,-5.692,-5.827,-5.7686,-5.8576,-5.9292,-5.9237,-6.0119,-6.0781,-6.0901,-6.2466,-6.4568,-6.7164,-6.8503,-7.0154,-7.2315,-7.2462,-7.2834,-7.3578,-7.3646,-7.3646,-7.3578,-7.3646,-7.2969,-7.1515,-7.2868,-7.2766,-7.1447,-7.209,-7.1988,-7.1312,-7.1312,-7.0574,-6.9361,-6.9265,-6.8503,-6.7343,-6.7253,-6.7231,-6.7162,-6.7063,-6.7033,-6.6792,-6.6384,-6.6106,-6.5827,-6.5827,-6.6168,-6.6384,-6.6384,-6.6723,-6.6999,-6.6999,-6.6999,-6.6999,-6.6999,-6.6999,-6.6999,-6.6999,-6.6999,-6.6999,-6.6999,-6.6999,-6.6999,-6.6999,-6.6999,-6.6999,-6.6999,-6.6999,-6.6999,-6.6999,-6.6999,-6.6999,-6.6999,-6.6999,-6.6999,-6.6999,-6.6999,-6.6999,-6.6999,-6.6999,-6.6999,-6.6999,-6.6999,-6.6999,-6.6999,-6.6999,-6.6999,-6.6999,-6.6999,-6.6999,-6.6999,-6.6999,-6.6999,-6.6999,-6.6999,-6.6999,-6.6999,-6.6999,-6.6999,-6.6999,-6.6999,-6.5702,-6.3894,-6.2064,-5.992,-5.7862,-5.6002,-5.5566,-5.5566,-5.5566,-5.5917,-5.6168,-5.6068,-5.7272,-5.8217,-5.7982,-5.9583,-6.0645,-6.0137,-6.0903,-6.1445,-6.1022,-6.1875,-6.2959,-6.3975,-6.5428,-6.6958,-6.865,-6.9073,-7.0154,-7.2315,-7.2935,-7.3578,-7.4356,-7.4931,-7.4965,-7.439,-7.4931,-7.4492,-7.3003,-7.3341,-7.3003,-7.2157,-7.2326,-7.1988,-7.1312,-7.1312,-7.1098,-7.0745,-6.9633,-6.8991,-6.8749,-6.8176,-6.7949,-6.7916,-6.728,-6.7051,-6.6848,-6.6999,-6.6999,-6.6999,-6.6999,-6.6999,-6.6999,-6.6999,-6.6999,-6.6999,-6.6999,-6.6999,-6.6999,-6.6999,-6.6999,-6.6999,-6.6999,-6.6999,-6.6999,-6.6999,-6.6999,-6.6999,-6.6999,-6.6999,-6.6999,-6.6999,-6.6999,-6.6999,-6.6999,-6.6999,-6.6999,-6.6999,-6.6999,-6.6999,-6.6999,-6.6999,-6.6999,-6.6999,-6.6999,-6.6999,-6.6999,-6.6999,-6.6999,-6.6999,-6.6999,-6.6999,-6.6999,-6.6999,-6.6999,-6.6999,-6.6999,-6.6999,-6.6999,-6.6999,-6.6999,-6.6999,-6.6999,-6.6999,-6.6999,-6.6999,-6.6322,-6.5168,-6.3346,-6.1528,-5.9424,-5.6467,-5.5792,-5.5792,-5.5792,-5.6018,-5.6219,-5.6219,-5.7707,-5.8903,-5.8903,-6.1123,-6.2774,-6.2501,-6.4002,-6.4994,-6.4725,-6.5242,-6.5701,-6.6079,-6.7317,-6.8454,-6.9169,-6.9822,-7.0829,-7.2315,-7.3105,-7.3849,-7.4593,-7.5337,-7.5506,-7.5134,-7.5506,-7.5303,-7.4525,-7.4525,-7.3984,-7.2935,-7.3308,-7.3037,-7.236,-7.236,-7.2157,-7.1774,-7.103,-7.0517,-7.0143,-6.9418,-6.9177,-6.9038,-6.8328,-6.7464,-6.6442,-6.6999,-6.6999,-6.6999,-6.6999,-6.6999,-6.6999,-6.6999,-6.7213,-6.7396,-6.7396,-6.7396,-6.7396,-6.7396,-6.7152,-6.6999,-6.6999,-6.6999,-6.6999,-6.6999,-6.6999,-6.6999,-6.6999,-6.6999,-6.6999,-6.6999,-6.6999,-6.6999,-6.6999,-6.6999,-6.6999,-6.6999,-6.6999,-6.6999,-6.6999,-6.6999,-6.6999,-6.6999,-6.6999,-6.6999,-6.6999,-6.6999,-6.6999,-6.6999,-6.6999,-6.6999,-6.6999,-6.6999,-6.6999,-6.6999,-6.6999,-6.6999,-6.6999,-6.6999,-6.6999,-6.6999,-6.6999,-6.6999,-6.6999,-6.6999,-6.6999,-6.657,-6.4758,-6.315,-6.1191,-5.7895,-5.6605,-5.6219,-5.6219,-5.6219,-5.6219,-5.6219,-5.7895,-5.9392,-5.9392,-6.2396,-6.4758,-6.4758,-6.6523,-6.7861,-6.8024,-6.8286,-6.8248,-6.7585,-6.8748,-6.9618,-6.9751,-7.0821,-7.1853,-7.2732,-7.3341,-7.4018,-7.4762,-7.5371,-7.5709,-7.5709,-7.5709,-7.5709,-7.5709,-7.5709,-7.4999,-7.3713,-7.4322,-7.4187,-7.3477,-7.3477,-7.3071,-7.2394,-7.2394,-7.1988,-7.121,-7.0614,-7.0382,-7.027,-6.9426,-6.7906,-6.6206,-6.6999,-6.6999,-6.6999,-6.6999,-6.6999,-6.6999,-6.6999,-6.8087,-6.8911,-6.8911,-6.8911,-6.8911,-6.8911,-6.7759,-6.6999,-6.6999,-6.6999,-6.6999,-6.6999,-6.6999,-6.6999,-6.6999,-6.6999,-6.6999,-6.6999,-6.6999,-6.6999,-6.6999,-6.6999,-6.6999,-6.6999,-6.6999,-6.6999,-6.6999,-6.6999,-6.6999,-6.6999,-6.6999,-6.6999,-6.6999,-6.6999,-6.6999,-6.6999,-6.6999,-6.6999,-6.6999,-6.6999,-6.6999,-6.6999,-6.6999,-6.6999,-6.6999,-6.6999,-6.6999,-6.6999,-6.6999,-6.6999,-6.6999,-6.6999,-6.6999,-6.657,-6.4758,-6.4088,-6.3411,-6.1326,-5.8437,-5.6219,-5.6219,-5.6219,-5.6219,-5.6219,-5.8973,-6.1191,-6.1191,-6.4281,-6.6661,-6.6661,-6.6461,-6.6546,-6.7147,-6.8312,-6.9074,-6.8976,-7.0216,-7.1277,-7.1929,-7.2134,-7.2868,-7.4255,-7.4424,-7.4796,-7.554,-7.5642,-7.5709,-7.5709,-7.5709,-7.5709,-7.5709,-7.5709,-7.527,-7.4458,-7.4559,-7.4187,-7.3477,-7.3477,-7.3071,-7.2394,-7.2394,-7.1988,-7.1267,-7.1153,-7.1142,-7.1005,-6.9673,-6.8251,-6.7014,-6.6999,-6.6999,-6.6999,-6.6999,-6.6999,-6.6999,-6.6999,-6.8266,-6.9201,-6.9201,-6.9916,-7.0143,-6.9317,-6.7879,-6.6999,-6.6999,-6.6999,-6.6999,-6.6999,-6.6999,-6.6999,-6.6999,-6.6999,-6.6999,-6.6999,-6.6999,-6.6999,-6.6999,-6.6999,-6.6999,-6.6999,-6.6999,-6.6999,-6.6999,-6.6999,-6.6999,-6.6999,-6.6999,-6.6999,-6.6999,-6.6999,-6.6999,-6.6999,-6.6999,-6.6999,-6.6999,-6.6999,-6.6999,-6.6999,-6.6999,-6.6999,-6.6999,-6.6999,-6.6999,-6.6999,-6.6999,-6.6999,-6.6999,-6.6999,-6.6999,-6.6785,-6.6044,-6.5042,-6.4088,-6.328,-6.1056,-5.9253,-5.9253,-5.9253,-5.9253,-5.9253,-6.1326,-6.3084,-6.3084,-6.5295,-6.6999,-6.6999,-6.7456,-6.8193,-6.9298,-7.0371,-7.0824,-7.0389,-7.0961,-7.1447,-7.1751,-7.2157,-7.2699,-7.3341,-7.4153,-7.4762,-7.51,-7.5473,-7.5709,-7.5709,-7.5709,-7.5709,-7.5709,-7.5709,-7.554,-7.5202,-7.5202,-7.5033,-7.4728,-7.4728,-7.4322,-7.3612,-7.3172,-7.2563,-7.1887,-7.1481,-7.1312,-7.1199,-7.0689,-6.9796,-6.8874]},{"header":{"parameterUnit":"m.s-1","parameterCategory":1,"la1":30.6,"la2":28.766,"lo1":-90.7593,"lo2":-88.6598,"dy":0.0162,"dx":0.0183,"nx":116,"ny":114,"refTime":"2024-06-15T12:00:00:Z","depth":0,"parameterNumber":3,"parameterNumberName":"V-component_of_WINDS"},"data":[0.0,0.0,0.0,0.0,0.0,0.0,0.0,0.0,0.0,0.0,0.0,0.0,0.0,0.0,0.0,0.0,0.0,0.0,0.0,0.0,0.0,0.0,0.0,0.0,0.0,0.0,0.0,0.0,0.0,0.0,0.0,0.0,0.0,0.0,0.0,0.0,0.0,0.0,0.0,0.0,0.0,0.0,0.0,0.0,0.0,0.0,0.0,0.0,0.0,0.0,0.0,0.0,0.0,0.0,0.0,0.0,0.0,0.0,0.0,0.0,0.0,0.0,0.0,0.0,0.0,0.0,0.0,0.0,0.0,0.0,0.0,0.0,0.0,0.0,0.0,0.0,0.0,0.0,0.0,0.0,0.0,0.0,0.0,0.0,0.0,0.0,0.0,0.0,0.0,0.0,0.0,0.0,0.0,0.0,0.0,0.0,0.0,0.0,0.0,0.0,0.0,0.0,0.0,0.0,0.0,0.0,0.0,0.0,0.0,0.0,0.0,0.0,0.0,0.0,0.0,0.0,0.0,0.0,0.0,0.0,0.0,0.0,0.0,0.0,0.0,0.0,0.0,0.0,0.0,0.0,0.0,0.0,0.0,0.0,0.0,0.0,0.0,0.0,0.0,0.0,0.0,0.0,0.0,0.0,0.0,0.0,0.0,0.0,0.0,0.0,0.0,0.0,0.0,0.0,0.0,0.0,0.0,0.0,0.0,0.0,0.0,0.0,0.0,0.0,0.0,0.0,0.0,0.0,0.0,0.0,0.0,0.0,0.0,0.0,0.0,0.0,0.0,0.0,0.0,0.0,0.0,0.0,0.0,0.0,0.0,0.0,0.0,0.0,0.0,0.0,0.0,0.0,0.0,0.0,0.0,0.0,0.0,0.0,0.0,0.0,0.0,0.0,0.0,0.0,0.0,0.0,0.0,0.0,0.0,0.0,0.0,0.0,0.0,0.0,0.0,0.0,0.0,0.0,0.0,0.0,0.0,0.0,0.0,0.0,0.0,0.0,0.0,0.0,0.0,0.0,0.0,0.0,0.0,0.0,0.0,0.0,0.0,0.0,0.0,0.0,0.0,0.0,0.0,0.0,0.0,0.0,0.0,0.0,0.0,0.0,0.0,0.0,0.0,0.0,0.0,0.0,0.0,0.0,0.0,0.0,0.0,0.0,0.0,0.0,0.0,0.0,0.0,0.0,0.0,0.0,0.0,0.0,0.0,0.0,0.0,0.0,0.0,0.0,0.0,0.0,0.0,0.0,0.0,0.0,0.0,0.0,0.0,0.0,0.0,0.0,0.0,0.0,0.0,0.0,0.0,0.0,0.0,0.0,0.0,0.0,0.0,0.0,0.0,0.0,0.0,0.0,0.0,0.0,0.0,0.0,0.0,0.0,0.0,0.0,0.0,0.0,0.0,0.0,0.0,0.0,0.0,0.0,0.0,0.0,0.0,0.0,0.0,0.0,0.0,0.0,0.0,0.0,0.0,0.0,0.0,0.0,0.0,0.0,0.0,0.0,0.0,0.0,0.0,0.0,0.0,0.0,0.0,0.0,0.0,0.0,0.0,0.0,0.0,0.0,0.0,0.0,0.0,0.0,0.0,0.0,0.0,0.0,0.0,0.0,0.0,0.0,0.0,0.0,0.0,0.0,0.0,0.0,0.0,0.0,0.0,0.0,0.0,0.0,0.0,0.0,0.0,0.0,0.0,0.0,0.0,0.0,0.0,0.0,0.0,0.0,0.0,0.0,0.0,0.0,0.0,0.0,0.0,0.0,0.0,0.0,0.0,0.0,0.0,0.0,0.0,0.0,0.0,0.0,0.0,0.0,0.0,0.0,0.0,0.0,0.0,0.0,0.0,0.0,0.0,0.0,0.0,0.0,0.0,0.0,0.0,0.0,0.0,0.0,0.0,0.0,0.0,0.0,0.0,0.0,0.0,0.0,0.0,0.0,0.0,0.0,0.0,0.0,0.0,0.0,0.0,0.0,0.0,0.0,0.0,0.0,0.0,0.0,0.0,0.0,0.0,0.0,0.0,0.0,0.0,0.0,0.0,0.0,0.0,0.0,0.0,0.0,0.0,0.0,0.0,0.0,0.0,0.0,0.0,0.0,0.0,0.0,0.0,0.0,0.0,0.0,0.0,0.0,0.0,0.0,0.0,0.0,0.0,0.0,0.0,0.0,0.0,0.0,0.0,0.0,0.0,0.0,0.0,0.0,0.0,0.0,0.0,0.0,0.0,0.0,0.0,0.0,0.0,0.0,0.0,0.0,0.0,0.0,0.0,0.0,0.0,0.0,0.0,0.0,0.0,0.0,0.0,0.0,0.0,0.0,0.0,0.0,0.0,0.0,0.0,0.0,0.0,0.0,0.0,0.0,0.0,0.0,0.0,0.0,0.0,0.0,0.0,0.0,0.0,0.0,0.0,0.0,0.0,0.0,0.0,0.0,0.0,0.0,0.0,0.0,0.0,0.0,0.0,0.0,0.0,0.0,0.0,0.0,0.0,0.0,0.0,0.0,0.0,0.0,0.0,0.0,0.0,0.0,0.0,0.0,0.0,0.0,0.0,0.0,0.0,0.0,0.0,0.0,0.0,0.0,0.0,0.0,0.0,0.0,0.0,0.0,0.0,0.0,0.0,0.0,0.0,0.0,0.0,0.0,0.0,0.0,0.0,0.0,0.0,0.0,0.0,0.0,0.0,0.0,0.0,0.0,0.0,0.0,0.0,0.0,0.0,0.0,0.0,0.0,0.0,0.0,0.0,0.0,0.0,0.0,0.0,0.0,0.0,0.0,0.0,0.0,0.0,0.0,0.0,0.0,0.0,0.0,0.0,0.0,0.0,0.0,0.0,0.0,0.0,0.0,0.0,0.0,0.0,0.0,0.0,0.0,0.0,0.0,0.0,0.0,0.0,0.0,0.0,0.0,0.0,0.0,0.0,0.0,0.0,0.0,0.0,0.0,0.0,0.0,0.0,0.0,0.0,0.0,0.0,0.0,0.0,0.0,0.0,0.0,0.0,0.0,0.0,0.0,0.0,0.0,0.0,0.0,0.0,0.0,0.0,0.0,0.0,0.0,0.0,0.0,0.0,0.0,0.0,0.0,0.0,0.0,0.0,0.0,0.0,0.0,0.0,0.0,0.0,0.0,0.0,0.0,0.0,0.0,0.0,0.0,0.0,0.0,0.0,0.0,0.0,0.0,0.0,0.0,0.0,0.0,0.0,0.0,0.0,0.0,0.0,0.0,0.0,0.0,0.0,0.0,0.0,0.0,0.0,0.0,0.0,0.0,0.0,0.0,0.0,0.0,0.0,0.0,0.0,0.0,0.0,0.0,0.0,0.0,0.0,0.0,0.0,0.0,0.0,0.0,0.0,0.0,0.0,0.0,0.0,0.0,0.0,0.0,0.0,0.0,0.0,0.0,0.0,0.0,0.0,0.0,0.0,0.0,0.0,0.0,0.0,0.0,0.0,0.0,0.0,0.0,0.0,0.0,0.0,0.0,0.0,0.0,0.0,0.0,0.0,0.0,0.0,0.0,0.0,0.0,0.0,0.0,0.0,0.0,0.0,0.0,0.0,0.0,0.0,0.0,0.0,0.0,0.0,0.0,0.0,0.0,0.0,0.0,0.0,0.0,0.0,0.0,0.0,0.0,0.0,0.0,0.0,0.0,0.0,0.0,0.0,0.0,0.0,0.0,0.0,0.0,0.0,0.0,0.0,0.0,0.0,0.0,0.0,0.0,0.0,0.0,0.0,0.0,0.0,0.0,0.0,0.0,0.0,0.0,0.0,0.0,0.0,0.0,0.0,0.0,0.0,0.0,0.0,0.0,0.0,0.0,0.0,0.0,0.0,0.0,0.0,0.0,0.0,0.0,0.0,0.0,0.0,0.0,0.0,0.0,0.0,0.0,0.0,0.0,0.0,0.0,0.0,0.0,0.0,0.0,0.0,0.0,0.0,0.0,0.0,0.0,0.0,0.0,0.0,0.0,0.0,0.0,0.0,0.0,0.0,0.0,0.0,0.0,0.0,0.0,0.0,0.0,0.0,0.0,0.0,0.0,0.0,0.0,0.0,0.0,0.0,0.0,0.0,0.0,0.0,0.0,0.0,0.0,0.0,0.0,0.0,0.0,0.0,0.0,0.0,0.0,0.0,0.0,0.0,0.0,0.0,0.0,0.0,0.0,0.0,0.0,0.0,0.0,0.0,0.0,0.0,0.0,0.0,0.0,0.0,0.0,0.0,0.0,0.0,0.0,0.0,0.0,0.0,0.0,0.0,0.0,0.0,0.0,0.0,0.0,0.0,0.0,0.0,0.0,0.0,0.0,0.0,0.0,0.0,0.0,0.0,0.0,0.0,0.0,0.0,0.0,0.0,0.0,0.0,0.0,0.0,0.0,0.0,0.0,0.0,0.0,0.0,0.0,0.0,0.0,0.0,0.0,0.0,0.0,0.0,0.0,0.0,0.0,0.0,0.0,0.0,0.0,0.0,0.0,0.0,0.0,0.0,0.0,0.0,0.0,0.0,0.0,0.0,0.0,0.0,0.0,0.0,0.0,0.0,0.0,0.0,0.0,0.0,0.0,0.0,0.0,0.0,0.0,0.0,0.0,0.0,0.0,0.0,0.0,0.0,0.0,0.0,0.0,0.0,0.0,0.0,0.0,0.0,0.0,0.0,0.0,0.0,0.0,0.0,0.0,0.0,0.0,0.0,0.0,0.0,0.0,0.0,0.0,0.0,0.0,0.0,0.0,0.0,0.0,0.0,0.0,0.0,0.0,0.0,0.0,0.0,0.0,0.0,0.0,0.0,0.0,0.0,0.0,0.0,0.0,0.0,0.0,0.0,0.0,0.0,0.0,0.0,0.0,0.0,0.0,0.0,0.0,0.0,0.0,0.0,0.0,0.0,0.0,0.0,0.0,0.0,0.0,0.0,0.0,0.0,0.0,0.0,0.0,0.0,0.0,0.0,0.0,0.0,0.0,0.0,0.0,0.0,0.0,0.0,0.0,0.0,0.0,0.0,0.0,0.0,0.0,0.0,0.0,0.0,0.0,0.0,0.0,0.0,0.0,0.0,0.0,0.0,0.0,0.0,0.0,0.0,0.0,0.0,0.0,0.0,0.0,0.0,0.0,0.0,0.0,0.0,0.0,0.0,0.0,0.0,0.0,0.0,0.0,0.0,0.0,0.0,0.0,0.0,0.0,0.0,0.0,0.0,0.0,0.0,0.0,0.0,0.0,0.0,0.0,0.0,0.0,0.0,0.0,0.0,0.0,0.0,0.0,0.0,0.0,0.0,0.0,0.0,0.0,0.0,0.0,0.0,0.0,0.0,0.0,0.0,0.0,0.0,0.0,0.0,0.0,0.0,0.0,0.0,0.0,0.0,0.0,0.0,0.0,0.0,0.0,0.0,0.0,0.0,0.0,0.0,0.0,0.0,0.0,0.0,0.0,0.0,0.0,0.0,0.0,0.0,0.0,0.0,0.0,0.0,0.0,0.0,0.0,0.0,0.0,0.0,0.0,0.0,0.0,0.0,0.0,0.0,0.0,0.0,0.0,0.0,0.0,0.0,0.0,0.0,0.0,0.0,0.0,0.0,0.0,0.0,0.0,0.0,0.0,0.0,0.0,0.0,0.0,0.0,0.0,0.0,0.0,0.0,0.0,0.0,0.0,0.0,0.0,0.0,0.0,0.0,0.0,0.0,0.0,0.0,0.0,0.0,0.0,0.0,0.0,0.0,0.0,0.0,0.0,0.0,0.0,0.0,0.0,0.0,0.0,0.0,0.0,0.0,0.0,0.0,0.0,0.0,0.0,0.0,0.0,0.0,0.0,0.0,0.0,0.0,0.0,0.0,0.0,0.0,0.0,0.0,0.0,0.0,0.0,0.0,0.0,0.0,0.0,0.0,0.0,0.0,0.0,0.0,0.0,0.0,0.0,0.0,0.0,0.0,0.0,0.0,0.0,0.0,0.0,0.0,0.0,0.0,0.0,0.0,0.0,0.0,0.0,0.0,0.0,0.0,0.0,0.0,0.0,0.0,0.0,0.0,0.0,0.0,0.0,0.0,0.0,0.0,0.0,0.0,0.0,0.0,0.0,0.0,0.0,0.0,0.0,0.0,0.0,4.6591,0.0,0.0,0.0,0.0,0.0,0.0,0.0,0.0,0.0,0.0,0.0,0.0,0.0,0.0,0.0,0.0,0.0,0.0,0.0,0.0,0.0,0.0,0.0,0.0,4.141,4.2437,4.4755,4.3647,4.337,4.4706,0.0,0.0,0.0,0.0,0.0,3.6889,3.5755,3.5168,3.5123,3.428,3.4148,3.4675,3.4399,3.4831,3.5942,0.0,0.0,0.0,0.0,0.0,0.0,0.0,0.0,0.0,0.0,0.0,0.0,0.0,0.0,0.0,0.0,0.0,0.0,0.0,0.0,0.0,0.0,0.0,0.0,0.0,0.0,0.0,0.0,0.0,0.0,0.0,0.0,0.0,0.0,0.0,0.0,0.0,0.0,0.0,0.0,0.0,0.0,0.0,0.0,0.0,0.0,0.0,0.0,0.0,0.0,0.0,0.0,0.0,0.0,0.0,0.0,0.0,0.0,0.0,0.0,0.0,0.0,0.0,0.0,0.0,0.0,0.0,0.0,0.0,0.0,0.0,4.8716,0.0,0.0,0.0,0.0,0.0,0.0,0.0,0.0,0.0,0.0,0.0,0.0,0.0,0.0,0.0,0.0,0.0,0.0,0.0,0.0,0.0,4.0628,4.2012,4.2624,4.3871,4.622,4.4825,4.4167,4.4968,4.409,0.0,0.0,0.0,4.0498,3.8824,3.754,3.712,3.7439,3.5871,3.5382,3.5934,3.6088,3.6515,3.7196,3.8506,0.0,0.0,0.0,0.0,0.0,0.0,0.0,0.0,0.0,0.0,0.0,0.0,0.0,0.0,0.0,0.0,0.0,0.0,0.0,0.0,0.0,0.0,0.0,0.0,0.0,0.0,0.0,0.0,0.0,0.0,0.0,0.0,0.0,0.0,0.0,0.0,0.0,0.0,0.0,0.0,0.0,0.0,0.0,0.0,0.0,0.0,0.0,0.0,0.0,0.0,0.0,0.0,0.0,0.0,0.0,0.0,0.0,0.0,0.0,0.0,0.0,0.0,0.0,5.5299,5.5688,5.6226,5.6226,5.6585,5.7064,5.4311,5.3264,5.3354,5.1126,0.0,0.0,0.0,0.0,0.0,0.0,0.0,0.0,0.0,0.0,0.0,0.0,0.0,0.0,0.0,0.0,0.0,0.0,0.0,4.1377,4.2818,4.3524,4.4873,4.7209,4.6419,4.5854,4.5996,4.5153,0.0,4.3021,4.2981,4.2372,4.1162,3.9536,3.845,3.8002,3.7224,3.7136,3.7663,3.8303,3.9149,4.0087,3.8859,3.9103,4.0341,0.0,0.0,0.0,0.0,0.0,0.0,0.0,0.0,0.0,0.0,0.0,0.0,0.0,0.0,0.0,0.0,0.0,0.0,0.0,0.0,0.0,0.0,0.0,0.0,0.0,0.0,0.0,0.0,0.0,0.0,0.0,0.0,0.0,0.0,0.0,0.0,0.0,0.0,0.0,0.0,0.0,4.873,4.8865,0.0,0.0,0.0,0.0,0.0,0.0,0.0,0.0,0.0,0.0,0.0,0.0,0.0,5.5867,5.6585,5.7752,5.8381,5.8471,5.9638,6.0236,6.0326,6.0326,6.0685,6.1283,6.0864,0.0,5.485,5.3952,0.0,0.0,0.0,0.0,0.0,0.0,0.0,0.0,0.0,0.0,0.0,0.0,0.0,0.0,0.0,0.0,0.0,0.0,0.0,0.0,0.0,4.4843,4.6422,4.8789,4.805,4.7484,4.7586,4.6202,4.5063,4.4197,4.3576,4.3239,4.3119,4.1057,3.9339,3.8053,3.912,3.9631,3.9602,4.093,4.166,4.1827,4.1724,4.2168,4.2945,4.2746,0.0,0.0,0.0,0.0,0.0,0.0,0.0,0.0,0.0,0.0,0.0,0.0,0.0,0.0,0.0,0.0,0.0,0.0,0.0,0.0,0.0,0.0,0.0,0.0,0.0,0.0,0.0,0.0,0.0,0.0,0.0,0.0,0.0,0.0,0.0,0.0,0.0,0.0,0.0,4.8416,4.9823,4.9823,5.0451,5.0481,0.0,0.0,0.0,0.0,0.0,0.0,0.0,0.0,0.0,5.8321,5.874,5.9428,6.0446,6.1044,6.1523,6.1852,6.245,6.2929,6.3318,6.3318,6.3468,6.3737,6.3737,6.2181,5.9488,5.7693,5.5448,5.3103,0.0,0.0,0.0,0.0,4.875,4.8681,0.0,0.0,0.0,0.0,0.0,0.0,0.0,0.0,0.0,0.0,0.0,0.0,4.4987,4.6347,4.7992,5.0173,4.9621,4.9001,4.8726,4.7189,4.5834,4.4843,4.3849,4.3529,4.4007,4.1966,4.0199,3.8734,4.0673,4.138,4.1055,4.3046,4.3771,4.3444,4.4608,4.527,4.5405,4.4623,4.4301,4.4147,0.0,0.0,0.0,0.0,0.0,0.0,0.0,0.0,0.0,0.0,0.0,0.0,0.0,0.0,0.0,0.0,0.0,0.0,0.0,0.0,0.0,0.0,0.0,0.0,0.0,0.0,0.0,0.0,0.0,0.0,0.0,0.0,0.0,0.0,0.0,0.0,0.0,5.0361,5.1332,5.0973,5.2456,5.2695,0.0,0.0,0.0,0.0,0.0,0.0,5.7603,5.8291,5.9548,6.1553,6.2091,6.2929,6.4066,6.3917,6.4126,6.4755,6.4425,6.4725,6.5533,6.5353,6.5383,6.5533,6.5533,6.4874,6.3617,6.0954,5.859,5.6555,5.5388,5.4431,5.3614,5.3032,5.2763,5.2784,0.0,0.0,0.0,0.0,0.0,0.0,0.0,0.0,0.0,0.0,0.0,4.4215,4.6447,4.8007,4.9463,5.0982,5.1086,5.0391,4.8793,4.7796,4.6507,4.488,4.3849,4.3319,4.3349,4.2106,4.1191,4.0645,4.1301,4.1591,4.1614,4.4135,4.5298,4.5314,4.6579,4.6849,4.6337,4.5294,4.5538,4.6413,4.4215,0.0,0.0,0.0,0.0,0.0,0.0,0.0,0.0,0.0,0.0,0.0,0.0,0.0,0.0,0.0,0.0,0.0,0.0,0.0,0.0,0.0,0.0,0.0,0.0,0.0,0.0,0.0,0.0,0.0,0.0,0.0,0.0,0.0,0.0,0.0,0.0,0.0,0.0,5.3174,5.5299,0.0,0.0,0.0,0.0,5.6795,5.8112,5.9727,6.1702,6.2421,6.3677,6.5652,6.5742,6.6101,6.6789,6.6161,6.6191,6.6819,6.5562,6.5652,6.6879,6.6251,6.6311,6.6879,6.6879,6.649,6.5652,6.3019,6.0386,5.7962,5.7244,5.6196,5.5239,5.6384,5.678,5.6802,0.0,0.0,0.0,0.0,0.0,3.87,3.991,4.0493,4.1078,4.1734,4.3597,4.5463,4.7168,4.9188,5.0796,5.1825,5.1928,5.1459,5.0357,4.8442,4.6989,4.6365,4.4808,4.3979,4.4019,4.3999,4.3138,4.1301,4.3156,4.3646,4.2882,4.5434,4.6638,4.6638,4.7106,4.7946,4.8909,4.7548,4.7089,4.7133,4.6043,4.4688,0.0,0.0,0.0,0.0,0.0,0.0,0.0,0.0,0.0,0.0,0.0,0.0,0.0,0.0,0.0,0.0,0.0,0.0,0.0,0.0,0.0,0.0,0.0,0.0,0.0,0.0,0.0,0.0,0.0,0.0,0.0,0.0,0.0,0.0,0.0,0.0,0.0,5.6466,5.871,0.0,5.7543,5.856,5.9608,6.0266,6.1523,6.2929,6.4545,6.4844,6.5473,6.661,6.664,6.6759,6.6999,6.6759,6.6759,6.6999,6.652,6.655,6.6969,6.6759,6.6759,6.6999,6.6999,6.661,6.5951,6.4994,6.3318,6.1283,6.1044,6.0146,5.9069,5.9518,5.9668,5.9703,0.0,0.0,0.0,0.0,3.7922,3.8396,3.9876,4.073,4.1657,4.2826,4.4729,4.669,4.8661,5.0489,5.189,5.2636,5.2469,5.1995,5.1219,4.8746,4.7169,4.6873,4.5217,4.4543,4.504,4.5049,4.4337,4.2882,4.4581,4.4978,4.421,4.6299,4.7309,4.7309,4.7309,4.824,4.9828,4.9146,4.8842,4.8695,4.813,4.7022,4.5635,0.0,0.0,0.0,0.0,0.0,0.0,0.0,0.0,0.0,0.0,0.0,0.0,0.0,0.0,0.0,0.0,0.0,0.0,0.0,0.0,0.0,0.0,0.0,0.0,0.0,0.0,0.0,0.0,0.0,0.0,0.0,0.0,0.0,0.0,5.7543,5.9548,5.886,6.1313,6.2301,6.0326,6.1732,6.2959,6.3378,6.4605,6.5742,6.664,6.6879,6.7208,6.7657,6.7657,6.7657,6.7657,6.7448,6.7328,6.7328,6.7089,6.7274,6.7698,6.7213,6.7274,6.7698,6.7213,6.6759,6.634,6.634,6.5443,6.4036,6.3827,6.3049,6.2091,6.2091,6.1972,6.1676,0.0,0.0,0.0,3.757,3.7865,3.8372,3.9876,4.073,4.2023,4.4183,4.5822,4.7889,5.0853,5.1864,5.264,5.3381,5.2739,5.196,5.1217,4.8748,4.6981,4.6234,4.5102,4.5005,4.6279,4.5142,4.4784,4.5389,4.5434,4.5434,4.5434,4.6682,4.7309,4.7309,4.7309,4.7892,4.8891,4.997,5.0739,5.1217,5.0473,4.9289,4.7906,0.0,0.0,0.0,0.0,0.0,0.0,0.0,0.0,0.0,0.0,0.0,0.0,0.0,0.0,0.0,0.0,0.0,0.0,0.0,0.0,0.0,0.0,0.0,0.0,0.0,0.0,0.0,0.0,0.0,0.0,0.0,0.0,0.0,5.7513,5.9548,6.0984,6.0356,6.3109,6.4336,6.245,6.4575,6.6071,6.6101,6.7298,6.8016,6.8016,6.8645,6.9004,6.9004,6.9004,6.9004,6.9004,6.8315,6.8019,6.8081,6.736,6.7819,6.9201,6.7759,6.7939,6.9201,6.7759,6.7152,6.7152,6.7152,6.6792,6.6072,6.5323,6.4635,6.4036,6.4036,6.3647,6.2816,0.0,0.0,3.4783,3.6763,3.7095,3.7778,3.98,4.117,4.2552,4.4097,4.6599,4.8972,5.0717,5.2147,5.2881,5.2666,5.1924,5.1199,5.0437,4.8597,4.7235,4.6597,4.7194,4.7402,4.701,4.6707,4.6123,4.5389,4.6344,4.6299,4.5434,4.6682,4.7309,4.7309,4.7309,4.8282,4.997,5.0281,5.1365,5.2807,5.1995,5.115,5.0204,0.0,0.0,0.0,0.0,0.0,0.0,0.0,0.0,0.0,0.0,0.0,0.0,0.0,0.0,0.0,0.0,0.0,0.0,0.0,0.0,0.0,0.0,0.0,0.0,0.0,0.0,0.0,0.0,0.0,0.0,0.0,6.0661,6.1409,6.0816,6.257,6.4066,6.4336,6.5592,6.643,6.637,6.6999,6.7627,6.8136,6.8525,6.8704,6.8704,6.8884,6.9004,6.9004,6.9004,6.9004,6.9004,6.8315,6.8544,6.9603,6.8928,6.9375,7.0783,7.0368,7.0424,7.0783,7.0368,7.0199,7.0199,7.0199,7.0073,6.9628,6.6818,6.5323,6.4755,6.4755,6.4306,6.3473,0.0,3.3143,3.4169,3.6007,3.6605,3.7408,3.9324,4.1122,4.28,4.4155,4.6734,4.8982,5.0297,5.1615,5.2107,5.1447,5.1291,5.0769,4.9692,4.8628,4.8007,4.7844,4.8616,4.8693,4.7946,4.7904,4.7469,4.662,4.705,4.705,4.6591,4.7094,4.7309,4.7309,4.7722,4.8841,5.0435,5.0855,5.199,5.345,5.2976,5.257,5.2097,5.1319,5.0473,4.9661,4.9052,4.8545,4.8139,4.7834,0.0,0.0,0.0,0.0,0.0,0.0,0.0,0.0,0.0,0.0,0.0,0.0,0.0,0.0,0.0,0.0,0.0,0.0,0.0,0.0,0.0,0.0,0.0,0.0,6.4752,6.5107,6.5067,6.5499,6.6101,6.6759,6.7418,6.7986,6.8375,6.8405,6.8555,6.8974,6.9243,6.9423,6.9423,6.9662,6.9812,6.9812,6.9812,6.9812,6.9812,6.9153,6.9456,7.0627,6.9945,7.0564,7.2302,7.1659,7.1713,7.2282,7.1659,7.1388,7.1388,7.1388,7.1388,0.0,0.0,0.0,0.0,0.0,6.4336,6.3829,0.0,3.301,3.3932,3.5445,3.6238,3.7196,3.8683,4.0702,4.26,4.4168,4.6231,4.8112,4.9562,5.0459,5.069,5.0014,5.0634,5.0568,4.9323,4.9159,4.9241,4.9544,4.9668,4.9458,4.9013,4.8973,4.8778,4.8367,4.7752,4.7709,4.8147,4.7578,4.7309,4.7352,4.8335,4.9376,5.0474,5.1549,5.2589,5.3518,5.3585,5.3585,5.3416,5.2706,5.2435,5.2266,5.0947,5.0473,5.0371,4.9729,0.0,0.0,0.0,0.0,0.0,0.0,0.0,0.0,0.0,0.0,0.0,0.0,0.0,0.0,0.0,0.0,0.0,0.0,0.0,0.0,0.0,0.0,0.0,0.0,6.8881,6.9387,6.9511,6.8302,6.7478,6.7926,6.8525,6.8944,6.9093,6.9123,6.9153,6.9213,6.9752,7.0081,7.0081,0.0,0.0,0.0,0.0,7.0889,7.0889,7.0231,7.0333,7.128,7.068,7.1529,7.3665,7.2473,7.2599,7.377,7.2461,7.1875,7.1875,7.1875,7.1767,7.1529,7.0029,6.9116,6.8262,6.5748,6.4595,6.4298,0.0,3.2272,3.3325,3.5291,3.5743,3.6543,3.8586,3.983,4.1258,4.3272,4.4981,4.6577,4.7995,4.8872,4.9293,4.913,4.9804,5.0403,5.0742,5.1291,5.1261,5.0552,5.1074,5.1025,5.0126,5.0087,4.9638,4.8727,4.8573,4.8175,4.7489,4.7369,4.7309,4.7352,4.8335,4.9376,5.0506,5.2109,5.309,5.3551,5.416,5.4025,5.3484,5.3348,5.3281,5.3247,5.2942,5.2841,5.2807,5.2672,5.2198,5.1657,5.1657,5.1251,0.0,0.0,0.0,0.0,0.0,0.0,0.0,0.0,0.0,0.0,0.0,0.0,0.0,0.0,0.0,0.0,0.0,0.0,0.0,7.0377,7.0743,7.1041,7.168,7.0431,6.9034,6.8076,6.8076,6.8615,6.9692,6.9782,6.9991,7.05,7.0649,7.0739,7.0739,7.0829,7.0889,7.0889,7.0889,7.0889,7.0889,6.9782,7.0121,7.1901,0.0,0.0,7.4338,7.4722,7.4981,7.5258,7.4981,7.4884,7.4884,7.4884,7.4206,7.2998,7.1583,7.0885,7.0726,7.0165,6.8545,6.6545,3.2796,3.3006,3.3427,3.479,3.5338,3.6209,3.8092,3.9373,4.0564,4.197,4.3856,4.5329,4.598,4.6788,4.7319,4.7317,4.8323,4.9752,5.1656,5.2097,5.2269,5.2164,5.2497,5.2205,5.1155,5.1155,5.0788,5.0079,4.9773,4.9524,4.9368,4.9027,4.8872,4.8882,4.9931,5.0665,5.1225,5.2674,5.3344,5.3551,5.389,5.3822,5.3518,5.3518,5.3518,5.3518,5.3518,5.3518,5.3518,5.3518,5.3247,5.2909,5.2909,5.2672,5.2266,0.0,0.0,0.0,0.0,0.0,0.0,0.0,0.0,0.0,0.0,0.0,0.0,0.0,0.0,6.4624,6.649,0.0,6.9648,7.1555,7.1509,7.1331,7.1735,7.0465,6.9363,6.9034,6.9243,6.9692,7.038,7.044,7.056,7.0889,7.0889,7.0889,7.0889,7.1665,7.2078,7.2078,7.283,7.2892,7.2078,7.1438,7.1353,7.1651,7.2135,7.2962,7.406,7.5231,7.5709,7.5709,7.5709,7.5709,7.5709,7.5709,7.5291,7.4588,7.382,7.2704,7.1356,7.1026,6.974,6.8115,3.4174,3.4299,3.424,3.4593,3.5278,3.6249,3.7581,3.8991,4.0144,4.0927,4.2847,4.4158,4.4215,4.4955,4.5669,4.6109,4.7496,4.9458,5.2131,5.2469,5.2807,5.3484,5.3518,5.311,5.2241,5.2205,5.1999,5.1495,5.0954,5.0878,5.119,5.0653,5.0397,5.0435,5.1451,5.1921,5.199,5.3344,5.3754,5.3518,5.3822,5.3754,5.3518,5.3518,5.3518,5.3518,5.3518,5.3518,5.3518,5.3518,5.3518,5.3518,5.3518,5.3518,5.3416,5.2909,5.3112,0.0,0.0,0.0,0.0,0.0,0.0,0.0,0.0,6.2144,6.3383,6.5463,6.6135,6.6959,6.9125,6.9672,7.0435,7.2269,7.1876,7.1373,7.1373,7.0186,6.9572,7.0081,7.05,7.0769,7.0889,7.0889,7.0889,7.0889,7.1009,7.1038,7.0919,7.2578,7.3416,7.3261,7.4762,7.4998,7.3749,7.3624,7.3,7.1877,7.3161,7.3782,7.3815,7.5265,7.5845,7.5709,7.5709,7.5709,7.5709,7.5709,7.5709,7.5709,7.5709,7.4306,7.2184,7.1654,7.0764,6.972,0.0,3.546,3.6075,3.5499,3.6011,3.678,3.7674,3.8507,3.9547,4.0995,4.1963,4.2801,4.3434,4.4226,4.55,4.7466,4.9018,5.0541,5.2198,5.2976,5.3416,5.3518,5.3518,5.3416,5.3314,5.3314,5.2834,5.1838,5.1773,5.1299,5.0525,5.0461,5.0397,5.0435,5.1451,5.1921,5.2056,5.4418,5.4702,5.3619,5.4938,5.4668,5.3518,5.3518,5.3518,5.3518,5.3518,5.3518,5.3518,5.3518,5.3518,5.3518,5.3518,5.3518,5.3619,5.416,5.3923,5.389,5.5683,5.7442,5.9268,6.1366,6.2009,6.3497,0.0,6.9045,6.8661,7.0214,7.1556,7.2102,7.1167,7.1973,7.294,7.3163,7.2508,7.1994,7.1994,7.1248,7.0709,7.0799,7.038,7.029,7.0859,7.0889,7.0889,7.0889,7.1457,7.1517,7.0949,7.2913,7.385,7.323,7.4762,7.5522,7.5348,7.4742,7.4359,7.4142,7.506,7.5122,7.4437,7.6021,7.6386,7.5709,7.5709,7.5709,7.5709,7.5709,7.5709,7.5709,7.5709,7.5484,7.5209,7.5108,7.3889,7.2097,0.0,3.6316,3.7205,3.6906,3.7086,3.7557,3.833,3.869,3.9253,4.0313,4.1144,4.1923,4.2622,4.3827,4.5128,4.6515,4.8376,5.0101,5.1555,5.2807,5.3684,5.4139,5.4139,5.4328,5.4791,5.4791,5.4353,5.348,5.348,5.3044,5.2238,5.2636,5.2834,5.2904,5.3728,5.4107,5.4176,5.5237,5.5344,5.4803,5.4972,5.4702,5.4093,5.3653,5.3518,5.3518,5.3518,5.3518,0.0,5.3518,5.3518,5.3518,5.3518,5.3518,5.3551,5.3856,5.4668,5.619,5.9742,6.1163,6.2178,6.441,6.5967,6.759,7.0094,7.0838,7.1219,7.1788,7.2059,7.1864,7.0816,7.1052,7.1475,7.1844,7.1962,7.2007,7.2007,7.1401,7.0769,7.041,7.044,7.062,7.0889,7.0889,7.1068,7.1457,7.2641,7.3369,7.3461,7.5719,7.685,7.656,7.7697,7.7828,7.6971,7.6678,7.5844,7.4612,7.5767,7.5316,7.3426,7.4944,7.5189,7.4456,7.4456,7.4932,7.5709,7.5709,7.5709,7.5709,7.5709,7.5709,7.5709,7.5709,7.4868,7.3566,0.0,3.6794,3.785,3.8072,3.8306,3.8525,3.8854,3.9196,3.958,3.9906,4.0819,4.1711,4.2446,4.3569,4.4654,4.5635,4.753,4.9323,5.0811,5.2334,5.3611,5.4541,5.4606,5.4969,5.5695,5.5724,5.5437,5.4909,5.4695,5.4328,5.3816,5.4364,5.46,5.4634,5.5378,5.5681,5.5681,5.5919,5.5784,5.5378,5.504,5.4496,5.3816,5.3585,5.301,5.2465,5.3247,5.3518,5.345,5.2943,5.2908,5.3042,5.2841,5.2908,5.3177,5.3923,5.5683,5.8186,6.1637,6.3193,6.441,6.6846,6.9147,7.0906,7.1312,7.2394,7.3171,7.2796,7.2161,7.1402,7.0583,7.037,7.044,7.1068,7.1727,7.2116,7.1906,7.1308,7.0739,7.029,7.047,7.0709,7.0889,7.0889,7.1353,7.2504,7.3873,7.5029,7.5962,7.8305,7.9419,7.9024,7.9961,7.9885,7.8538,7.8505,7.7627,7.5842,7.7132,7.6419,7.404,7.4458,7.4515,7.4156,7.377,7.4406,7.5709,7.5709,7.5709,7.5709,7.5709,7.5709,7.5709,7.5709,7.5371,7.4654,0.0,0.0,3.8038,3.8722,3.9532,3.9765,3.9016,4.0018,4.0638,4.0163,4.1248,4.2402,4.3261,4.3409,4.4045,4.5568,4.709,4.8578,5.0033,5.1522,5.2997,5.4541,5.4606,5.4969,5.5695,5.5724,5.5695,5.5695,5.4969,5.4606,5.4575,5.4565,5.46,5.4634,5.5378,5.5681,5.5749,5.6461,5.5953,5.4668,5.5412,5.4176,5.2098,5.311,5.1846,4.9849,5.2533,5.3518,5.3247,5.1552,5.1435,5.1825,5.1171,5.1435,5.2434,5.4895,5.7205,5.9133,5.9979,6.2347,6.529,6.8267,7.0703,7.2699,7.4153,7.5067,7.5239,7.3838,7.2907,7.2133,7.1298,7.104,7.1098,7.1757,7.2445,7.2654,7.1966,7.1308,7.0889,7.0889,7.035,7.026,7.0829,7.0889,7.1839,7.4128,7.4873,7.5962,7.76,7.9855,8.0419,7.9024,8.0483,8.0919,8.0158,8.0124,7.9736,7.8942,7.9702,7.9263,7.7761,7.5635,7.5055,7.5532,7.4206,7.4406,7.5709,7.5709,7.5709,7.5709,7.5709,7.5709,7.5709,7.5709,7.5676,7.5574,0.0,0.0,0.0,3.8776,3.9584,4.0154,4.0217,4.0603,4.1186,4.1939,4.296,0.0,0.0,0.0,0.0,0.0,4.6616,4.78,4.9255,5.0744,5.2466,5.4512,5.5068,5.592,5.718,5.7241,5.6978,5.651,5.5695,5.5054,5.4606,5.4598,5.46,5.4634,5.5886,5.6427,5.6461,5.6697,5.707,5.7374,5.5649,5.5034,5.495,5.3126,5.1861,5.1023,0.0,5.0474,5.0115,4.9949,5.0066,5.0288,5.0477,5.0736,5.1356,5.3655,5.6408,5.9179,6.1342,6.4321,6.7523,7.0534,7.2225,7.351,7.4999,7.5506,7.5291,7.3904,7.2925,7.1874,7.0192,7.046,7.1041,7.1233,7.2176,7.2834,7.2595,7.2385,7.1757,7.044,7.0859,7.0979,7.035,7.0679,7.1839,7.4097,7.5955,7.7883,7.9888,8.168,8.2261,8.1288,8.1288,8.0953,8.0209,8.0209,8.0073,7.9837,7.86,7.7518,7.6417,7.3228,7.2137,7.2809,7.2388,7.2966,7.4356,7.5306,7.5709,7.5709,7.5709,7.5709,7.5709,7.5709,7.5709,7.5574,0.0,0.0,0.0,0.0,0.0,0.0,0.0,0.0,0.0,0.0,0.0,0.0,0.0,0.0,0.0,0.0,0.0,4.7022,4.8511,4.9763,5.1405,5.3704,5.4514,5.5375,5.637,5.6915,5.6805,5.608,5.5554,5.5054,5.4606,5.4598,5.46,5.4634,5.5886,5.6427,5.6427,5.6427,5.6799,5.7273,5.5344,5.4763,5.4848,5.3126,5.1864,0.0,5.0176,4.9268,4.8391,4.8497,4.8663,4.8941,4.9631,5.0596,5.1861,5.3684,5.6085,5.8932,6.2628,6.5559,6.8417,7.1931,7.3341,7.4187,7.5405,7.5506,7.5065,7.4172,7.233,7.0643,6.9745,6.9584,6.9762,7.0483,7.1667,7.2624,7.2894,7.2684,7.2176,7.1158,7.1547,7.1577,7.0739,7.1009,7.2081,7.4097,7.644,7.8512,8.0189,8.2552,8.326,8.2007,8.1776,8.1325,8.0581,8.031,8.0209,8.0175,7.8466,7.6992,7.5674,7.2509,7.1224,7.1333,7.0838,7.1767,7.3668,7.4588,7.5243,7.5709,7.5709,7.5709,7.5709,7.5709,7.5709,7.5642,0.0,0.0,0.0,0.0,0.0,0.0,0.0,0.0,0.0,0.0,0.0,0.0,0.0,0.0,0.0,0.0,0.0,0.0,4.7669,4.8511,4.9926,5.2176,5.2973,5.3387,5.3504,5.4896,5.5291,5.4611,5.452,5.451,5.4544,5.4431,5.4361,5.4395,5.5171,5.5508,5.5543,5.5543,5.5242,5.4702,5.4566,5.3574,5.2164,5.3109,5.181,4.9636,5.0517,4.9808,4.828,4.7355,4.7415,4.8069,4.8749,5.1079,5.3796,5.5048,5.6447,5.8716,6.3453,6.5884,6.8021,7.2203,7.381,7.4566,7.531,7.4986,7.4492,7.4492,7.1194,6.8644,6.9884,6.844,6.7691,6.9572,7.1038,7.2176,7.2864,7.2415,7.2265,7.2834,7.2355,7.1966,7.1936,7.1906,7.2629,7.4252,0.0,7.8093,7.8735,8.2355,8.3402,8.1213,8.1819,8.1916,8.1224,8.0547,8.0175,8.0141,7.9381,7.7832,7.5694,7.3392,7.2005,7.1169,6.9802,7.0838,7.3515,7.3599,7.4439,7.5709,7.5709,7.5709,7.5709,7.5709,7.5709,7.5676,0.0,0.0,0.0,0.0,0.0,0.0,0.0,0.0,0.0,0.0,0.0,0.0,0.0,0.0,0.0,0.0,0.0,0.0,4.621,4.7496,4.8937,5.0616,5.1958,5.2923,5.3504,5.4411,5.4802,5.4611,5.3832,5.3476,5.3443,5.2128,5.1485,5.1517,5.2238,5.3011,5.3708,5.3708,5.4673,5.6089,5.4431,5.4158,5.4552,5.2921,5.1894,5.1128,5.0135,4.948,4.9042,4.8528,4.9212,5.0442,5.1106,5.2577,5.4209,5.5031,5.7629,6.0626,6.2405,6.498,6.7548,6.9213,7.0503,7.16,7.2364,7.2753,7.2969,7.2969,7.0415,6.803,6.7387,6.7551,6.7962,6.8413,7.0829,7.2894,7.3552,7.3911,7.3821,7.3013,7.3193,7.3193,7.2684,7.2176,7.2534,7.4128,7.5965,7.7571,7.8906,8.041,8.1255,8.1226,8.0375,8.0048,8.0479,8.0276,7.9938,7.9397,7.8096,7.6589,7.4865,7.2118,7.0428,6.9745,6.9375,7.0255,7.2036,7.3154,7.4406,7.5709,7.5709,7.5709,7.5709,7.5709,7.5709,7.5608,0.0,0.0,0.0,0.0,0.0,0.0,0.0,0.0,0.0,0.0,0.0,0.0,0.0,0.0,0.0,0.0,0.0,0.0,0.0,4.6786,4.7942,4.9061,5.0154,5.0798,5.0912,5.1817,5.1977,5.1393,5.1763,5.1773,5.1475,5.0736,5.0397,5.0429,5.0852,5.1321,5.189,5.2331,5.3337,0.0,0.0,5.3991,5.4565,5.3136,5.2592,5.2455,5.1531,5.1488,5.1982,5.2357,5.2641,5.3036,5.4027,5.4703,5.5329,5.6555,5.9183,6.2052,6.392,6.6202,6.8344,6.9432,7.0011,7.0363,7.047,7.0519,7.0369,6.9745,6.7644,6.5643,6.4596,6.5289,6.6176,6.7032,6.9662,7.2056,7.3283,7.4031,7.427,7.3821,7.4091,7.4061,7.3402,7.3653,7.4072,7.4655,7.5905,7.7043,7.7868,7.9936,8.0962,8.0755,8.0281,8.0043,8.0209,7.987,7.9532,7.9092,7.7597,7.579,7.3693,7.168,6.9832,6.8206,0.0,6.9085,7.0536,7.2036,7.3482,7.4835,7.5484,7.5709,7.5709,7.5709,7.5306,7.4719,0.0,0.0,0.0,0.0,0.0,0.0,0.0,0.0,0.0,0.0,0.0,0.0,0.0,0.0,0.0,0.0,0.0,0.0,0.0,0.0,4.7225,4.7872,4.8379,4.831,4.7638,4.8659,4.8605,4.7301,4.9068,4.9636,4.9068,4.9515,4.9787,4.9843,4.9843,4.9985,5.0242,5.1117,5.1634,5.1993,5.2904,5.3382,5.3518,0.0,0.0,5.3518,5.3518,5.4209,5.5402,5.6915,5.6541,5.5643,5.7149,5.7209,5.7064,5.8949,6.0959,6.3246,6.6318,6.82,6.9592,7.076,7.0526,6.9793,6.8896,6.8056,6.7072,6.5864,6.3976,6.2453,6.201,6.2579,6.3737,6.5682,6.8256,7.0709,7.2744,7.332,7.3849,7.4809,7.4633,7.4355,7.4091,7.5387,7.6115,7.562,7.6486,7.6953,7.6863,7.9956,8.1163,7.9793,8.0666,8.0851,8.0209,7.9566,7.916,7.8957,7.7441,7.5318,7.2581,7.1566,6.9688,6.7274,6.7091,6.7819,6.9317,7.056,7.1982,7.3464,7.4687,7.5112,7.5112,7.5112,7.4356,7.3276,0.0,0.0,0.0,0.0,0.0,0.0,0.0,0.0,0.0,0.0,4.0401,0.0,0.0,0.0,0.0,0.0,0.0,0.0,0.0,0.0,0.0,4.7872,4.8578,4.8511,4.7638,4.8396,4.8313,4.7301,4.7442,4.7458,4.7333,4.6538,4.6486,4.7031,4.7031,4.7773,4.9094,4.9256,5.0326,5.1921,5.2101,5.2697,5.3518,5.3518,0.0,0.0,5.3518,5.4429,5.5905,5.7992,5.8138,5.7779,5.9718,5.9906,5.9697,6.1164,6.303,6.4932,6.6106,6.784,6.9306,6.8936,6.8319,6.7497,6.6187,6.4884,6.3772,6.298,6.1629,6.0596,6.047,6.1916,6.3737,6.5682,6.8256,7.0859,7.3373,7.2404,7.228,7.4642,7.3433,7.3023,7.4552,7.5662,7.6557,7.7065,7.8063,7.8572,7.8572,7.8617,7.8548,7.8277,7.966,8.031,8.0209,8.0073,7.9397,7.8179,7.6724,7.5072,7.3318,7.0735,6.9317,6.8766,6.7548,0.0,6.9201,6.949,7.0448,7.1821,7.2036,7.2143,7.2143,7.2143,7.1982,7.1703,0.0,0.0,0.0,0.0,0.0,0.0,0.0,0.0,0.0,0.0,4.0247,4.1205,0.0,0.0,0.0,0.0,0.0,0.0,0.0,0.0,0.0,0.0,4.8111,4.8064,4.7638,4.7303,4.6939,4.6459,0.0,4.6062,4.6062,4.5883,4.5992,4.6352,4.6681,4.728,4.8072,4.8553,4.9376,5.0365,5.1451,5.2205,0.0,0.0,0.0,0.0,5.3518,5.4465,5.5918,5.7374,5.8228,5.9183,6.2044,6.2316,6.1781,6.2787,6.4832,6.6975,6.767,6.9381,7.081,7.0127,6.8872,6.7176,6.4946,6.3417,6.1963,6.017,5.9365,5.89,5.8593,6.0186,6.2181,6.4156,6.67,6.9213,7.1547,7.0975,7.1406,7.4066,7.2947,7.2699,7.4731,7.5723,7.6807,7.7964,7.8689,7.9185,7.9633,7.9299,7.9098,7.9098,7.9785,8.0209,8.0209,7.9431,7.8686,7.7976,7.6507,7.4972,7.3566,7.2143,7.0672,6.9143,6.8413,0.0,6.8087,6.8883,6.9631,7.0312,7.1114,7.1388,7.1388,7.1388,7.0893,7.0192,0.0,0.0,0.0,0.0,0.0,0.0,0.0,3.6926,3.8542,3.9499,4.0701,4.1698,4.2252,4.2706,0.0,0.0,0.0,0.0,0.0,0.0,0.0,0.0,0.0,4.7803,4.7572,0.0,0.0,4.5696,4.5405,0.0,0.0,0.0,0.0,0.0,4.686,4.7189,4.7352,4.8126,4.8594,0.0,0.0,5.1488,0.0,0.0,0.0,0.0,0.0,5.4262,5.5378,5.6258,5.7557,5.9308,6.2557,6.3019,6.2465,6.33,6.5511,6.7789,6.8543,7.0292,7.1811,7.1042,6.9065,6.6575,6.3603,6.1867,6.0154,5.7488,5.7291,5.7442,5.7002,5.853,6.0535,6.254,6.4576,6.6654,6.906,6.8749,6.9349,7.21,7.1779,7.1912,7.3734,7.5465,7.6964,7.8087,7.8841,7.9508,8.0158,8.0209,8.0209,8.0209,8.0209,8.0107,7.9972,7.8822,7.8077,7.7739,7.6521,7.528,7.4023,7.3719,7.2143,6.9631,6.9317,0.0,0.0,6.8266,6.8707,6.8883,7.0029,7.048,7.048,7.048,6.9688,6.8707,0.0,0.0,0.0,0.0,0.0,0.0,0.0,3.7011,3.8182,4.0068,4.1173,4.224,4.35,4.3132,0.0,0.0,0.0,0.0,0.0,0.0,0.0,0.0,0.0,0.0,0.0,0.0,0.0,4.5696,4.5405,0.0,0.0,0.0,0.0,0.0,0.0,4.6741,4.7309,4.7396,0.0,0.0,0.0,0.0,0.0,0.0,0.0,0.0,0.0,5.3585,5.3923,5.5344,5.6356,5.733,5.898,5.9804,6.0403,6.168,6.3654,6.5654,6.6339,6.8473,7.0246,6.8929,6.6628,6.3932,6.1152,5.896,5.6946,5.4929,5.5491,5.632,5.6308,5.7872,5.9847,6.1852,6.2115,6.3265,6.688,6.4867,6.4277,6.7446,6.8614,6.9584,7.0482,7.459,7.7089,7.6715,7.8821,8.009,8.0209,8.0209,8.0209,8.0209,8.0209,7.987,7.9228,7.9092,7.8348,7.6995,7.686,7.6338,7.5484,7.4206,7.2757,7.1114,6.9802,0.0,0.0,6.7152,6.7213,6.7213,6.7366,6.7366,6.7366,6.7366,6.7335,6.6939,0.0,0.0,0.0,0.0,0.0,0.0,0.0,3.6615,3.7764,3.8796,4.0952,4.2958,4.4464,4.4756,4.5077,0.0,0.0,0.0,0.0,0.0,0.0,0.0,0.0,0.0,0.0,0.0,4.7124,4.6903,4.5839,0.0,0.0,0.0,0.0,0.0,0.0,4.707,4.7309,4.7309,0.0,0.0,0.0,0.0,0.0,0.0,0.0,0.0,0.0,0.0,5.2657,5.3223,5.4189,5.5225,5.5359,5.5808,5.6979,6.0178,6.2484,6.428,6.5313,6.7647,6.9542,6.8528,6.6568,6.4191,6.1768,5.9389,5.7247,5.556,5.5428,5.5718,5.6158,5.6379,5.702,5.8571,5.8541,5.9273,6.1929,6.1108,6.1622,6.5241,6.6585,6.8004,6.9914,7.2499,7.4587,7.5826,7.7741,7.9202,8.0124,8.0209,8.0209,8.0209,8.0209,8.0073,7.9769,7.8889,7.8145,7.7536,7.6623,7.6014,7.5709,7.5112,7.4073,7.2652,7.1169,0.0,0.0,6.7366,6.6999,6.6999,6.6999,6.6999,6.6999,6.6999,6.6322,6.5295,0.0,0.0,0.0,0.0,0.0,0.0,3.5016,3.6137,3.7228,3.7895,4.0794,4.3412,4.5019,4.5792,4.6399,4.6848,0.0,0.0,0.0,0.0,0.0,0.0,0.0,0.0,0.0,0.0,4.7446,4.7707,4.6505,4.6142,0.0,0.0,4.6621,4.6621,0.0,0.0,0.0,0.0,0.0,0.0,0.0,0.0,0.0,0.0,0.0,0.0,0.0,0.0,0.0,0.0,0.0,5.3188,5.2469,5.2612,5.3837,5.7774,6.0272,6.2034,6.3333,6.5546,6.7423,6.6897,6.523,6.3185,6.1231,5.9104,5.7138,5.5691,5.4939,5.4708,5.5182,5.4641,5.4485,5.5567,5.5603,5.6167,5.8034,5.8047,5.8911,6.1781,6.404,6.6087,6.8041,7.0696,7.307,7.502,7.6846,7.8345,7.9443,7.9972,8.0209,8.0209,8.0006,7.987,7.987,7.8416,7.7671,7.7638,7.6318,7.5709,7.5709,7.5709,7.4932,7.3566,7.2494,0.0,0.0,6.8087,6.7366,6.6999,6.6999,6.6999,6.6937,6.6384,6.5358,6.4153,0.0,0.0,0.0,0.0,0.0,0.0,0.0,3.5581,3.6483,3.782,4.0794,4.3412,4.5019,4.5792,4.6558,4.7506,0.0,0.0,0.0,0.0,0.0,0.0,0.0,0.0,0.0,0.0,4.7707,4.7707,4.7431,4.7279,4.7309,4.7309,4.7309,4.7309,0.0,0.0,0.0,0.0,0.0,0.0,0.0,0.0,0.0,0.0,0.0,0.0,0.0,0.0,0.0,0.0,0.0,0.0,0.0,5.0632,5.1401,5.4157,5.6462,5.8441,5.9812,6.1639,6.3137,6.3137,6.1639,5.9812,5.8464,5.7146,5.5858,5.4491,5.3576,5.3016,5.3016,5.2712,5.2759,5.3423,5.3597,5.4246,5.6079,5.5809,5.5688,5.6241,6.0501,6.3515,6.3612,6.9521,7.354,7.416,7.6539,0.0,7.7936,7.9392,8.0209,8.0209,7.9498,7.9126,7.9126,7.7638,7.6927,7.6893,7.6082,7.5709,7.5709,7.5709,7.4932,7.3617,0.0,0.0,0.0,6.9201,6.8325,6.6999,6.6999,6.6999,6.6785,6.4978,6.4281,6.383,0.0,0.0,0.0,0.0,0.0,0.0,0.0,3.5078,3.5898,3.6555,3.9048,4.1489,4.3357,4.4141,4.5033,4.6197,0.0,0.0,0.0,0.0,0.0,0.0,0.0,0.0,0.0,0.0,4.762,4.7431,4.7362,4.7309,4.7309,4.7309,4.7309,4.7309,4.7309,4.7309,0.0,0.0,0.0,0.0,0.0,0.0,0.0,0.0,0.0,0.0,0.0,0.0,0.0,0.0,0.0,0.0,0.0,0.0,0.0,5.0804,5.3483,5.6316,5.7184,5.853,5.9578,5.9099,5.8201,5.7304,5.6885,5.6137,5.5104,5.3678,5.3163,5.2697,5.1618,5.114,5.1121,5.171,5.1591,5.1864,5.3257,5.3879,5.4737,5.6043,6.1193,6.5683,6.8311,7.043,7.217,7.3509,7.4325,7.5695,7.7773,7.7881,7.8363,7.9414,7.9228,7.8855,7.8348,7.7401,7.6893,7.6893,7.6082,7.5709,7.5709,7.5709,7.5484,0.0,0.0,0.0,0.0,6.9631,6.8325,6.6999,6.6999,6.6231,6.5105,6.4503,6.2755,6.047,0.0,0.0,0.0,0.0,0.0,0.0,0.0,3.4747,3.5473,3.5912,3.8128,4.0443,4.2585,4.3063,4.3943,4.5572,0.0,0.0,0.0,0.0,0.0,0.0,0.0,0.0,0.0,4.7282,4.7196,4.6594,4.7062,4.7062,4.6594,4.7062,4.7309,4.7309,4.7309,4.7309,0.0,0.0,0.0,0.0,0.0,0.0,0.0,0.0,0.0,0.0,0.0,0.0,0.0,0.0,0.0,0.0,0.0,0.0,0.0,0.0,5.1738,5.4251,5.5179,5.6376,5.7393,5.7453,5.6825,5.6278,5.6466,5.5837,5.4976,5.4016,5.291,5.1835,5.0878,4.9956,4.9229,4.8858,4.9117,4.9481,4.9845,5.13,5.3466,5.6504,6.1407,6.5806,6.8818,7.02,7.1221,7.1994,7.2614,7.3638,7.5322,7.6039,7.6755,7.743,7.7999,7.8179,7.7976,7.6961,7.6589,7.6893,7.6082,7.5709,7.5709,7.5709,7.5709,0.0,0.0,0.0,0.0,7.0424,6.8825,6.6999,6.6999,6.5919,6.4217,6.3541,6.1323,5.8516,0.0,0.0,0.0,0.0,0.0,0.0,0.0,0.0,0.0,0.0,3.7955,4.013,4.2438,4.247,4.3249,0.0,0.0,0.0,0.0,0.0,0.0,0.0,0.0,0.0,0.0,4.6651,4.6682,4.5389,4.6624,4.6609,4.552,4.6653,4.7282,4.7369,4.7339,0.0,0.0,0.0,0.0,0.0,0.0,0.0,0.0,0.0,0.0,0.0,0.0,0.0,0.0,0.0,0.0,0.0,0.0,0.0,0.0,0.0,0.0,0.0,0.0,5.491,5.6166,5.7334,5.6795,5.6107,5.6675,5.5987,0.0,5.5078,5.2828,5.0823,5.0657,4.9193,4.7421,4.5589,4.6656,4.7371,4.6344,4.8631,5.2223,5.7207,6.1175,6.4243,6.5897,6.8926,7.059,6.9961,7.1321,7.1899,7.1337,7.3937,7.5155,7.4549,7.5939,7.7033,7.7807,7.642,7.6082,7.6792,7.6048,7.5709,7.5709,7.5709,7.5709,0.0,0.0,0.0,0.0,7.131,6.9574,6.6999,6.6846,6.5702,6.3894,6.2064,5.9954,5.7642,0.0,0.0,0.0,0.0,0.0,0.0,0.0,0.0,0.0,0.0,0.0,3.8887,4.1459,4.1656,0.0,0.0,0.0,0.0,0.0,0.0,0.0,0.0,0.0,0.0,0.0,4.713,4.6682,4.5389,4.6107,4.6367,4.6155,4.6367,4.7033,4.8027,4.7519,0.0,0.0,0.0,0.0,0.0,0.0,0.0,0.0,0.0,0.0,0.0,5.2835,5.2373,0.0,0.0,0.0,0.0,0.0,0.0,0.0,0.0,5.0405,5.0823,5.1708,0.0,5.3084,5.2875,5.3354,5.3922,0.0,5.467,5.4845,5.3756,5.2963,5.1868,4.9959,4.9258,4.8416,4.671,4.7041,4.7374,4.6888,5.0072,5.3398,5.6095,6.0586,6.3979,6.5425,6.8372,6.9931,6.9273,7.0043,7.0767,7.1278,7.1424,7.1988,7.2993,7.3886,7.5005,7.6217,7.5879,7.5777,7.598,7.5777,7.5709,7.5709,7.5709,7.5709,0.0,0.0,0.0,7.1278,7.0199,6.8649,6.6846,6.5513,6.383,6.1997,6.0195,5.807,5.5985,0.0,0.0,0.0,0.0,0.0,0.0,0.0,0.0,0.0,0.0,0.0,0.0,0.0,0.0,0.0,0.0,0.0,0.0,0.0,0.0,0.0,0.0,0.0,0.0,4.683,4.716,4.683,4.5866,4.6074,4.5938,4.5562,4.5985,4.6471,4.7007,4.7211,0.0,0.0,0.0,0.0,0.0,0.0,0.0,0.0,0.0,0.0,0.0,5.2939,5.2697,0.0,5.1119,5.1127,5.1444,0.0,0.0,0.0,0.0,5.0405,5.0734,5.1109,5.1917,5.2636,5.2606,5.3114,5.3743,5.4042,5.4192,5.4052,5.3288,5.2827,5.2141,5.0796,5.0305,4.9421,4.7381,4.6961,4.6666,4.6098,4.9141,5.2142,5.4475,5.9651,6.3387,6.4374,6.7565,6.9243,6.8585,6.8854,6.9173,6.9336,6.9564,7.0135,7.096,7.2014,7.3276,7.4736,7.5388,7.5709,7.5709,7.5709,7.5709,7.5709,7.5064,7.4736,0.0,0.0,0.0,7.0312,6.9547,6.7847,6.5639,6.4694,6.2689,6.0264,5.9253,5.7235,5.5013,0.0,0.0,0.0,0.0,0.0,0.0,0.0,0.0,0.0,0.0,0.0,0.0,0.0,0.0,0.0,0.0,0.0,0.0,0.0,0.0,0.0,0.0,0.0,4.7517,4.6471,4.701,4.6948,4.6241,4.635,4.5789,4.4801,4.5865,4.6109,4.5734,4.6989,0.0,0.0,0.0,0.0,0.0,0.0,0.0,0.0,0.0,0.0,0.0,0.0,0.0,0.0,5.0873,5.1669,5.3142,5.0475,0.0,0.0,0.0,0.0,0.0,5.1216,5.2396,5.3683,5.3862,5.4132,5.4491,5.494,5.4221,5.3503,5.3503,5.2965,5.248,5.256,5.204,5.0793,4.8321,4.7111,4.6286,4.5693,4.809,5.0719,5.2882,5.8388,6.233,6.2949,6.628,6.8273,6.7867,6.7897,6.7687,6.7029,6.8206,6.8852,6.8852,7.0312,7.1659,7.2914,7.4356,7.503,7.503,7.503,7.503,7.4981,7.382,7.3276,7.3173,0.0,0.0,6.9201,6.8969,6.7064,6.4281,6.4024,6.1864,5.8833,5.8473,5.6765,5.4607,0.0,0.0,0.0,0.0,0.0,0.0,0.0,0.0,0.0,0.0,0.0,0.0,0.0,0.0,0.0,0.0,0.0,0.0,0.0,0.0,0.0,0.0,4.933,4.8465,4.7173,4.7249,4.6741,4.5533,4.658,4.6717,4.6107,4.6745,4.7049,4.7062,4.8084,4.9256,5.0435,0.0,0.0,0.0,0.0,0.0,0.0,0.0,0.0,0.0,0.0,0.0,0.0,5.2017,5.1691,5.1731,5.1216,0.0,0.0,0.0,0.0,0.0,5.1132,5.3414,5.5209,5.3054,5.3773,5.491,5.4461,5.464,5.488,5.488,5.4788,5.4813,5.5086,5.4678,5.3486,5.0844,4.8873,4.7828,4.8507,5.0895,5.2538,5.2482,5.6586,5.9893,6.1087,6.3997,6.6206,6.7117,6.7657,6.7687,6.7029,6.7213,6.7335,6.7335,6.8766,6.9631,6.9859,7.1333,7.2036,7.2036,7.2036,7.2036,7.2036,7.1821,7.1713,7.1691,0.0,6.9432,6.9085,6.7879,6.6139,6.4153,6.2595,6.0716,5.864,5.6693,5.5375,5.4436,0.0,0.0,0.0,0.0,0.0,0.0,0.0,0.0,0.0,0.0,0.0,0.0,0.0,0.0,0.0,0.0,0.0,0.0,0.0,0.0,0.0,5.0358,5.0077,4.9614,4.9004,4.8418,4.7983,4.7769,4.7007,4.658,4.6385,4.6281,4.6632,4.7309,4.7807,4.8882,5.0435,0.0,0.0,0.0,0.0,0.0,0.0,0.0,0.0,0.0,0.0,0.0,0.0,0.0,5.2745,5.2935,5.1765,0.0,0.0,0.0,0.0,0.0,5.2312,5.3868,5.5274,5.4805,5.6013,5.7244,5.6915,5.6526,5.6017,5.5329,5.6022,5.6807,5.6985,5.7215,5.6391,5.3622,5.1905,5.0524,4.9472,5.1048,5.2342,5.2413,5.5989,5.8801,5.9722,6.2773,6.5013,6.5513,6.6714,6.7298,6.6999,6.6999,6.6999,6.6999,6.7668,6.7998,6.7998,6.8707,6.9802,7.1388,7.1388,7.1388,7.1333,7.056,7.0199,7.0143,0.0,6.7998,6.7939,6.7274,6.5919,6.4088,6.233,6.047,5.8587,5.5929,5.4587,5.3984,0.0,0.0,0.0,0.0,0.0,0.0,0.0,0.0,0.0,0.0,0.0,0.0,0.0,0.0,0.0,0.0,0.0,0.0,0.0,0.0,4.9139,5.0358,5.0627,5.0627,5.0397,4.9575,4.9456,4.9915,4.8147,4.7232,4.7078,4.6392,4.6535,4.7309,4.7309,4.8293,5.0048,5.0281,5.1545,0.0,0.0,0.0,0.0,0.0,0.0,0.0,0.0,0.0,0.0,0.0,0.0,0.0,0.0,0.0,0.0,5.19,5.1952,5.2548,5.3085,5.4132,5.5332,5.6308,5.7335,5.8381,5.9159,5.8171,5.6944,5.6436,5.7719,5.8975,5.9091,5.9622,5.9422,5.7304,5.559,5.3898,5.1848,5.2199,5.2815,5.3323,5.5872,5.7965,5.8806,6.1394,6.3215,6.3606,6.4949,6.5764,6.5764,6.6106,6.6384,6.6384,6.6785,6.6999,6.6999,6.6999,6.8147,7.0368,7.0368,7.0368,7.0312,6.9201,6.8707,6.8649,6.7487,6.6999,6.6999,6.6999,6.5919,6.4153,6.2755,6.0688,5.8193,5.5547,5.4135,5.3457,0.0,0.0,0.0,0.0,0.0,0.0,0.0,0.0,0.0,0.0,0.0,0.0,0.0,0.0,0.0,0.0,0.0,0.0,0.0,0.0,4.8638,5.0326,5.1266,5.134,5.0397,5.032,5.0313,5.0377,5.0435,5.0005,4.9074,4.8417,4.779,4.7309,4.7309,4.7904,4.8973,4.997,5.1432,5.3063,0.0,0.0,0.0,0.0,0.0,0.0,0.0,0.0,0.0,0.0,0.0,0.0,0.0,0.0,5.2017,5.1878,5.2368,5.2795,5.2476,5.4305,5.6201,5.5845,5.5633,5.6286,5.9308,5.8501,5.7603,5.9368,6.0852,6.1846,6.1764,6.1989,6.2314,6.2647,5.9912,5.7903,5.8157,5.6887,5.5874,5.5924,5.6143,5.7035,5.8692,5.9113,5.9989,6.1663,6.1931,6.1997,6.1997,6.3541,6.4503,6.4503,6.6106,6.6999,6.6999,6.6999,6.7091,6.7335,6.7335,6.7335,6.7335,6.7213,6.7152,6.7152,6.706,6.6999,6.6999,6.6999,6.5919,6.4281,6.4153,6.1368,5.7183,5.5312,5.3884,5.298,0.0,0.0,0.0,0.0,0.0,0.0,0.0,0.0,0.0,0.0,0.0,0.0,0.0,0.0,0.0,0.0,0.0,0.0,0.0,0.0,4.7446,4.8718,5.0211,5.0779,5.0397,5.1005,5.1005,5.0397,4.9202,4.8434,4.8057,4.8207,4.7938,4.7309,4.7728,4.8256,4.8851,4.9931,5.1129,5.2389,5.3177,0.0,0.0,0.0,0.0,0.0,0.0,0.0,0.0,0.0,5.3213,5.2973,5.3382,5.3213,5.2904,5.2904,5.3071,5.3334,5.3642,5.502,5.6423,5.6672,5.6567,5.7124,6.0057,6.0446,6.0416,6.1194,6.2665,6.3764,6.3277,6.4322,6.4734,6.2992,6.1323,5.9926,5.9017,5.7349,5.6219,5.6219,5.6219,5.6485,5.7159,5.8224,5.9183,5.9851,6.092,6.1595,6.1595,6.3346,6.4281,6.4281,6.6044,6.6999,6.6999,6.6999,6.6999,6.6999,6.6999,6.6999,6.6999,6.6999,6.6999,6.6999,6.6999,6.6999,6.6999,6.6999,6.657,6.5798,6.426,6.1723,5.872,5.7638,5.6731,5.6103,0.0,0.0,0.0,0.0,0.0,0.0,0.0,0.0,0.0,0.0,0.0,0.0,0.0,0.0,0.0,0.0,0.0,0.0,0.0,4.4456,4.61,4.7747,4.897,4.9826,5.0397,5.108,5.108,5.0397,4.8841,4.7925,4.7638,4.8087,4.7938,4.7339,4.7788,4.8102,4.8418,4.9456,5.0448,5.1372,5.2518,5.3108,0.0,0.0,0.0,0.0,0.0,0.0,0.0,0.0,5.3518,5.3416,5.311,5.3213,5.3416,5.311,5.3549,5.4296,5.4803,5.5857,5.6922,5.7349,5.7479,5.8196,6.0551,6.1463,6.2032,6.2869,6.404,6.4994,6.5147,6.605,6.5883,6.3313,6.2143,6.0988,5.9183,5.7349,5.6219,5.6219,5.6219,5.6219,5.6219,5.7303,5.8037,5.8037,5.9183,5.992,5.992,6.2131,6.3476,6.3476,6.5764,6.6999,6.6999,6.6999,6.6999,6.6999,6.6999,6.6999,6.6999,6.6999,6.6999,6.6999,6.6999,6.6999,6.6999,6.6999,6.6999,6.6755,6.4484,6.2402,6.0522,5.946,5.8604,5.8005,0.0,0.0,0.0,0.0,0.0,0.0,0.0,0.0,0.0,0.0,0.0,0.0,0.0,0.0,0.0,0.0,0.0,0.0,4.2291,4.297,4.4648,4.7645,4.7818,4.8607,5.0358,5.0358,5.0358,5.0358,4.9984,4.9261,4.8267,4.8297,4.7938,4.7309,4.7309,4.7309,4.7396,4.8377,4.9213,5.0029,5.134,5.2317,0.0,0.0,0.0,0.0,0.0,0.0,0.0,0.0,5.3518,5.3314,5.2241,5.2627,5.328,5.2205,5.3697,5.5681,5.5647,5.6765,5.7796,5.7571,5.8,5.8955,6.0693,6.1134,6.1882,6.4515,6.5014,6.5631,6.7589,6.6869,6.5591,6.4485,6.2765,6.092,5.9183,5.7349,5.6219,5.6219,5.6219,5.6219,5.6219,5.6219,5.6219,5.6219,5.6219,5.6219,5.6219,5.9643,6.1595,6.1595,6.5105,6.6999,6.6999,6.6999,6.6999,6.6999,6.6999,6.6999,6.6999,6.6999,6.6999,6.6999,6.6999,6.6999,6.6999,6.6999,6.6999,6.6785,6.5012,6.3567,6.2284,6.0513,5.9091,5.8068,0.0,0.0,0.0,0.0,0.0,0.0,0.0,0.0,0.0,0.0,0.0,0.0,0.0,0.0,0.0,0.0,0.0,0.0,0.0,4.2701,4.3898,4.5284,4.6923,4.7957,4.821,4.824,4.8584,4.9256,4.8466,4.7895,4.7608,4.8057,4.7938,4.7339,4.7788,4.7728,4.7396,4.8377,4.8934,4.9212,5.0384,5.0984,0.0,0.0,0.0,0.0,0.0,0.0,0.0,0.0,0.0,0.0,5.1993,5.1958,5.2025,5.1908,5.2795,5.3784,5.4056,5.5454,5.6741,5.6698,5.8131,6.0008,6.1481,6.2151,6.3228,6.5862,6.5621,6.5185,6.5799,6.4904,6.3845,6.3033,6.1097,5.9504,5.8973,5.7349,5.6219,5.6219,5.6219,5.6219,5.6219,5.6219,5.6219,5.6219,5.6219,5.6219,5.6219,5.9643,6.1595,6.1595,6.5105,6.6999,6.6999,6.6999,6.6999,6.6999,6.6999,6.6999,6.6999,6.6999,6.6999,6.6999,6.6999,6.6999,6.6999,6.6999,6.6999,6.6818,6.5375,6.457,6.4066,6.2642,6.1876,6.1614,0.0,0.0,0.0,0.0,0.0,0.0,0.0,0.0,0.0,0.0,3.337,3.3926,0.0,0.0,0.0,0.0,0.0,0.0,0.0,0.0,4.158,4.323,4.4907,4.6256,4.7279,4.677,4.6842,4.7443,4.7379,4.7019,4.655,4.7479,4.7698,4.7309,4.7728,4.7668,4.7352,4.7946,4.821,4.8293,4.9336,4.9773,4.9813,0.0,0.0,0.0,0.0,0.0,0.0,0.0,0.0,0.0,5.0784,5.0839,5.1069,5.136,5.2595,5.403,5.4868,5.6466,5.7997,5.8434,5.9664,6.1201,6.2864,6.3767,6.4755,6.661,6.6161,6.5232,6.4833,6.3931,6.2765,6.1203,5.9778,5.8648,5.7895,5.6895,5.6219,5.6219,5.6219,5.6219,5.6219,5.6219,5.6219,5.6219,5.6219,5.6485,5.7231,5.9989,6.1931,6.2661,6.5513,6.6999,6.6999,6.6999,6.6999,6.6999,6.6999,6.6999,6.6999,6.6999,6.6999,6.6999,6.6999,6.6999,6.6999,6.6999,6.6819,6.652,6.5712,6.5084,6.4515,6.3737,6.3288,6.3079,0.0,0.0,0.0,0.0,0.0,0.0,0.0,0.0,0.0,0.0,3.3111,3.3269,0.0,0.0,0.0,0.0,0.0,0.0,0.0,0.0,3.8583,4.1555,4.256,4.4379,4.7236,4.6166,4.5553,4.5389,4.6432,4.6344,4.5252,4.6388,4.6975,4.6975,4.7062,4.7106,4.7106,4.7106,4.7106,4.7193,4.8012,4.8285,4.8409,4.9393,0.0,0.0,0.0,0.0,0.0,0.0,0.0,0.0,4.9054,4.9479,5.0279,5.0538,5.2658,5.5313,5.6723,5.8496,6.0255,6.1407,6.1915,6.2571,6.4541,6.5592,6.6251,6.6879,6.652,6.5733,6.4515,6.3693,6.221,5.9355,5.8789,5.8108,5.6412,5.6219,5.6219,5.6219,5.6219,5.6219,5.6219,5.6219,5.6219,5.6219,5.6219,5.6895,5.8578,6.0511,6.233,6.4024,6.5981,6.6999,6.6999,6.6999,6.6999,6.6999,6.6999,6.6999,6.6999,6.6999,6.6999,6.6999,6.6999,6.6969,6.6909,6.6909,6.652,6.5922,6.5862,6.5084,6.3977,6.3947,6.3558,6.3079,0.0,0.0,0.0,0.0,0.0,0.0,0.0,0.0,0.0,0.0,0.0,0.0,0.0,0.0,0.0,0.0,0.0,0.0,0.0,0.0,3.8794,4.092,4.3902,4.6066,0.0,0.0,0.0,0.0,0.0,4.4163,4.3929,4.421,4.4303,4.4349,4.5343,4.5824,4.5824,4.5824,4.5824,4.5734,4.4967,4.4663,4.4663,4.4881,4.5473,0.0,0.0,0.0,0.0,0.0,0.0,0.0,4.8574,4.8787,4.8804,4.916,5.0809,5.2775,5.3893,5.5797,5.7901,5.9703,6.2245,6.4419,6.4904,6.5951,6.6819,6.6969,6.6879,6.6298,6.4602,6.3036,6.1323,5.9226,5.7707,5.6605,5.6292,5.6219,5.6219,5.6219,5.6219,5.6219,5.6219,5.6219,5.6219,5.6219,5.6219,5.634,5.675,5.9851,6.1797,6.2131,6.5295,6.6999,6.6999,6.6999,6.6999,0.0,6.6999,6.6999,6.6999,6.6999,6.6999,6.6999,6.6999,6.67,6.6221,6.6221,6.5832,6.5173,6.4635,6.4246,6.3947,6.3468,6.3199,6.3079,0.0,0.0,0.0,0.0,0.0,0.0,0.0,0.0,0.0,0.0,0.0,0.0,0.0,0.0,0.0,0.0,0.0,0.0,0.0,0.0,3.7482,4.0732,0.0,0.0,0.0,0.0,0.0,0.0,4.4116,4.3504,4.3504,4.376,4.387,4.3918,4.4611,4.4894,4.4865,4.4583,4.4489,4.4442,4.3787,4.3504,4.3504,4.3504,4.3845,4.4273,4.4273,0.0,0.0,0.0,0.0,0.0,0.0,0.0,4.717,4.8624,4.9935,5.1308,5.3214,5.5194,5.7408,6.0144,6.2724,6.4545,6.4545,6.4662,6.4941,6.5173,6.5496,6.5168,6.3346,6.1528,5.9712,5.7895,5.6823,5.6219,5.6219,5.6219,5.6219,5.6219,5.6219,5.6219,5.6219,5.6219,5.6219,5.6219,5.6219,5.6558,5.7421,5.9253,6.0716,6.1595,6.3411,6.441,6.441,6.5295,6.5702,6.5702,6.657,6.6999,6.6999,6.6999,6.6819,6.652,6.652,6.6131,6.5533,6.5533,6.5144,6.4515,6.4126,6.3827,6.3528,6.3199,6.3079,6.3079,0.0,0.0,0.0,0.0,0.0,0.0,0.0,0.0,0.0,0.0,0.0,0.0,0.0,0.0,0.0,0.0,0.0,0.0,0.0,3.3839,3.6191,4.036,0.0,0.0,0.0,0.0,0.0,0.0,4.4301,4.3834,4.4168,4.3918,4.3715,4.3519,4.3764,4.3813,4.3785,4.3389,4.317,4.317,4.293,4.2834,4.2834,4.2834,4.2834,4.2834,4.2834,4.2834,4.2882,4.3122,0.0,0.0,0.0,0.0,4.5545,4.7938,4.9038,5.0075,5.2738,5.5141,5.7626,6.0775,6.2696,6.3798,6.3594,6.3049,6.2553,6.2692,6.3229,6.3139,6.1433,5.992,5.8295,5.6485,5.6219,5.6219,5.6219,5.6219,5.6219,5.6219,5.6219,5.6219,5.6219,5.6219,5.6219,5.6219,5.6219,5.6823,5.8366,5.8719,5.9574,6.1056,6.1461,6.1595,6.1595,6.3084,6.4024,6.4281,6.6106,6.6999,6.6999,6.6879,6.652,6.6011,6.5892,6.5473,6.4844,6.4844,6.4455,6.3827,6.3827,6.3528,6.3079,6.3079,6.3079,6.3079,0.0,0.0,0.0,0.0,0.0,0.0,0.0,0.0,0.0,0.0,3.3111,3.2842,3.2265,3.229,0.0,0.0,0.0,0.0,3.2315,0.0,0.0,0.0,0.0,0.0,0.0,0.0,0.0,4.6185,4.4922,4.519,4.6813,4.3503,4.1374,4.0389,4.1474,4.1944,4.1944,4.1864,4.1838,4.1739,4.0642,4.0211,4.0211,4.0211,4.0211,4.0211,4.0211,4.0211,4.0364,4.1468,4.1838,0.0,0.0,0.0,4.405,4.5499,4.6783,4.8173,5.0219,5.3811,5.743,5.8982,6.129,6.2969,6.2043,6.2163,6.2096,6.0754,6.0867,6.0855,5.9494,5.9043,5.8295,5.6485,5.6219,5.6219,5.6219,5.6219,5.6219,5.6219,5.6219,5.6219,5.6219,5.6219,5.6219,5.6219,5.6219,5.6267,5.6558,5.8037,5.8973,5.9253,6.0784,6.1595,6.1595,6.1864,6.2755,6.4281,6.6106,6.6999,6.6969,6.64,6.6101,6.5981,6.5413,6.4755,6.4126,6.4126,6.3767,6.3199,6.3199,6.3139,6.3079,6.3079,6.3079,6.3079,0.0,0.0,0.0,0.0,0.0,0.0,0.0,0.0,0.0,0.0,0.0,3.2842,3.2265,3.1938,0.0,0.0,0.0,0.0,3.3093,3.4346,0.0,0.0,0.0,0.0,0.0,0.0,0.0,4.4288,4.4683,4.5376,4.627,4.4922,4.3769,4.276,4.2213,4.1748,4.1414,4.0773,4.0567,4.0516,3.9929,4.0074,4.0551,3.9923,4.0074,4.0526,3.9923,3.9697,3.98,4.0364,4.0567,4.0743,4.2035,0.0,0.0,0.0,4.4744,4.5779,4.8309,5.1282,5.4127,5.5961,5.7845,5.9257,5.9125,5.878,5.841,5.8007,5.7343,5.7141,5.827,5.79,5.7159,5.634,5.6219,5.6219,5.6219,5.6219,5.6219,5.6219,5.6219,5.6219,5.6219,5.6219,5.6219,5.6219,5.6219,5.6219,5.6219,5.6968,5.7349,5.7349,5.8179,5.8578,5.8578,5.9574,6.1528,6.4281,6.5105,6.5837,6.643,6.5772,6.5473,6.5413,6.4755,6.4066,6.3498,6.3498,6.3318,6.3079,6.3079,6.3079,6.3079,6.3079,6.2497,6.1644,0.0,0.0,0.0,0.0,0.0,0.0,0.0,0.0,0.0,0.0,0.0,0.0,3.2265,0.0,0.0,0.0,0.0,0.0,3.2823,0.0,0.0,0.0,0.0,0.0,0.0,0.0,4.2164,4.2024,4.3952,4.5228,4.5924,4.6512,4.6483,4.5848,4.3691,4.2135,4.1025,4.0249,3.9898,3.9923,4.0049,4.0601,4.1225,4.0727,4.1028,4.1605,4.0501,4.0124,4.0074,3.9798,3.9697,3.9853,4.0663,4.0911,0.0,0.0,0.0,4.3787,4.6048,4.8177,5.0352,5.2496,5.4272,5.5552,5.606,5.5649,5.5208,5.5215,5.4423,5.4353,5.6583,5.6468,5.6018,5.6018,5.6118,5.6219,5.6219,5.6219,5.6219,5.6219,5.6219,5.6219,5.6219,5.6219,5.6219,5.6219,5.6219,5.6219,5.6219,5.6219,5.6219,5.6219,5.6219,5.6219,5.6219,5.7966,6.047,6.3606,6.3916,6.4735,6.5981,6.5144,6.4755,6.4725,6.4066,6.3498,6.3079,6.3079,6.3079,6.3079,6.3079,6.3079,6.3079,6.3079,6.1969,6.0451,0.0,0.0,0.0,0.0,0.0,0.0,0.0,0.0,0.0,0.0,0.0,0.0,3.2265,3.1712,3.1185,3.0578,0.0,0.0,0.0,0.0,0.0,0.0,0.0,0.0,0.0,3.7829,3.897,4.0145,4.2538,4.4962,4.7391,4.7741,4.795,4.7843,4.5391,4.2918,4.0551,4.0501,4.0475,4.0526,4.1,4.1225,4.1401,4.2434,4.2836,4.2735,4.1656,4.12,4.105,4.0049,3.9697,3.9597,3.9171,3.9045,3.9195,0.0,0.0,0.0,4.2678,4.4641,4.7047,4.8661,5.1078,5.3082,5.3192,5.3938,5.4171,5.2624,5.3074,5.3708,5.3898,5.4758,5.544,5.544,5.5867,5.6219,5.6219,5.6219,5.6219,5.6219,5.6219,5.6219,5.6219,5.6219,5.6219,5.6219,5.6219,5.6219,5.6219,5.6219,5.6219,5.6219,5.6219,5.6219,5.6219,5.7966,5.9851,6.173,6.2814,6.4297,6.5951,6.4665,6.4066,6.4006,6.3408,6.3109,6.3079,6.3079,6.3079,6.3079,6.3079,6.3079,6.3079,6.3079,6.1969,6.0393,0.0,0.0,0.0,0.0,0.0,0.0,0.0,0.0,0.0,0.0,0.0,0.0,0.0,3.2265,3.1547,3.0657,3.0615,0.0,0.0,0.0,0.0,0.0,0.0,0.0,3.5302,3.7123,3.8148,3.828,4.0581,4.3085,4.5685,4.6541,4.6995,4.6943,4.5081,4.3047,4.0949,4.03,3.9998,4.0049,4.0601,4.1455,4.2308,4.1656,4.2484,4.379,4.1927,4.1275,4.1225,4.0824,4.0275,3.9597,3.9095,3.8919,3.8844,3.8732,3.9168,3.9826,4.0491,4.1595,4.2996,4.463,4.6907,4.8745,4.9148,5.0601,5.1736,5.1154,5.19,5.2678,5.2678,5.416,5.539,5.539,5.5842,5.6219,5.6219,5.6219,5.6219,5.6219,5.6219,5.6219,5.6219,5.6219,5.6219,5.6219,5.6219,5.6219,5.6219,5.6219,5.6219,5.6219,5.6219,5.6219,5.6219,5.6823,5.7926,5.9356,6.0861,6.2139,6.3103,6.3714,6.3767,6.3408,6.3169,6.3079,6.3079,6.3079,6.3079,6.3079,6.3079,6.3079,6.3079,6.3079,6.1347,5.8834,0.0,0.0,0.0,0.0,0.0,0.0,0.0,0.0,0.0,3.3671,0.0,0.0,0.0,0.0,3.212,3.1217,3.132,3.1742,3.25,0.0,0.0,0.0,0.0,0.0,3.4956,3.6662,3.7358,3.6994,3.8926,4.1093,4.3403,4.4787,4.543,4.5349,4.4202,4.2892,4.1613,4.0608,4.0149,4.0049,4.0978,4.1781,4.2409,4.2233,4.3087,4.4166,4.2685,4.2158,4.2108,4.1731,4.1128,4.0325,3.9271,3.8542,3.8014,3.7563,3.7588,3.7889,3.8642,3.9245,4.0124,4.1957,4.3539,4.502,4.6527,4.8259,4.969,5.0067,5.1046,5.1875,5.2076,5.3457,5.4687,5.5039,5.5566,5.5993,5.6194,5.5582,5.5435,5.6146,5.5582,5.5435,5.6146,5.6219,5.6219,5.6219,5.6219,0.0,5.6219,5.6219,5.6219,5.6219,5.6219,5.6219,5.6219,5.6018,5.6698,5.8101,5.8833,5.9987,6.152,6.2437,6.2941,6.3079,6.3079,6.3079,6.3079,6.3079,6.3079,6.3079,6.3079,6.3079,6.3021,6.2409,6.0448,5.7859,0.0,0.0,0.0,0.0,0.0,0.0,0.0,0.0,3.4731,3.4751,0.0,0.0,0.0,0.0,0.0,3.2365,3.2817,3.2686,3.156,3.186,0.0,0.0,0.0,0.0,3.5465,3.606,3.6383,3.643,3.7658,3.9117,4.0882,4.2671,4.3503,4.3381,4.2852,4.2512,4.2336,4.1559,4.0949,4.0651,4.2283,4.2333,4.1652,4.4392,4.4769,4.3865,4.384,4.3815,4.3639,4.264,4.2238,4.1785,3.9598,3.7762,3.6405,3.6405,3.6807,3.7186,0.0,0.0,0.0,4.0648,4.1225,4.2128,4.5422,4.7029,4.8134,4.9264,5.0419,5.1398,5.1975,5.2528,5.3256,5.4361,5.5013,5.5591,5.6143,5.4423,5.3876,5.5901,5.4274,5.3801,5.5901,5.612,5.6146,5.6219,5.6219,5.6219,5.6219,5.6219,5.6219,5.6219,5.6219,5.612,5.6095,5.5569,5.6147,5.7772,5.6709,5.7982,6.1217,6.0646,6.1377,6.3021,6.3021,6.3079,6.3079,6.3079,6.3079,6.3079,6.3079,6.3079,6.2817,6.111,5.9413,5.7578,0.0,0.0,0.0,0.0,0.0,3.8538,3.8167,3.6862,3.5755,0.0,0.0,0.0,3.4731,3.4756,3.4756,3.458,3.4731,3.454,3.3826,3.2182,3.1806,3.3078,3.2077,3.2672,3.5235,3.5355,3.5893,3.7008,3.7318,3.8209,3.962,4.0962,4.2037,4.289,4.2595,4.2224,4.1755,4.0618,4.03,4.0601,4.1455,4.2333,4.3162,4.3539,4.4468,4.5497,4.4694,4.4141,4.3815,4.3915,4.261,4.0651,3.8818,3.7387,3.6405,3.6405,3.6807,3.7086,3.6757,0.0,0.0,0.0,0.0,0.0,0.0,4.4166,4.5849,4.6979,4.841,4.9891,5.1247,5.195,5.2678,5.3758,5.4762,5.5591,5.6143,5.4423,5.3326,5.3876,5.209,5.1708,5.3801,5.3951,5.4572,0.0,5.6219,5.6219,5.6219,5.6219,5.6219,5.6219,5.6219,5.531,5.3445,5.33,5.2353,5.0788,5.3068,5.4457,5.5089,5.7596,5.9626,6.1198,6.1198,6.191,6.3079,6.3079,6.3079,6.3079,6.3079,6.235,6.1198,6.069,5.8641,5.5969,0.0,0.0,0.0,0.0,0.0,4.0394,3.9561,3.8569,3.7552,0.0,0.0,0.0,3.5805,3.6232,3.6436,3.6257,3.6232,3.6107,3.578,3.3625,3.2808,3.3838,3.2527,3.2679,3.4546,3.5102,3.5781,3.6603,3.6995,3.7696,3.8666,3.955,4.0537,4.1457,4.1328,4.1104,4.0743,4.0032,3.9873,4.03,4.1781,4.266,4.3212,4.4041,4.4869,4.5547,4.5146,4.4769,4.4543,4.4869,4.3137,4.0601,3.917,3.7939,3.7008,3.6531,3.6958,3.7412,3.6908,3.7588,3.8542,3.8668,0.0,0.0,4.1756,4.3011,4.4392,0.0,4.7255,4.8586,5.0268,5.0845,5.1574,5.313,5.3934,5.4402,5.4573,5.2957,5.1785,5.1785,4.9908,4.9518,5.1631,5.2547,5.3576,5.4819,5.5754,5.6219,5.6219,5.6219,5.6219,5.6219,5.5361,5.4178,5.2723,5.1451,4.987,4.8157,4.9885,5.0882,5.1329,5.351,5.5847,5.8195,5.8195,5.9239,6.0988,6.0988,6.1792,6.3079,6.3079,6.2028,6.0419,5.9749,5.7724,5.5261,0.0,0.0,4.476,4.4893,4.3369,4.1801,4.067,4.0192,3.9621,0.0,3.8139,3.7864,3.7513,3.7839,3.7914,3.7412,3.7362,3.7337,3.7287,3.5405,3.4284,3.4355,3.3724,3.3409,3.3635,3.4947,3.5746,3.59,3.6826,3.7538,3.8015,3.8592,3.912,3.9597,3.9672,3.9697,3.9697,3.9697,3.9772,4.0099,4.261,4.3137,4.2766,4.5246,4.5673,4.497,4.5422,4.5547,4.5472,4.5271,4.3564,4.1304,4.0074,3.8994,3.799,3.686,3.7337,3.8065,3.7437,3.7713,3.8417,3.9371,3.927,0.0,4.2057,4.266,4.3313,0.0,4.6301,4.7179,4.8837,4.9188,4.9891,5.1875,5.2503,5.2705,5.2618,5.1033,4.9941,4.9986,4.7884,4.7326,4.944,5.1324,5.2471,5.2722,5.4646,5.5827,5.5827,5.6047,5.6219,5.6219,5.4175,5.2953,5.2608,4.964,4.8009,4.767,4.6765,4.7091,4.8636,4.8613,5.0555,5.4037,5.4261,5.5599,5.7696,5.7914,5.9777,6.2497,6.2497,6.1466,5.9721,5.823,5.6596,5.4916,0.0,4.487,4.556,4.6592,4.5622,4.4607,4.4351,4.2214,4.0562,4.0297,3.8932,3.8316,3.912,3.8894,3.8668,3.8592,3.8592,3.8341,3.7889,3.5088,3.36,3.3883,3.1641,3.1113,3.2657,3.4016,3.5297,3.6526,3.7418,3.7889,3.8015,3.8592,3.8969,3.9044,3.9496,3.9697,3.9697,3.9697,4.0199,4.1103,4.2082,4.3137,4.4242,4.5271,4.605,4.6602,4.6276,4.5874,4.5271,4.3915,4.3112,4.2308,0.0,3.9546,3.9145,3.8015,3.8492,3.9145,3.8115,3.8592,3.932,3.9094,0.0,0.0,4.0199,4.0676,4.1379,0.0,4.3413,4.4292,4.5974,4.6652,4.7104,4.7531,4.9841,5.2341,5.4486,5.1615,4.9461,4.9941,4.6626,4.5128,4.7246,4.7804,4.8733,5.0452,5.2547,5.3726,5.3726,5.5287,5.6219,5.6219,5.4175,5.1996,4.9556,4.7302,4.497,4.2611,4.2229,4.218,4.25,4.2337,4.4387,4.8098,4.9712,5.2396,5.5729,5.7323,5.8383,5.9008,5.9008,5.7914,5.6375,5.601,5.4809,5.3359,4.3658,4.4704,4.5779,4.7062,4.677,4.5913,4.4627,4.316,4.1785,4.0792,3.9829,3.9371,3.9672,3.9446,3.927,3.927,3.9019,3.8743,3.8467,3.6016,3.4343,3.381,3.2011,3.1121,3.1288,3.3626,3.5066,3.5541,3.7775,3.8718,3.8442,3.9019,3.9421,3.9697,3.9697,3.9848,4.0099,3.9798,4.0023,4.0676,4.261,4.4066,4.5171,4.6276,4.6878,4.7054,4.6502,4.6125,4.5673,4.4267,4.3438,0.0,4.1028,4.0325,3.9898,0.0,3.922,3.9873,3.8743,3.9044,3.9622,3.9346,0.0,0.0,0.0,4.0325,4.0827,4.1986,4.2439,4.3042,4.4392,4.4869,4.5321,4.6175,4.8159,5.0193,5.185,5.1058,5.0033,4.9638,4.6749,4.5351,4.6685,4.6786,4.7725,4.983,5.1016,5.1555,5.1555,5.2547,5.31,5.31,5.1093,4.9163,4.7486,4.5117,4.3178,4.1484,4.0002,3.9362,3.9284,3.8134,3.9778,4.3646,4.4589,4.7855,5.2571,5.3596,5.4571,5.567,5.7305,5.6892,5.5419,5.5419,5.4366,5.2929,4.2801,4.4163,4.5434,4.6726,4.7149,4.655,4.421,4.3646,4.276,4.0792,4.0601,4.0551,4.0199,4.0249,4.0375,4.0475,3.9973,3.9673,3.9573,3.7621,3.5817,3.4289,3.3028,3.1799,3.0507,3.3639,3.5032,3.4575,3.8049,3.9471,3.9044,3.9496,3.9923,4.035,3.9998,4.0049,4.0325,3.9998,4.0049,4.0576,4.3338,4.4618,4.502,4.6652,4.7079,4.6778,4.6426,4.6301,4.6125,4.4895,4.3865,4.2911,4.1605,4.1028,0.0,0.0,0.0,0.0,0.0,0.0,0.0,0.0,0.0,3.9798,0.0,0.0,0.0,4.1559,4.1735,0.0,0.0,0.0,0.0,0.0,0.0,0.0,0.0,4.9395,0.0,4.8883,4.6992,4.5911,4.6267,4.6007,4.6568,4.8632,4.8785,4.8952,4.9339,4.9663,4.9897,4.9986,4.836,4.723,4.6635,4.4591,4.3159,4.219,3.9231,3.7621,3.7162,3.4651,3.5697,3.9658,4.0027,4.3694,4.9463,4.9819,5.1163,5.3179,5.5906,5.6141,5.4916,5.4916,5.4055,5.2929,4.1541,4.2834,4.4116,4.5389,4.655,4.6814,4.5389,4.421,4.276,4.0792,4.0899,4.1404,4.1886,4.2363,4.2811,4.3288,4.2836,4.2363,4.1861,3.955,3.7434,3.5759,3.3544,3.2051,3.1348,3.3926,3.5266,3.5199,3.8218,3.9672,3.9597,3.9672,3.9722,3.9798,4.0224,4.0199,3.9823,4.0249,4.1279,4.2685,4.3539,4.3338,4.2766,4.4367,4.5271,4.5723,4.615,4.6301,4.605,0.0,4.3815,4.3338,0.0,4.1229,4.171,4.0074,0.0,0.0,0.0,0.0,0.0,0.0,3.9697,0.0,0.0,0.0,3.9823,3.9948,0.0,0.0,0.0,0.0,0.0,0.0,0.0,0.0,4.4367,4.6245,4.7577,4.7506,4.5866,4.4767,4.4654,4.2951,4.2546,4.4293,4.436,4.5142,4.706,4.8574,4.9538,4.9986,4.9752,4.9151,4.824,4.7945,4.6475,4.3801,3.9618,3.6702,3.4894,3.0842,3.1309,3.5507,3.7205,4.1529,4.7467,4.9224,5.1163,5.2929,5.3316,5.3384,5.3179,5.3179,5.3042,5.2929,4.1369,4.2641,4.3693,4.421,4.5343,4.5553,4.3504,4.2938,4.2216,4.0709,4.1555,4.2258,4.2213,4.2414,4.2861,4.374,4.2627,4.2144,4.2604,3.9569,3.7315,3.6397,3.4116,3.2379,3.1504,3.3158,3.4459,3.5288,3.7423,3.8844,3.9697,3.9697,3.9873,4.0174,4.04,4.0727,4.1128,4.1028,4.1404,4.2108,4.2986,4.2861,0.0,4.507,4.6024,4.5999,4.6225,4.6301,4.615,0.0,4.4116,0.0,0.0,0.0,0.0,4.0752,0.0,0.0,0.0,0.0,0.0,0.0,0.0,0.0,3.9848,0.0,3.9697,0.0,0.0,0.0,0.0,0.0,0.0,0.0,4.1681,0.0,0.0,0.0,4.5907,0.0,0.0,0.0,4.2205,4.1341,4.1406,0.0,4.2503,4.2948,4.4583,4.5345,4.5906,4.6363,4.723,4.7389,4.672,4.756,4.6699,4.4096,4.0917,3.8425,3.6442,3.3349,3.3676,3.6665,3.8582,4.2333,4.7248,5.0242,5.261,5.4433,5.5446,5.4634,5.2929,5.2929,5.2929,5.2929,4.0895,4.2133,4.2978,4.2978,4.4022,4.4172,4.2149,4.1773,4.153,4.1028,4.2133,4.3067,4.3118,4.3394,4.4016,4.5271,4.3542,4.276,4.3366,3.9825,3.7377,3.6611,3.4453,3.281,3.1855,3.2772,3.3749,3.4681,3.6595,3.8031,3.9077,3.9517,3.9898,4.03,4.045,4.1053,4.1907,4.1656,4.1831,4.2278,4.3288,4.3614,4.374,4.5874,4.6527,4.6301,4.6301,4.6301,4.62,4.5497,4.4443,0.0,4.3539,0.0,0.0,0.0,0.0,0.0,4.0099,0.0,0.0,0.0,0.0,0.0,0.0,0.0,0.0,0.0,0.0,0.0,0.0,0.0,0.0,0.0,0.0,4.158,0.0,4.2429,0.0,0.0,0.0,0.0,0.0,3.9609,4.0098,4.1621,0.0,4.0879,4.2637,4.2734,4.293,4.334,4.5227,4.6185,4.5988,4.7804,4.773,4.5701,4.2905,4.0608,3.8614,3.5926,3.5863,3.7975,3.9362,4.2642,4.7226,5.0427,5.3165,5.5551,5.7277,5.6493,5.4257,5.3742,5.3606,5.3495,3.9749,4.0794,4.164,4.164,4.2689,4.3314,4.2507,4.1363,4.0927,4.2011,4.2665,4.3589,4.5196,4.6326,4.7631,4.9264,4.7232,4.5491,4.4618,4.0984,3.8065,3.6394,3.4655,3.3425,3.2796,3.3348,3.3518,3.3191,3.6085,3.7506,3.7583,3.9025,3.9697,3.9747,4.0275,4.0827,4.1351,4.1907,4.3062,4.4568,4.5171,4.6024,4.6878,0.0,4.5849,4.6301,4.6301,0.0,0.0,4.502,4.4618,0.0,0.0,0.0,0.0,0.0,0.0,0.0,0.0,0.0,0.0,3.9848,0.0,0.0,0.0,0.0,4.035,0.0,0.0,0.0,0.0,0.0,0.0,0.0,0.0,0.0,0.0,0.0,0.0,0.0,0.0,0.0,0.0,3.7266,3.7676,0.0,3.8379,0.0,4.168,4.1836,4.2031,4.2461,4.5287,4.704,4.7589,5.0049,5.0815,4.9748,4.5631,4.2672,4.0589,3.6515,3.5863,3.7896,3.7975,4.1401,4.7153,4.8967,5.1974,5.5551,5.7277,5.7941,5.7624,5.5945,5.5287,5.5115,3.9697,4.0032,4.0364,4.0364,4.1419,4.1974,4.126,4.1423,4.2133,4.3589,4.4593,4.5824,4.7481,4.8008,4.8736,5.0017,4.7045,4.5366,4.5912,4.065,3.7662,3.8082,3.5121,3.3567,3.3633,3.3051,3.2967,3.3518,3.5224,3.6541,3.753,3.9025,3.9697,3.9722,4.0275,4.1229,4.2434,4.261,4.3664,4.5271,0.0,4.6803,4.7043,0.0,4.6476,4.6301,4.6301,4.6301,0.0,4.5874,4.5246,4.4618,4.4644,4.3865,4.2936,4.276,4.2766,0.0,0.0,0.0,4.2836,4.1204,0.0,0.0,0.0,0.0,0.0,0.0,0.0,0.0,0.0,0.0,0.0,0.0,0.0,0.0,0.0,0.0,0.0,0.0,0.0,0.0,0.0,0.0,0.0,0.0,3.9911,0.0,0.0,4.189,4.1582,4.1992,4.4263,4.5462,4.5684,4.8864,4.9648,4.7999,4.6595,4.487,4.2876,4.0257,3.9374,4.0178,4.1422,4.3882,4.7248,5.0287,5.3721,5.7277,5.898,6.0387,6.1048,5.8167,5.7112,5.7048,3.9825,3.9697,3.9697,3.9697,4.0517,4.1081,4.0832,4.1907,4.3263,4.4744,4.6075,4.7431,4.8912,4.9414,5.0017,5.0946,4.7535,4.5502,4.5887,4.0429,0.0,3.8336,3.5746,3.4551,3.498,3.3574,3.303,3.3389,3.4801,3.594,3.6757,3.8739,3.9697,3.9722,4.0074,4.1254,4.2986,4.2986,4.4166,0.0,0.0,4.7707,0.0,0.0,4.7129,4.6301,0.0,4.6426,4.6577,4.6376,4.5824,4.5296,4.5673,4.4895,4.3865,4.3865,4.3714,4.3438,4.2886,4.3514,0.0,4.2333,4.2459,0.0,4.0701,0.0,0.0,0.0,0.0,0.0,0.0,0.0,0.0,0.0,0.0,0.0,0.0,3.681,0.0,0.0,0.0,0.0,0.0,0.0,3.8819,4.1104,4.1104,0.0,0.0,0.0,4.1731,4.1328,4.2973,4.4102,4.444,4.6899,4.7721,4.6955,4.6293,4.5351,4.4021,4.2042,4.1172,4.125,4.2483,4.4172,4.6271,4.9982,5.3292,5.6332,5.9323,6.1198,6.191,5.9688,5.8509,5.8005,4.0132,3.9772,3.9874,3.9901,4.0304,4.0807,4.1333,4.2927,4.4497,4.5767,4.7298,4.885,5.0013,5.0993,5.1783,5.2312,4.885,4.6081,4.473,4.0539,0.0,0.0,3.6601,3.6309,3.6719,3.5,3.3755,3.2976,3.4911,3.5781,3.5498,3.8372,3.9697,3.9697,3.9697,4.0927,4.2986,4.2986,4.4593,4.7255,4.8335,4.8761,4.8736,4.8761,4.7782,4.6376,4.6376,4.6728,4.7043,4.6577,4.6376,4.6351,4.6351,4.5974,4.5522,4.5497,4.5121,4.4593,4.4041,4.389,4.379,4.3212,0.0,0.0,0.0,0.0,4.2082,0.0,0.0,0.0,0.0,0.0,0.0,0.0,0.0,0.0,0.0,0.0,0.0,0.0,0.0,0.0,0.0,3.6412,3.7949,4.1024,4.1627,4.1683,0.0,0.0,4.2317,4.0565,4.1719,4.2881,4.3945,4.444,4.5405,4.6809,4.4977,4.4096,4.4021,4.2042,4.1172,4.1172,4.1172,4.2273,4.4356,4.7869,5.054,5.2979,5.8091,6.0269,6.048,6.06,5.9626,5.8257,4.0662,4.0978,4.1935,4.3023,4.2501,4.2267,4.331,4.5955,4.8679,5.1111,5.3565,5.5635,5.7136,5.6372,5.5857,5.5919,5.2098,0.0,0.0,0.0,0.0,3.9762,3.8242,3.748,3.7598,3.5586,3.4903,3.552,3.5758,3.644,3.7535,3.9041,3.9697,3.9697,3.9697,4.0927,4.2986,4.2986,4.4819,4.7782,4.8485,4.851,4.8184,0.0,4.8234,4.7506,4.7506,4.7581,4.7682,4.7556,4.723,4.6928,4.6928,4.6552,4.6024,4.5623,4.5673,4.5748,4.5196,4.5347,4.5422,4.4443,4.4192,4.3915,0.0,0.0,0.0,0.0,0.0,0.0,0.0,0.0,0.0,0.0,0.0,0.0,0.0,0.0,0.0,3.3735,0.0,0.0,0.0,3.7933,4.0416,4.2488,4.2514,0.0,0.0,0.0,0.0,4.0115,4.0996,4.1621,4.1907,4.3483,4.4428,4.4827,4.4323,4.4096,4.4021,4.2042,4.1172,4.1172,4.1172,4.2273,4.4151,4.5137,4.8298,5.2639,5.4056,5.7022,6.0661,6.1969,6.2175,6.1792,4.3434,4.4046,4.5103,4.5975,4.6411,0.0,4.7215,4.8514,0.0,5.3146,5.5446,0.0,5.8151,5.7904,5.752,5.735,5.352,0.0,4.9064,0.0,0.0,4.1892,3.9998,3.9062,3.9062,3.7129,0.0,3.7315,0.0,3.7258,3.8346,3.9272,3.9697,3.9697,3.9697,4.0651,4.2333,4.3564,4.5296,4.7305,4.836,4.8711,0.0,4.9012,4.8937,4.8636,4.8636,4.8485,4.8234,4.7983,4.7707,4.7431,4.7143,4.6928,4.6552,4.5999,4.6075,4.625,4.5924,4.6075,4.615,4.5522,4.5347,4.507,4.394,4.394,4.4066,0.0,0.0,0.0,0.0,0.0,0.0,0.0,0.0,0.0,0.0,0.0,0.0,0.0,3.3576,0.0,0.0,3.8999,4.1694,4.3587,4.3879,0.0,0.0,0.0,0.0,3.9371,4.0351,4.0976,4.1172,4.2273,4.2846,4.2846,4.2846,4.3304,4.4021,4.2042,4.1695,4.2427,4.154,4.183,4.2922,4.3718,4.6006,4.9085,5.1541,5.534,5.9626,6.1318,6.2438,6.3079,4.7024,4.7771,4.868,4.8782,5.09,0.0,0.0,5.1762,0.0,5.445,0.0,5.7428,5.7428,5.8336,5.8613,5.7928,0.0,5.1898,5.0651,4.7515,4.5244,4.4209,4.233,4.1175,4.089,3.9155,3.8436,0.0,0.0,3.8078,3.8617,3.9325,3.9697,3.9697,3.9697,4.04,0.0,4.4367,4.5874,4.6652,4.8159,4.9113,4.959,4.959,4.964,4.969,4.9615,4.9289,4.8812,4.8309,4.8083,4.7933,4.7405,4.7179,4.6968,4.6476,4.6301,4.6301,4.6301,4.6301,4.6301,4.6301,4.6301,4.605,4.507,4.4844,4.4844,4.4844,4.4091,4.3539,0.0,0.0,0.0,0.0,0.0,0.0,0.0,0.0,0.0,0.0,0.0,0.0,0.0,0.0,0.0,0.0,0.0,0.0,0.0,0.0,0.0,3.9044,3.9994,4.0703,4.1074,0.0,4.1172,4.1172,4.1463,4.2483,4.4021,4.2637,4.2713,4.4021,4.235,4.1463,4.1327,4.2999,4.3869,4.4656,5.0052,5.4215,5.7505,5.9172,6.0901,6.2497,4.8897,4.9604,5.0649,5.1309,0.0,5.6171,5.8955,5.9244,5.9661,6.1198,6.3534,6.5071,6.5071,6.3983,6.2596,6.0956,5.8456,0.0,0.0,0.0,0.0,4.7247,4.6029,4.4586,4.2978,4.1263,4.0324,0.0,0.0,0.0,4.0106,3.9844,3.9697,3.9697,3.9697,0.0,4.2811,4.4694,0.0,4.7707,4.846,4.9113,4.959,4.959,4.9866,5.0218,4.9766,4.954,4.9439,4.9339,4.8987,4.851,4.7958,4.7481,4.6968,4.6476,4.6301,4.6301,4.6301,4.6301,4.6301,4.6301,4.6301,4.625,4.605,4.6024,4.6024,4.6024,4.5849,4.5429,4.4584,0.0,0.0,0.0,0.0,0.0,0.0,0.0,0.0,0.0,0.0,3.4804,0.0,0.0,0.0,0.0,0.0,0.0,0.0,0.0,0.0,0.0,4.0554,0.0,0.0,0.0,4.1172,4.125,4.2846,4.3794,4.4172,4.5425,4.5276,4.4096,4.3718,4.2713,4.125,4.154,4.2637,4.4506,4.8515,5.1467,5.3654,5.5338,5.7186,5.9318,5.2926,5.3261,5.411,5.5477,0.0,0.0,0.0,6.3199,6.3528,6.3139,6.4186,6.4964,6.4964,6.4568,6.3959,6.3084,6.0267,5.7781,5.5905,5.2962,5.0786,4.9882,4.7794,4.6255,4.5301,4.4003,4.319,4.2894,0.0,0.0,4.0874,0.0,3.9697,3.9722,4.03,4.1128,0.0,0.0,0.0,4.7179,4.8309,4.9113,4.959,4.959,4.9766,4.9992,5.0017,5.0017,4.9967,4.969,4.9414,4.9113,4.8535,4.8184,4.7807,4.6979,4.6728,4.6677,4.6376,4.6301,4.6301,4.6301,4.6301,4.6301,4.6301,4.6301,4.6301,4.6301,4.6301,4.5445,4.2652,3.9356,0.0,0.0,0.0,0.0,0.0,0.0,0.0,0.0,0.0,0.0,0.0,0.0,0.0,0.0,0.0,0.0,0.0,0.0,0.0,0.0,0.0,0.0,0.0,0.0,0.0,4.2713,4.3642,4.518,4.7175,4.7029,4.7029,4.7029,4.4977,4.4172,4.4193,4.4193,4.4774,4.5775,4.7572,4.8823,4.9818,5.16,5.2827,5.4311,5.6765,5.6915,0.0,0.0,6.0296,6.1613,6.3677,6.5263,6.5652,6.4096,6.3917,6.3917,6.3917,6.4496,6.4694,6.4345,6.1663,5.9851,5.9504,5.5294,5.2815,5.2815,5.0002,4.8163,4.7636,4.6936,4.6127,0.0,0.0,0.0,0.0,0.0,0.0,0.0,0.0,0.0,0.0,0.0,4.6125,4.6954,4.8385,4.9213,4.959,4.959,4.9741,4.9992,5.0293,5.0569,5.067,4.9992,4.9766,4.9665,4.8987,4.8761,4.8586,4.7581,4.7305,4.7179,4.6627,4.6476,4.6451,4.6351,4.6301,4.6301,4.6301,4.6301,4.6301,4.6301,4.6301,4.5083,4.1152,3.8596,0.0,0.0,0.0,0.0,0.0,0.0,0.0,0.0,0.0,0.0,3.7846,0.0,0.0,0.0,0.0,0.0,3.9719,3.8487,3.7765,0.0,0.0,3.8965,4.0098,0.0,4.1679,4.4096,4.4527,4.6588,4.9961,4.8794,4.8866,4.9819,4.6735,4.5998,4.7029,4.7029,4.7029,4.6955,4.6514,4.6662,4.7079,4.8059,4.8706,4.9699,0.0,0.0,0.0,0.0,0.0,6.3707,6.3947,6.5652,6.6819,6.664,6.661,6.661,6.661,6.6697,6.6106,6.4438,6.4024,6.3084,6.1461,5.8479,5.6752,5.6752,5.4417,5.1978,4.9748,4.9748,4.8444,0.0,0.0,4.2938,0.0,0.0,0.0,0.0,0.0,0.0,0.0,4.5924,4.7129,4.8611,4.9264,4.954,4.959,4.959,5.0218,5.1071,5.0594,5.1071,5.1774,5.0695,5.0343,5.0167,4.9113,4.8761,4.8661,4.8033,4.7832,4.7732,4.7205,4.7054,4.6928,4.6426,4.6301,4.6301,4.6301,4.6301,4.6301,4.6301,4.6301,4.5445,4.2688,4.1352,3.9768,0.0,0.0,0.0,0.0,0.0,3.6729,3.6373,0.0,0.0,0.0,3.9355,0.0,0.0,4.102,0.0,3.9742,3.8487,3.8047,3.8458,0.0,3.8242,3.875,3.9922,4.1679,4.4096,4.5849,4.7904,5.0032,5.1607,5.1513,4.9961,4.9605,4.8506,4.7029,4.7029,4.7029,4.6809,4.5052,4.5425,4.6809,4.5158,4.5753,4.7299,0.0,0.0,0.0,0.0,0.0,0.0,0.0,6.646,6.6999,6.6999,6.6999,6.6999,6.6999,6.6999,6.6723,6.5981,6.4949,6.4024,6.328,6.0463,5.8537,5.7826,5.6164,5.4268,5.2284,5.1989,5.0567,0.0,0.0,4.4462,4.3112,4.2007,0.0,0.0,0.0,4.4618,4.605,4.728,4.8159,4.8812,4.9364,4.959,4.964,4.9967,5.0368,5.082,5.1272,5.1724,5.2026,5.1574,5.0971,5.0293,4.9515,4.9264,4.9163,4.8586,4.8435,4.8309,4.7757,4.7606,4.7556,4.733,4.7029,4.6803,4.6803,4.6552,4.6301,4.6301,4.6301,4.5643,4.3551,4.2791,4.1867,0.0,0.0,0.0,0.0,0.0,0.0,3.8985,0.0,3.9252,0.0,0.0,0.0,0.0,0.0,0.0,0.0,3.7027,0.0,3.7038,0.0,3.8008,3.8945,3.9746,4.2078,4.5849,4.6588,4.865,5.1747,5.256,5.1816,5.0056,5.1233,5.0646,4.8866,5.0056,4.9819,4.8722,4.7904,4.6662,4.5201,4.4377,4.389,4.3532,6.3588,0.0,6.3528,0.0,6.5203,6.5353,6.6759,6.6999,6.6999,6.6999,6.6999,6.6999,6.6999,6.6999,6.6999,6.6999,6.5827,6.5105,6.5105,6.2416,6.0308,5.8966,5.7607,0.0,5.3778,5.3507,5.2402,5.0343,4.8284,0.0,4.497,0.0,0.0,0.0,4.5372,4.6225,4.7104,4.8284,4.8862,4.9063,4.9439,4.969,4.9866,5.0092,5.0469,5.0996,5.1624,5.2076,5.2327,5.2151,5.1574,5.0795,5.0067,4.9841,4.9715,4.9163,4.9012,4.8887,4.8309,4.8159,4.8134,4.7958,4.7631,4.733,4.7179,4.7167,4.7112,4.6959,4.6727,4.6163,4.4925,4.4154,4.3449,4.2885,0.0,0.0,0.0,0.0,0.0,0.0,4.0854,4.0901,4.1115,4.1347,0.0,0.0,0.0,0.0,0.0,0.0,0.0,0.0,0.0,0.0,0.0,3.8651,4.1404,4.6146,4.6735,4.8794,5.205,5.2629,5.2119,5.0928,5.2327,5.2119,5.0928,5.2327,5.2119,5.0787,5.0198,4.8289,4.5797,4.5352,4.3947,4.2242,6.4755,6.4994,6.5413,6.6729,6.6969,6.6969,6.6999,6.6999,6.6999,6.6999,6.6999,6.6999,6.6999,6.6999,6.6999,6.6999,6.6999,6.6999,6.6999,6.4744,6.2666,0.0,0.0,5.6678,5.3803,5.426,5.3733,5.2076,0.0,0.0,4.7807,0.0,4.5196,4.6276,4.6301,4.7205,4.8736,4.8761,4.9088,4.959,4.959,4.9916,5.0343,4.9816,5.0645,5.2026,5.1473,5.2,5.2829,5.2277,5.2101,5.1875,5.077,5.0419,5.0293,4.9741,4.959,4.9464,4.8912,4.8761,4.8636,4.8058,4.7908,4.7757,4.7193,4.824,4.9133,4.8579,4.7761,4.7068,4.7068,4.5695,4.4579,4.4681,0.0,0.0,0.0,0.0,0.0,4.2291,4.1567,4.1022,4.0663,0.0,0.0,0.0,0.0,0.0,0.0,0.0,0.0,3.3083,3.3408,0.0,3.5533,3.6403,3.9319,4.4172,4.6072,4.8072,5.0127,5.2025,5.2861,5.2861,5.2861,5.2861,5.2861,5.2861,5.2861,5.2629,5.0787,4.9961,4.9747,4.835,4.6495,4.467,6.6281,6.637,6.649,6.6909,6.6999,6.6999,6.6999,6.6999,6.6999,6.6999,6.6999,6.6999,6.6999,6.6999,6.6999,0.0,6.6999,6.6999,0.0,6.5852,6.4597,6.3228,6.0971,5.8805,5.6773,5.5318,5.3934,5.2678,0.0,0.0,0.0,4.7606,4.7657,4.8008,4.8385,4.8837,4.9339,4.9339,4.9439,4.9615,5.0017,5.0268,5.0494,5.1071,5.1649,5.2126,5.2327,5.2628,5.3017,5.4025,5.3596,5.2732,5.3137,5.1932,5.0318,4.9766,4.959,4.9565,4.9389,4.9339,4.9289,4.9113,4.8761,4.846,4.8284,4.9151,5.0259,5.1153,5.079,5.0358,5.082,5.0409,5.0135,5.0618,5.083,0.0,0.0,0.0,0.0,4.6187,4.5431,4.4472,0.0,4.2658,0.0,0.0,0.0,0.0,0.0,0.0,0.0,0.0,3.366,0.0,3.5497,3.6385,3.9109,4.3709,4.5918,4.8722,5.1956,5.2629,5.2929,5.2929,5.2929,5.2929,5.2929,5.2929,5.2929,5.2861,5.2189,5.1163,4.9961,4.9906,4.8378,4.6133,6.6999,6.6999,6.6999,6.6999,6.6999,6.6999,6.6999,6.6999,6.6999,6.6999,6.6999,6.6999,6.6999,6.6999,0.0,6.6999,6.6999,6.6999,6.6999,6.661,6.5754,6.4345,6.2847,6.1065,5.9169,5.7025,0.0,5.4227,5.2085,5.0419,4.9188,4.954,4.9715,4.9715,5.0067,5.0218,5.0218,5.0218,5.0218,5.0268,5.0594,5.087,5.1096,5.1599,5.2051,5.2427,5.2578,5.3113,5.3987,5.5049,5.5115,5.493,5.5382,5.388,5.1725,5.0564,5.0218,5.0193,4.9967,5.0067,5.0167,4.9967,4.964,4.9583,5.0328,5.1009,5.1909,5.3218,5.2881,5.251,5.2927,5.2925,5.3061,5.3754,5.3865,5.3502,5.2619,0.0,0.0,0.0,0.0,0.0,0.0,4.3201,4.2782,0.0,0.0,0.0,0.0,0.0,0.0,3.2436,3.2974,0.0,3.4586,3.5152,3.7739,4.242,4.5483,4.9081,5.2929,5.2929,5.2929,5.2929,5.2929,5.2929,5.2929,5.2929,5.2929,5.2929,5.2929,5.2189,5.1141,5.1651,5.0388,4.8223,6.6999,6.6999,6.6999,0.0,6.6999,0.0,6.6999,6.6999,6.6999,6.6999,6.6999,6.6999,6.6999,6.6999,6.6999,6.6999,0.0,0.0,0.0,6.6999,6.626,6.4567,6.4345,6.3285,6.1097,5.9128,5.7478,5.6223,5.3487,5.1875,5.1348,5.1373,5.1348,5.1272,5.1322,5.1322,5.1272,5.1272,5.1272,5.1272,5.1322,5.1649,5.2051,5.1574,5.2026,5.2854,5.2463,5.3659,5.5419,5.5683,5.6763,5.7894,5.7404,5.6079,5.4262,5.2129,5.1405,5.1172,5.0619,5.087,5.1147,5.0619,5.0534,5.1152,5.3065,5.3644,5.4057,5.4984,5.4488,5.3824,5.3851,5.3824,5.4018,5.4658,5.4769,5.4296,5.3017,0.0,0.0,0.0,0.0,0.0,0.0,4.2683,4.2256,0.0,0.0,0.0,0.0,0.0,3.6043,3.1569,3.1688,3.2215,3.3061,3.3094,3.5663,4.0737,4.4943,4.8986,5.2698,5.2861,5.2929,5.2929,5.2929,5.2955,5.298,5.2955,5.2955,5.298,5.2929,5.2929,5.298,5.3507,5.2509,5.0794,0.0,0.0,6.6999,6.6999,6.6999,6.6999,6.6999,6.6999,6.6999,6.6999,6.6999,6.6999,6.6999,6.6999,6.6999,6.6999,6.6999,6.6999,6.6999,6.6999,6.6785,6.6384,6.5042,6.4031,6.3472,5.9927,5.6885,5.4352,5.3236,5.2452,5.1925,5.2352,5.2076,5.1297,5.1724,5.1674,5.1272,5.1272,5.1272,5.1322,5.1749,5.2,5.2126,5.2427,5.2703,5.3017,5.4211,5.4944,5.5787,5.839,5.8731,5.7977,5.7839,5.6638,5.4958,5.3569,5.2319,5.1247,5.1122,5.1172,5.1247,5.1096,5.2049,5.3308,5.4512,5.5777,5.6967,5.7896,5.7537,5.7147,5.7647,5.7353,5.7235,5.7882,5.8,5.7529,5.6177,5.6001,0.0,0.0,5.1555,5.0209,4.6465,4.6664,4.602,0.0,0.0,0.0,0.0,4.0602,3.8491,3.373,3.243,3.21,3.2621,3.2978,3.6376,4.2849,4.5355,4.7993,5.0717,5.2189,5.2929,5.2929,5.2929,5.3155,5.3482,5.308,5.3155,5.3482,5.308,5.2929,5.298,5.3507,5.3403,5.2745,6.6999,6.6999,6.6999,6.6999,6.6999,6.6999,6.6999,6.6999,6.6999,6.6999,6.6999,6.6999,6.6999,6.6999,6.6999,6.6999,6.6999,6.6999,6.6999,6.6999,6.6999,6.6999,6.6044,6.5513,6.5513,6.1691,5.7874,5.411,5.3557,5.3005,5.2477,5.2779,5.2603,5.2051,5.2352,5.2302,5.2026,5.2026,5.2026,5.2076,5.2352,5.2477,5.2528,5.2804,5.2929,5.2998,5.392,5.5247,5.6892,5.8731,5.9228,5.9104,5.9104,5.7405,5.5287,5.468,5.3329,5.1975,5.1724,5.185,5.1975,5.1724,5.3505,5.5311,5.5579,5.7277,5.8965,5.9444,5.9039,5.868,5.9039,5.88,5.868,5.9039,5.859,5.7932,5.7184,5.6855,0.0,5.42,5.3931,5.2755,4.9766,4.9449,4.8368,4.5842,4.6502,0.0,4.1427,4.2236,4.0219,3.474,3.387,3.3644,3.385,3.5215,3.8348,4.3184,4.4478,4.6776,5.0056,5.1068,5.205,5.2929,5.2929,5.308,5.3331,5.3306,5.3457,5.3708,5.3683,5.3683,5.3708,5.3984,5.3934,5.3403,6.6999,6.6999,6.6999,6.6999,6.6999,6.6999,6.6999,6.6999,6.6999,6.6999,6.6999,6.6999,6.6999,6.6999,6.6999,6.6999,6.6999,6.6999,6.6999,6.6999,6.6999,6.6999,6.6999,6.6999,6.6999,6.3391,5.918,5.4561,5.3984,5.3432,5.2929,5.2929,5.2929,5.2929,5.2929,5.2929,5.2929,5.2929,5.2929,5.2929,5.2929,5.2929,5.2929,5.2929,5.2929,5.2929,5.328,5.5272,5.7761,5.8126,5.9199,6.0312,5.9953,5.7897,5.5551,5.5446,5.4366,5.3146,5.242,5.2757,5.3258,5.3046,5.529,5.7376,5.6826,5.861,6.0356,6.0266,5.9787,5.9368,5.9279,5.9249,5.9189,5.8979,5.7992,5.7184,5.6974,0.0,5.6286,5.6248,5.5736,5.4646,5.268,5.1458,4.9992,4.8032,4.836,4.7051,4.328,4.3669,4.1501,3.6014,3.5612,3.5497,3.5497,3.7669,3.9969,4.2366,4.312,4.5464,4.9153,4.9748,5.0928,5.2491,5.2792,5.298,5.308,5.3432,5.3632,5.3758,5.4235,5.4436,5.4436,5.4607,5.4094,5.3151,6.6999,6.6999,6.6999,6.6999,6.6999,6.6999,6.6999,6.6999,6.6999,6.6999,6.6999,6.6999,6.6999,6.6999,6.6999,6.6999,6.6999,6.6999,6.6999,6.6999,6.6999,6.6999,6.6999,6.6999,6.6999,6.3029,5.8846,5.4561,5.3984,5.3432,5.2929,5.2929,5.2929,5.2929,5.2929,5.2929,5.2929,5.2929,5.2929,5.2929,5.2929,5.2929,5.2929,5.2929,5.2929,5.3186,5.5044,5.6144,5.6837,5.8707,5.9524,5.9413,5.7578,5.6585,5.6079,5.5578,5.5247,5.4649,5.3189,5.3868,5.5353,5.6746,5.8529,5.9801,5.9111,6.0472,6.1642,6.1074,6.0864,6.0625,6.0027,5.9937,5.9578,5.8471,5.8112,5.7573,5.6466,0.0,5.6765,5.6278,5.7004,5.6293,5.2849,5.2832,5.1588,4.8182,4.7983,4.7277,4.5526,4.414,4.246,4.035,3.714,3.5497,3.5497,3.6306,3.7878,4.0409,4.2493,4.4007,4.5127,4.8506,5.0198,5.0551,5.2189,5.3181,5.3557,5.3206,5.3306,5.3708,5.3808,5.3833,5.3884,5.4386,5.3439,5.1801,6.6999,6.6999,6.6999,6.6999,6.6999,6.6999,6.6999,6.6999,6.6999,6.6999,6.6999,6.6999,6.6999,6.6999,6.6999,6.6999,6.6999,6.6999,6.6999,6.6999,6.6999,6.6999,6.6999,6.6106,6.4153,6.1252,5.8085,5.4561,5.4285,5.4195,5.4231,5.3291,5.3359,5.4231,5.3291,5.2929,5.2929,5.2929,5.2929,5.2929,5.2929,5.2929,5.2955,5.3231,5.3331,5.3476,5.4883,5.5933,5.6912,5.7892,5.8241,5.8,5.6703,5.5904,5.5185,5.4312,5.538,5.6661,5.5841,5.6206,5.6956,5.7815,5.9228,6.0393,6.0105,6.1116,6.2002,6.1702,6.0605,5.9534,5.8945,5.8771,5.8566,5.798,5.7695,0.0,0.0,5.7363,5.7124,5.7214,5.8052,5.7302,5.3849,5.3779,5.2554,4.9065,4.8812,4.812,4.6532,4.5646,4.3984,4.1397,3.8622,3.7293,3.7519,3.7727,3.8612,4.0234,4.1379,4.2645,4.4172,4.5998,4.7976,5.0056,5.0928,5.2104,5.3281,5.3331,5.3482,5.3758,5.4386,5.4612,5.4637,5.4913,5.359,5.1386,6.6999,6.6999,6.6999,6.6999,6.6999,6.6999,6.6999,6.6999,6.6999,6.6999,6.6999,6.6999,6.6999,6.6999,6.6846,6.6384,6.6384,6.6384,6.6384,6.5981,6.5919,6.6384,6.5981,6.4217,6.1056,5.9574,5.7466,5.4561,5.4561,5.4701,5.4782,5.392,5.3987,5.4809,5.3852,5.3222,5.2929,5.2929,5.2929,5.2929,5.3055,5.3105,5.3181,5.3708,5.3909,5.3984,5.4536,5.5606,5.6764,5.6825,5.6877,5.6773,5.6269,5.5457,5.4703,5.4043,5.6305,5.8934,5.8627,5.8571,5.8697,5.907,6.0144,6.111,6.111,6.1732,6.2331,6.2331,6.0849,5.9423,5.8841,5.8667,5.8493,5.8057,0.0,0.0,0.0,5.8022,5.7693,5.8082,5.8979,5.827,5.4904,5.4607,5.3281,5.0024,4.9665,4.9032,4.7678,4.6788,4.464,4.111,3.9533,3.8926,3.9355,3.9453,3.9844,4.0527,4.0625,4.1646,4.3435,4.3869,4.5775,4.865,4.9605,5.0857,5.2283,5.3148,5.3507,5.3632,5.4762,5.5189,5.5214,5.534,5.3812,5.124,6.6999,6.6999,6.6999,6.6999,6.6999,6.6999,6.6999,6.6999,6.6999,6.6999,6.6999,6.6999,6.6999,6.6999,6.6322,6.463,6.4503,6.4503,6.4503,6.2953,6.2755,6.4438,6.2887,6.1056,5.9113,5.8973,5.7466,5.4561,5.4561,5.4054,5.311,5.4541,5.4407,5.3179,5.4608,5.4366,5.2929,5.2929,5.2929,5.298,5.3457,5.3632,5.3708,5.4285,5.4511,5.4561,5.5139,5.5387,5.5606,5.611,5.6286,5.6186,5.5656,5.5433,5.5547,5.6539,5.927,6.1758,6.0614,6.0298,6.069,6.2292,6.2817,6.2933,6.2933,6.2961,6.3019,6.3019,6.2901,6.2547,6.1891,6.1771,6.1145,5.9294,0.0,0.0,5.7393,5.8231,5.874,5.8201,5.9817,5.9415,5.5543,5.5187,5.3847,5.0605,4.9891,4.9751,5.0122,4.6789,4.3364,4.0141,3.9449,3.9375,3.9844,4.0234,4.0469,4.0527,4.0937,4.121,4.1463,4.3283,4.4247,4.4752,4.8434,5.0103,5.0339,5.2238,5.298,5.308,5.4185,5.4637,5.4687,5.5189,5.3812,5.124,6.6999,6.6999,6.6999,6.6999,6.6999,6.6999,6.6999,6.6999,6.657,6.5513,6.5295,6.4885,6.3765,6.3606,6.3346,6.2689,6.2595,6.2595,6.2595,6.092,6.0716,6.2529,6.0852,5.9574,5.8903,5.7824,5.6514,5.5089,5.4737,5.4765,5.4977,5.4209,5.4055,5.4433,5.4389,5.3978,5.3432,5.3783,5.3934,5.3959,5.416,5.4235,5.4285,5.4863,5.5089,5.5139,5.5691,5.5892,5.5942,5.6143,5.6219,5.6118,5.5566,5.5616,5.6128,5.7233,5.8335,5.9429,6.1154,6.2453,6.3327,6.362,6.3977,6.4186,6.3737,6.3647,6.3528,6.3169,6.2233,6.1321,6.0706,6.056,6.0268,5.9595,0.0,6.0326,6.0206,6.0296,6.0266,5.9997,6.0655,5.9708,5.6154,5.585,5.4494,5.121,5.0745,5.0232,4.9126,4.547,4.294,4.2058,4.0682,4.0098,4.0273,4.0449,4.0664,4.0937,4.1094,4.1172,4.125,4.1985,4.2922,4.4151,4.5701,4.7759,5.0056,5.0787,5.1816,5.303,5.4135,5.4561,5.4637,5.5189,5.3812,5.1459,6.6168,6.66,6.6999,6.6999,6.6508,6.6168,6.6168,6.5639,6.4822,6.3606,6.3476,6.3018,6.173,6.1595,6.1394,6.0784,6.0716,6.0716,6.0716,5.9574,5.9183,5.9851,5.8719,5.8037,5.8037,5.6823,5.5942,5.539,5.5013,5.5191,5.5751,5.4706,5.4526,5.5154,5.4911,5.4493,5.4009,5.4386,5.4561,5.4587,5.4762,5.4813,5.4888,5.544,5.5641,5.5691,5.6068,5.6219,5.6219,5.6219,5.6219,5.6143,5.5767,5.5917,5.6337,5.7171,5.7503,5.8141,6.0328,6.2778,6.472,6.4397,6.4665,6.4904,6.4425,6.4306,6.4216,6.3767,6.2765,6.1726,6.1173,6.1143,6.1084,6.056,6.1138,6.1732,6.1792,6.1583,6.1343,6.1134,6.0981,5.9713,5.6759,5.599,5.457,5.1791,5.0787,4.9334,4.6837,4.4416,4.2927,4.2679,4.1373,4.0723,4.0723,4.0723,4.0879,4.1172,4.1172,4.1172,4.1172,4.1172,4.1907,4.3207,4.3794,4.5998,4.9081,4.9748,5.1163,5.303,5.4135,5.4561,5.4637,5.5189,5.4297,5.2574,6.4281,6.5702,6.6999,6.6999,6.5513,6.4281,6.4281,6.2755,6.1595,6.1595,6.1595,6.1595,6.1528,6.1528,6.0852,5.9043,5.8903,5.8903,5.8903,5.8903,5.8108,5.6267,5.6219,5.6219,5.6219,5.6219,5.5942,5.539,5.539,5.5114,5.4632,5.628,5.6211,5.4703,5.6349,5.6141,5.4587,5.4587,5.4587,5.4637,5.5164,5.539,5.544,5.6018,5.6219,5.6219,5.6219,5.6219,5.6219,5.6219,5.6219,5.6219,5.6219,5.6219,5.6219,5.6219,5.7492,5.8727,5.8078,6.102,6.4376,6.4842,6.4964,6.5054,6.5024,6.5024,6.5024,6.5024,6.5024,6.4814,6.4126,6.4575,6.4395,6.245,6.266,6.263,6.1313,6.1702,6.1852,6.1138,6.0735,5.9554,5.7211,5.5515,5.3882,5.2236,4.9781,4.6837,4.3457,4.3769,4.3228,4.125,4.1172,4.1172,4.1172,4.1172,4.1172,4.1172,4.1172,4.1172,4.1172,4.1172,4.1172,4.1327,4.3207,4.5201,4.7102,4.9153,5.1163,5.2961,5.4135,5.4561,5.4708,5.5189,5.539,5.4927,6.2396,6.2821,6.3215,6.3215,6.2755,6.2396,6.2396,6.1931,6.1123,5.9851,5.9712,5.9253,5.7966,5.7824,5.7564,5.7014,5.7014,5.7014,5.7014,5.7014,5.675,5.6219,5.6219,5.6219,5.6219,5.6219,5.6118,5.5968,5.5566,5.5315,5.5139,5.5279,5.5101,5.4658,5.5507,5.5614,5.5164,5.5541,5.5717,5.5742,5.5892,5.5968,5.5993,5.6143,5.6219,5.6219,5.6219,5.6219,5.6219,5.6219,5.6219,5.6219,5.6219,5.6219,5.6219,5.6219,5.6558,5.7251,5.8298,6.0444,6.2624,6.3526,6.4774,6.5592,6.5144,6.5024,6.4904,6.4425,6.4695,6.4964,6.4755,6.4904,6.4844,6.4246,6.4306,6.4126,6.3258,6.2293,6.1433,6.0763,5.9521,5.7985,5.6068,5.5418,5.4481,5.2815,4.9369,4.6357,4.4037,4.2993,4.2209,4.1621,4.1894,4.1914,4.1621,4.1328,4.1172,4.1172,4.1172,4.1172,4.1172,4.1172,4.1172,4.125,4.183,4.3151,4.5127,4.7102,4.9081,5.1119,5.3616,5.4561,5.4687,5.5616,5.5717,5.5268,6.0511,6.1123,6.1595,6.1595,6.0988,6.0511,6.0511,5.992,5.9043,5.7966,5.7824,5.7421,5.634,5.6219,5.6219,5.6219,5.6219,5.6219,5.6219,5.6219,5.6219,5.6219,5.6219,5.6219,5.6219,5.6219,5.6219,5.6219,5.5867,5.5717,5.5717,5.5365,5.5214,5.5239,5.5566,5.5717,5.5742,5.6068,5.6219,5.6219,5.6219,5.6219,5.6219,5.6219,5.6219,5.6219,5.6219,5.6219,5.6219,5.6219,5.6219,5.6219,5.6219,5.6219,5.6219,5.6219,5.6219,5.6412,5.7564,5.9183,6.0838,6.2277,6.4522,6.6281,6.5892,6.5802,6.5682,6.5263,6.5503,6.5712,6.5473,6.5622,6.5622,6.5114,6.4603,6.406,6.3412,6.1693,6.0297,5.99,5.8115,5.6596,5.5485,5.4782,5.3326,5.0763,4.7613,4.5063,4.3321,4.2327,4.1875,4.2051,4.2285,4.2305,4.2051,4.1797,4.1504,4.1172,4.1504,4.1484,4.1172,4.1348,4.1328,4.1172,4.1172,4.2273,4.4172,4.5351,4.7029,4.9126,5.2186,5.3416,5.3636,5.5501,5.5993,5.5641,5.8648,5.9989,6.1123,6.1123,5.9712,5.8648,5.8648,5.7303,5.6219,5.6219,5.6219,5.6219,5.6219,5.6219,5.6219,5.6219,5.6219,5.6219,5.6219,5.6219,5.6219,5.6219,5.6219,5.6219,5.6219,5.6219,5.6219,5.6219,5.6219,5.6219,5.6219,5.6219,5.6219,5.6219,5.6219,5.6219,5.6219,5.6219,5.6219,5.6219,5.6219,5.6219,5.6219,5.6219,5.6219,5.6219,5.6219,5.6219,5.6219,5.6219,5.6219,5.6219,5.6219,5.6219,5.6219,5.6219,5.6219,5.6219,5.6219,5.7492,5.9322,6.1123,6.4217,6.6785,6.6909,6.6909,6.6909,6.6909,6.6939,6.6819,6.6191,6.6458,6.6335,6.5143,6.3914,6.2899,6.2268,6.013,5.8649,5.8594,5.6554,5.5089,5.4956,5.3351,5.0787,4.7029,4.5127,4.3413,4.1856,4.1836,4.2051,4.248,4.2519,4.2519,4.248,4.2519,4.2129,4.1289,4.207,4.2012,4.125,4.1621,4.1562,4.1172,4.1172,4.2196,4.3869,4.4021,4.5127,4.7045,5.0106,5.124,5.1651,5.4671,5.5751,5.5674,5.6823,5.7086,5.7349,5.7349,5.7014,5.6823,5.6823,5.6485,5.6219,5.6219,5.6219,5.6219,5.6219,5.6219,5.6219,5.6219,5.6219,5.6219,5.6219,5.6219,5.6219,5.6219,5.6219,5.6219,5.6219,5.6219,5.6219,5.6219,5.6219,5.6219,5.6219,5.6219,5.6219,5.6219,5.6219,5.6219,5.6219,5.6219,5.6219,5.6219,5.6219,5.6219,5.6219,5.6219,5.6219,5.6219,5.6219,5.6219,5.6219,5.6219,5.6219,5.6219,5.6219,5.6219,5.6219,5.6219,5.6219,5.6219,5.6219,5.7492,5.9322,6.1123,6.328,6.5115,6.6006,6.6221,6.6221,6.6221,6.664,6.6939,6.6819,6.5739,6.4798,6.4537,6.3062,6.1713,6.1062,5.907,5.7424,5.6904,5.4863,5.2829,5.1345,4.9415,4.7321,4.4902,4.4323,4.3413,4.1856,4.2109,4.248,4.293,4.3262,4.3281,4.2949,4.3262,4.3008,4.2148,4.2344,4.2148,4.166,4.1758,4.1562,4.1172,4.1172,4.1463,4.1985,4.3511,4.4377,4.4966,4.7626,4.8691,4.9005,5.1626,5.2622,5.2817,5.6219,5.6219,5.6219,5.6219,5.6219,5.6219,5.6219,5.6219,5.6219,5.6219,5.6219,5.6219,5.6219,5.6219,5.6219,5.6219,5.6219,5.6219,5.6219,5.6219,5.6219,5.6219,5.6219,5.6219,5.6219,5.6219,5.6219,5.6219,5.6219,5.6219,5.6219,5.6219,5.6219,5.6219,5.6219,5.6219,5.6219,5.6219,5.6219,5.6219,5.6219,5.6219,5.6219,5.6219,5.6219,5.6219,5.6219,5.6219,5.6219,5.6219,5.6219,5.6219,5.6219,5.6219,5.6219,5.6219,5.6219,5.6219,5.6219,5.6895,5.8037,5.9851,6.1663,6.3586,6.5969,6.649,6.649,6.649,6.6759,6.6999,6.6999,6.5513,6.4281,6.4281,6.2064,6.0225,5.9832,5.6998,5.4779,5.4431,5.2012,4.996,4.8673,4.6809,4.5201,4.4172,4.3207,4.2454,4.1856,4.2207,4.2637,4.3066,4.3496,4.3594,4.3379,4.3594,4.3476,4.3027,4.3027,4.2715,4.2109,4.2324,4.2168,4.1777,4.1777,4.166,4.1543,4.2574,4.2896,4.2984,4.5513,4.6441,4.6786,4.9302,5.0607,5.1561,5.6219,5.6219,5.6219,5.6219,5.6219,5.6219,5.6219,5.5901,5.5681,5.5681,5.5681,5.5681,5.5681,5.5974,5.6219,5.6219,5.6219,5.6219,5.6219,5.6219,5.6219,5.6219,5.6219,5.6219,5.6219,5.6219,5.6219,5.6219,5.6219,5.6219,5.6219,5.6219,5.6219,5.6219,5.6219,5.6219,5.6219,5.6219,5.6219,5.6219,5.6219,5.6219,5.6219,5.6219,5.6219,5.6219,5.6219,5.6219,5.6219,5.6219,5.6219,5.6219,5.6219,5.6219,5.6219,5.6219,5.6219,5.6219,5.6219,5.6219,5.6605,5.8437,6.0058,6.1997,6.5295,6.657,6.6999,6.6999,6.6999,6.6999,6.6999,6.5295,6.383,6.383,6.0784,5.8437,5.8437,5.5204,5.2662,5.2196,4.9159,4.6905,4.6559,4.4752,4.3608,4.3691,4.2239,4.1484,4.1992,4.2344,4.2734,4.3164,4.3516,4.3711,4.3711,4.3711,4.3711,4.3711,4.3711,4.3301,4.2558,4.291,4.2832,4.2422,4.2422,4.2187,4.1797,4.1797,4.1562,4.1425,4.3485,4.4301,4.4552,4.7049,4.8885,5.0458,5.6219,5.6219,5.6219,5.6219,5.6219,5.6219,5.6219,5.4646,5.3477,5.3477,5.3477,5.3477,5.3477,5.5115,5.6219,5.6219,5.6219,5.6219,5.6219,5.6219,5.6219,5.6219,5.6219,5.6219,5.6219,5.6219,5.6219,5.6219,5.6219,5.6219,5.6219,5.6219,5.6219,5.6219,5.6219,5.6219,5.6219,5.6219,5.6219,5.6219,5.6219,5.6219,5.6219,5.6219,5.6219,5.6219,5.6219,5.6219,5.6219,5.6219,5.6219,5.6219,5.6219,5.6219,5.6219,5.6219,5.6219,5.6219,5.6219,5.6219,5.6605,5.8437,5.9113,5.9782,6.1864,6.4758,6.6999,6.6999,6.6999,6.6999,6.6999,6.4217,6.1997,6.1997,5.8903,5.6558,5.6558,5.5644,5.4129,5.1991,4.75,4.4537,4.4473,4.2713,4.1776,4.2053,4.1857,4.207,4.2871,4.2969,4.3183,4.3613,4.3672,4.3711,4.3711,4.3711,4.3711,4.3711,4.3711,4.3457,4.2988,4.3047,4.2832,4.2422,4.2422,4.2187,4.1797,4.1797,4.1562,4.125,4.16,4.1697,4.1929,4.3961,4.5928,4.758,5.6219,5.6219,5.6219,5.6219,5.6219,5.6219,5.6219,5.4423,5.31,5.31,5.209,5.1785,5.2949,5.4967,5.6219,5.6219,5.6219,5.6219,5.6219,5.6219,5.6219,5.6219,5.6219,5.6219,5.6219,5.6219,5.6219,5.6219,5.6219,5.6219,5.6219,5.6219,5.6219,5.6219,5.6219,5.6219,5.6219,5.6219,5.6219,5.6219,5.6219,5.6219,5.6219,5.6219,5.6219,5.6219,5.6219,5.6219,5.6219,5.6219,5.6219,5.6219,5.6219,5.6219,5.6219,5.6219,5.6219,5.6219,5.6219,5.6219,5.6412,5.7159,5.8179,5.9113,5.992,6.2131,6.3959,6.3959,6.3959,6.3959,6.3959,6.1864,6.0127,6.0127,5.7895,5.6219,5.6219,5.4991,5.2681,4.8748,4.5047,4.2766,4.2503,4.1695,4.125,4.1426,4.166,4.1973,4.2344,4.2812,4.3164,4.3359,4.3574,4.3711,4.3711,4.3711,4.3711,4.3711,4.3711,4.3613,4.3418,4.3418,4.332,4.3144,4.3144,4.291,4.25,4.2246,4.1894,4.1504,4.1269,4.1172,4.1522,4.3957,4.5218,4.5911]}]]